[[{"header":{"parameterUnit":"m.s-1","parameterCategory":1,"la1":30.6,"la2":29.2853,"lo1":-89.7004,"lo2":-87.6739,"dy":0.0162,"dx":0.0183,"nx":112,"ny":82,"refTime":"2023-05-26T06:00:00:Z","depth":0,"parameterNumber":2,"parameterNumberName":"U-component_of_WINDS"},"data":[0.0,0.0,0.0,0.0,0.0,0.0,0.0,0.0,0.0,0.0,0.0,0.0,0.0,0.0,0.0,0.0,0.0,0.0,0.0,0.0,0.0,0.0,0.0,0.0,0.0,0.0,0.0,0.0,0.0,0.0,0.0,0.0,0.0,0.0,0.0,0.0,0.0,0.0,0.0,0.0,0.0,0.0,0.0,0.0,0.0,0.0,0.0,0.0,0.0,0.0,0.0,0.0,0.0,0.0,0.0,0.0,0.0,0.0,0.0,0.0,0.0,0.0,0.0,0.0,0.0,0.0,0.0,0.0,0.0,0.0,0.0,0.0,0.0,0.0,0.0,0.0,0.0,0.0,0.0,0.0,0.0,0.0,0.0,0.0,0.0,0.0,0.0,0.0,0.0,0.0,2.1841,2.2044,2.1664,2.1423,2.1423,2.1423,2.1423,2.1423,0.0,0.0,0.0,0.0,0.0,0.0,0.0,0.0,0.0,0.0,0.0,0.0,0.0,0.0,0.0,0.0,0.0,0.0,0.0,0.0,0.0,0.0,0.0,0.0,0.0,0.0,0.0,0.0,0.0,0.0,0.0,0.0,0.0,0.0,0.0,0.0,0.0,0.0,0.0,0.0,0.0,0.0,0.0,0.0,0.0,0.0,0.0,0.0,0.0,0.0,0.0,0.0,0.0,0.0,0.0,0.0,0.0,0.0,0.0,0.0,0.0,0.0,0.0,0.0,0.0,0.0,0.0,0.0,0.0,0.0,0.0,0.0,0.0,0.0,0.0,0.0,0.0,0.0,0.0,0.0,0.0,0.0,0.0,0.0,0.0,0.0,0.0,0.0,0.0,0.0,0.0,0.0,0.0,0.0,0.0,0.0,0.0,0.0,0.0,0.0,0.0,0.0,0.0,0.0,2.1471,2.152,2.1471,2.1423,2.1423,2.1423,2.1423,2.1423,0.0,0.0,0.0,0.0,0.0,0.0,0.0,0.0,0.0,0.0,0.0,0.0,0.0,0.0,0.0,0.0,0.0,0.0,0.0,0.0,0.0,0.0,0.0,0.0,0.0,0.0,0.0,0.0,0.0,0.0,0.0,0.0,0.0,0.0,0.0,0.0,0.0,0.0,0.0,0.0,0.0,0.0,0.0,0.0,0.0,0.0,0.0,0.0,0.0,0.0,0.0,0.0,0.0,0.0,0.0,0.0,0.0,0.0,0.0,0.0,0.0,0.0,0.0,0.0,0.0,0.0,0.0,0.0,0.0,0.0,0.0,0.0,0.0,0.0,0.0,0.0,0.0,0.0,0.0,0.0,0.0,0.0,0.0,0.0,0.0,0.0,0.0,0.0,0.0,0.0,0.0,0.0,0.0,0.0,0.0,0.0,0.0,0.0,0.0,0.0,0.0,0.0,0.0,2.2203,2.1568,2.1423,2.1423,2.1423,2.1423,2.1423,2.1423,2.1423,2.1423,0.0,0.0,0.0,0.0,0.0,0.0,0.0,0.0,0.0,0.0,0.0,0.0,0.0,0.0,0.0,0.0,0.0,0.0,0.0,0.0,0.0,0.0,0.0,0.0,0.0,0.0,0.0,0.0,0.0,0.0,0.0,0.0,0.0,0.0,0.0,0.0,0.0,0.0,0.0,0.0,0.0,0.0,0.0,0.0,0.0,0.0,0.0,0.0,0.0,0.0,0.0,0.0,0.0,0.0,0.0,0.0,0.0,0.0,0.0,0.0,0.0,0.0,0.0,0.0,0.0,0.0,0.0,0.0,0.0,0.0,0.0,0.0,0.0,0.0,0.0,0.0,0.0,0.0,0.0,0.0,0.0,0.0,0.0,0.0,0.0,0.0,0.0,0.0,0.0,0.0,0.0,0.0,0.0,0.0,0.0,0.0,0.0,0.0,0.0,0.0,0.0,0.0,2.2156,2.1698,2.152,2.1423,2.1423,2.1423,2.1423,2.1423,2.1423,2.1423,0.0,0.0,0.0,0.0,0.0,0.0,0.0,0.0,0.0,0.0,0.0,0.0,0.0,0.0,0.0,0.0,0.0,0.0,0.0,0.0,0.0,0.0,0.0,0.0,0.0,0.0,0.0,0.0,0.0,0.0,0.0,0.0,0.0,0.0,0.0,0.0,0.0,0.0,0.0,0.0,0.0,0.0,0.0,0.0,0.0,0.0,0.0,0.0,0.0,0.0,0.0,0.0,0.0,0.0,0.0,0.0,0.0,0.0,0.0,0.0,0.0,0.0,0.0,0.0,0.0,0.0,0.0,0.0,0.0,0.0,0.0,0.0,0.0,0.0,0.0,0.0,0.0,0.0,0.0,0.0,0.0,0.0,0.0,0.0,0.0,0.0,0.0,0.0,0.0,0.0,0.0,0.0,0.0,0.0,0.0,0.0,0.0,0.0,0.0,0.0,0.0,0.0,2.2156,2.1793,2.1746,2.1568,2.1423,2.1423,2.1423,2.1423,2.1423,2.1423,0.0,0.0,0.0,0.0,0.0,0.0,0.0,0.0,0.0,0.0,0.0,0.0,0.0,0.0,0.0,0.0,0.0,0.0,0.0,0.0,0.0,0.0,0.0,0.0,0.0,0.0,0.0,0.0,0.0,0.0,0.0,0.0,0.0,0.0,0.0,0.0,0.0,0.0,0.0,0.0,0.0,0.0,0.0,0.0,0.0,0.0,0.0,0.0,0.0,0.0,0.0,0.0,0.0,0.0,0.0,0.0,0.0,0.0,0.0,0.0,0.0,0.0,0.0,0.0,0.0,0.0,0.0,0.0,0.0,0.0,0.0,0.0,0.0,0.0,0.0,0.0,0.0,0.0,0.0,0.0,0.0,0.0,0.0,0.0,0.0,0.0,0.0,0.0,0.0,0.0,0.0,0.0,0.0,0.0,0.0,0.0,0.0,0.0,0.0,0.0,0.0,0.0,2.2586,2.2184,0.0,2.1712,2.1568,2.1423,2.1423,2.1423,2.1423,0.0,0.0,0.0,0.0,0.0,0.0,0.0,0.0,0.0,0.0,0.0,0.0,0.0,0.0,0.0,0.0,0.0,0.0,0.0,0.0,0.0,0.0,0.0,0.0,0.0,0.0,0.0,0.0,0.0,0.0,0.0,0.0,0.0,0.0,0.0,0.0,0.0,0.0,0.0,0.0,0.0,0.0,0.0,0.0,0.0,0.0,0.0,0.0,0.0,0.0,0.0,0.0,0.0,0.0,0.0,0.0,0.0,0.0,0.0,0.0,0.0,0.0,0.0,0.0,0.0,0.0,0.0,0.0,0.0,0.0,0.0,0.0,0.0,0.0,0.0,0.0,0.0,0.0,0.0,0.0,0.0,0.0,0.0,0.0,0.0,0.0,0.0,0.0,0.0,0.0,0.0,0.0,0.0,0.0,0.0,0.0,0.0,0.0,0.0,0.0,0.0,0.0,2.3246,2.2873,2.2463,0.0,2.1902,2.1746,2.1568,2.152,2.1471,2.1423,0.0,0.0,0.0,0.0,0.0,0.0,0.0,0.0,0.0,0.0,0.0,0.0,0.0,0.0,0.0,0.0,0.0,0.0,0.0,0.0,0.0,0.0,0.0,0.0,0.0,0.0,0.0,0.0,0.0,0.0,0.0,0.0,0.0,0.0,0.0,0.0,0.0,0.0,0.0,0.0,0.0,0.0,0.0,0.0,0.0,0.0,0.0,0.0,0.0,0.0,0.0,0.0,0.0,0.0,0.0,0.0,0.0,0.0,0.0,0.0,0.0,0.0,0.0,0.0,0.0,0.0,0.0,0.0,0.0,0.0,0.0,0.0,0.0,0.0,0.0,0.0,0.0,0.0,0.0,0.0,0.0,0.0,0.0,0.0,0.0,0.0,0.0,0.0,0.0,0.0,0.0,0.0,0.0,0.0,0.0,0.0,0.0,0.0,0.0,0.0,0.0,0.0,2.3465,2.2949,2.2615,2.2615,2.2137,2.1793,2.1793,2.1793,2.1712,0.0,0.0,0.0,0.0,0.0,0.0,0.0,0.0,0.0,0.0,0.0,0.0,0.0,0.0,0.0,0.0,0.0,0.0,0.0,0.0,0.0,0.0,0.0,0.0,0.0,0.0,0.0,0.0,0.0,0.0,0.0,0.0,0.0,0.0,0.0,0.0,0.0,0.0,0.0,0.0,0.0,0.0,0.0,0.0,0.0,0.0,0.0,0.0,0.0,0.0,0.0,0.0,0.0,0.0,0.0,0.0,0.0,0.0,0.0,0.0,0.0,0.0,0.0,0.0,0.0,0.0,0.0,0.0,0.0,0.0,0.0,0.0,0.0,0.0,0.0,0.0,0.0,0.0,0.0,0.0,0.0,0.0,0.0,0.0,0.0,0.0,0.0,0.0,0.0,0.0,0.0,0.0,0.0,0.0,0.0,0.0,0.0,0.0,0.0,0.0,0.0,0.0,0.0,2.3142,2.2933,2.2752,2.2615,2.2463,2.2278,2.2091,2.2091,2.1996,2.1712,0.0,0.0,0.0,0.0,0.0,0.0,0.0,0.0,0.0,0.0,0.0,0.0,0.0,0.0,0.0,0.0,0.0,0.0,0.0,0.0,0.0,0.0,0.0,0.0,0.0,0.0,0.0,0.0,0.0,0.0,0.0,0.0,0.0,0.0,0.0,0.0,0.0,0.0,0.0,0.0,0.0,0.0,0.0,0.0,0.0,0.0,0.0,0.0,0.0,0.0,0.0,0.0,0.0,0.0,0.0,0.0,0.0,0.0,0.0,0.0,0.0,0.0,0.0,0.0,0.0,0.0,0.0,0.0,0.0,0.0,0.0,0.0,0.0,0.0,0.0,0.0,0.0,0.0,0.0,0.0,0.0,0.0,0.0,0.0,0.0,0.0,0.0,0.0,0.0,0.0,0.0,0.0,0.0,0.0,0.0,0.0,0.0,0.0,0.0,0.0,0.0,0.0,2.3187,2.2963,2.2843,2.2752,2.2661,2.2509,2.237,2.237,2.2231,2.1996,0.0,0.0,0.0,0.0,0.0,0.0,0.0,0.0,0.0,0.0,0.0,0.0,0.0,0.0,0.0,0.0,0.0,0.0,0.0,0.0,0.0,0.0,0.0,0.0,0.0,0.0,0.0,0.0,0.0,0.0,0.0,0.0,0.0,0.0,0.0,0.0,0.0,0.0,0.0,0.0,0.0,0.0,0.0,0.0,0.0,0.0,0.0,0.0,0.0,0.0,0.0,0.0,0.0,0.0,0.0,0.0,0.0,0.0,0.0,0.0,0.0,0.0,0.0,0.0,0.0,0.0,0.0,0.0,0.0,0.0,0.0,0.0,0.0,0.0,0.0,0.0,0.0,0.0,0.0,0.0,0.0,0.0,0.0,0.0,0.0,0.0,0.0,0.0,0.0,0.0,0.0,0.0,0.0,0.0,0.0,0.0,0.0,0.0,0.0,0.0,0.0,0.0,2.3406,2.3142,2.2975,2.2975,2.2896,2.2787,2.2787,2.2787,2.2666,2.2362,0.0,0.0,0.0,0.0,0.0,0.0,0.0,0.0,0.0,0.0,0.0,0.0,0.0,0.0,0.0,0.0,0.0,0.0,0.0,0.0,0.0,0.0,0.0,0.0,0.0,0.0,0.0,0.0,0.0,0.0,0.0,0.0,0.0,0.0,0.0,0.0,0.0,0.0,0.0,0.0,0.0,0.0,0.0,0.0,0.0,0.0,0.0,0.0,0.0,0.0,0.0,0.0,0.0,0.0,0.0,0.0,0.0,0.0,0.0,0.0,3.0793,0.0,0.0,0.0,0.0,0.0,0.0,0.0,0.0,0.0,0.0,0.0,0.0,0.0,0.0,0.0,0.0,0.0,0.0,0.0,0.0,0.0,0.0,0.0,0.0,0.0,0.0,0.0,0.0,0.0,0.0,0.0,0.0,0.0,0.0,0.0,0.0,0.0,0.0,0.0,0.0,0.0,2.3098,2.3414,2.3688,2.3688,2.4076,2.4332,2.4332,2.4332,2.4019,2.3279,2.3439,0.0,0.0,0.0,0.0,0.0,0.0,0.0,0.0,0.0,0.0,0.0,0.0,0.0,0.0,0.0,0.0,0.0,0.0,0.0,0.0,0.0,0.0,0.0,0.0,0.0,0.0,0.0,0.0,0.0,0.0,0.0,0.0,0.0,0.0,0.0,0.0,0.0,0.0,0.0,0.0,0.0,0.0,0.0,0.0,0.0,0.0,0.0,0.0,0.0,0.0,0.0,0.0,0.0,0.0,0.0,0.0,0.0,0.0,0.0,0.0,3.0806,0.0,0.0,0.0,0.0,0.0,0.0,0.0,0.0,0.0,0.0,0.0,0.0,0.0,0.0,0.0,0.0,0.0,0.0,0.0,0.0,0.0,0.0,0.0,0.0,0.0,0.0,0.0,0.0,0.0,0.0,0.0,0.0,0.0,0.0,0.0,0.0,0.0,0.0,0.0,0.0,2.4172,2.4247,2.437,2.4341,2.4583,2.4785,2.4863,2.48,2.4592,2.4163,2.4149,0.0,0.0,0.0,0.0,0.0,0.0,0.0,0.0,0.0,0.0,0.0,0.0,0.0,0.0,0.0,0.0,0.0,0.0,0.0,0.0,0.0,0.0,0.0,0.0,0.0,0.0,0.0,0.0,0.0,0.0,0.0,0.0,0.0,0.0,0.0,0.0,0.0,0.0,0.0,0.0,0.0,0.0,0.0,0.0,0.0,0.0,0.0,0.0,0.0,0.0,0.0,0.0,0.0,3.0785,3.0785,3.0785,3.073,3.0711,3.0697,3.0774,3.0808,3.0804,3.079,0.0,0.0,0.0,0.0,0.0,0.0,0.0,0.0,0.0,0.0,0.0,0.0,0.0,0.0,0.0,0.0,0.0,0.0,0.0,0.0,0.0,0.0,0.0,0.0,2.9777,2.9514,2.9229,0.0,0.0,0.0,0.0,0.0,0.0,0.0,0.0,0.0,0.0,0.0,2.5538,2.5242,2.5087,2.5009,2.511,2.5183,2.5226,2.5197,2.5075,2.4959,2.4825,2.4825,0.0,0.0,0.0,0.0,0.0,0.0,0.0,0.0,0.0,0.0,0.0,0.0,0.0,0.0,0.0,0.0,0.0,0.0,0.0,0.0,0.0,0.0,0.0,0.0,0.0,0.0,0.0,0.0,0.0,0.0,0.0,0.0,3.0804,3.0794,0.0,0.0,0.0,0.0,0.0,0.0,0.0,0.0,0.0,0.0,0.0,0.0,0.0,3.0709,3.0711,3.0709,3.0704,3.0704,3.0704,3.0704,3.0698,3.0691,3.0704,3.0691,3.0774,0.0,3.0793,3.0798,0.0,0.0,0.0,0.0,0.0,0.0,0.0,0.0,0.0,0.0,0.0,0.0,0.0,0.0,0.0,0.0,0.0,0.0,0.0,0.0,0.0,0.0,3.0189,3.0918,3.0928,3.0885,0.0,2.9916,2.8562,2.8414,2.83,0.0,0.0,0.0,0.0,0.0,0.0,0.0,2.5772,2.579,2.5827,2.5662,2.6184,2.6533,2.6533,2.6533,2.6286,2.5691,2.5662,2.5712,2.5827,2.5711,0.0,0.0,0.0,0.0,0.0,0.0,0.0,0.0,0.0,0.0,0.0,0.0,0.0,0.0,0.0,0.0,0.0,0.0,0.0,0.0,0.0,0.0,0.0,0.0,0.0,0.0,0.0,0.0,0.0,3.0801,3.0801,3.0791,3.0806,3.0798,0.0,0.0,0.0,0.0,0.0,0.0,0.0,0.0,0.0,3.0697,3.0711,3.0704,3.0697,3.0711,3.069,3.069,3.069,3.0704,3.0704,3.0704,3.071,3.0767,3.0789,3.0802,3.0806,3.0804,3.0796,3.0801,0.0,0.0,0.0,0.0,3.088,3.0899,3.0899,3.0901,3.0909,3.0897,0.0,0.0,0.0,0.0,0.0,0.0,0.0,3.24,0.0,0.0,3.1763,3.2025,3.1981,3.1895,3.1873,3.1088,3.0307,0.0,2.9503,2.9242,2.942,0.0,0.0,0.0,0.0,2.7333,2.7033,2.6783,2.6601,2.6513,2.6724,2.6899,2.6779,2.6779,2.6715,2.6476,2.6447,2.655,2.6652,2.6861,2.7393,0.0,0.0,0.0,0.0,0.0,0.0,0.0,0.0,0.0,0.0,0.0,0.0,0.0,0.0,0.0,0.0,0.0,0.0,0.0,0.0,0.0,0.0,0.0,0.0,0.0,0.0,0.0,0.0,3.0794,3.0798,3.0791,3.081,3.08,0.0,0.0,0.0,0.0,0.0,0.0,3.069,3.069,3.0697,3.0704,3.0697,3.0704,3.0737,3.0925,3.1041,3.1054,3.1268,3.1378,3.1382,3.1382,3.1387,3.1447,3.1453,3.1461,3.1425,3.0972,3.0938,3.1133,3.1133,3.127,3.1465,3.1524,3.1543,3.1543,3.1543,3.1548,3.1534,3.1542,3.1973,3.2539,3.2695,0.0,0.0,0.0,0.0,3.336,3.3106,3.3014,3.3017,3.3102,3.3058,3.2947,3.2692,3.2566,3.2218,0.0,3.0588,3.0241,3.0647,0.0,0.0,0.0,0.0,2.8352,2.8207,2.766,2.7181,2.7041,2.7041,2.6989,2.6937,2.6884,2.6937,2.7041,2.7041,2.7196,2.7423,2.7913,2.8512,2.9255,0.0,0.0,0.0,0.0,0.0,0.0,0.0,0.0,0.0,0.0,0.0,0.0,0.0,0.0,0.0,0.0,0.0,0.0,0.0,0.0,0.0,0.0,0.0,0.0,0.0,0.0,0.0,0.0,0.0,3.081,3.0799,0.0,0.0,0.0,0.0,3.0709,3.0697,3.0704,3.0697,3.069,3.0711,3.0697,3.0691,3.0724,3.0794,3.1557,3.1966,3.2031,3.2796,3.3166,3.3166,3.3166,3.3166,3.3171,3.3232,3.3278,3.3142,3.148,3.1289,3.2031,3.2031,3.2541,3.3263,3.3263,3.3263,3.3263,3.3263,3.3275,3.3262,3.3262,3.3301,3.3476,3.4238,3.4492,0.0,0.0,3.438,3.4135,3.3313,3.3048,3.3219,3.4029,3.4166,3.4222,3.4584,3.4486,3.3743,0.0,3.1159,3.1017,3.1003,0.0,3.0123,3.0593,2.93,2.8448,2.8795,2.8008,2.735,2.7181,2.7181,2.7181,2.7181,2.7181,2.7181,2.7181,2.7181,2.7458,2.8027,2.8607,2.9255,2.9924,3.0834,0.0,0.0,0.0,0.0,0.0,0.0,0.0,0.0,0.0,0.0,0.0,0.0,0.0,0.0,0.0,0.0,0.0,0.0,0.0,0.0,0.0,0.0,0.0,0.0,0.0,0.0,0.0,0.0,3.0801,3.0808,0.0,3.0799,3.0796,3.0798,3.0769,3.0769,3.0764,3.0753,3.0753,3.1012,3.1568,3.1601,3.186,3.2406,3.2694,3.2849,3.2874,3.3171,3.3312,3.3364,3.3364,3.3353,3.3363,3.3386,3.3389,3.3353,3.2734,3.2658,3.2931,3.2931,3.3131,3.341,3.3402,3.34,3.3402,3.3393,3.3398,3.3486,3.4053,3.4233,3.4392,3.5232,3.5507,3.5487,3.5416,3.536,3.5209,3.4861,3.4723,3.4759,3.5068,3.5121,3.5091,3.5005,3.4832,3.4408,3.3408,3.2614,3.2011,3.1791,3.123,3.0773,3.0692,2.9951,2.9332,2.909,2.8415,2.7795,2.7386,2.7335,2.7284,2.7233,2.7181,2.7233,2.7335,2.7335,2.7473,2.776,2.8591,2.9241,2.9601,3.0778,3.1605,0.0,0.0,0.0,0.0,0.0,0.0,0.0,0.0,0.0,0.0,0.0,0.0,0.0,0.0,0.0,0.0,0.0,0.0,0.0,0.0,0.0,0.0,0.0,0.0,0.0,0.0,3.0793,3.0794,3.0806,3.08,3.0801,3.0804,3.0794,3.0798,3.1066,3.1241,3.1232,3.1505,3.1919,3.2513,3.2528,3.2766,3.3325,3.3633,3.3769,3.3778,3.407,3.423,3.428,3.428,3.4287,3.4276,3.4276,3.4276,3.4278,3.4283,3.4281,3.4256,3.3947,3.4029,3.4289,3.4289,3.4273,3.4277,3.4276,3.4289,3.4376,3.4959,3.514,3.5244,3.581,3.601,3.5996,3.5926,3.5879,3.5823,3.5755,3.5673,3.5643,3.5643,3.562,3.5528,3.5224,3.4958,3.4717,3.4405,3.3543,3.2749,3.2466,3.1842,3.1274,3.0855,3.041,2.9924,2.9393,2.8779,2.8222,2.776,2.7575,2.7437,2.7321,2.7284,2.7335,2.7437,2.7452,2.7539,2.7894,2.8685,2.9287,2.9645,3.1038,3.2004,3.2535,0.0,0.0,0.0,0.0,0.0,0.0,0.0,0.0,0.0,0.0,0.0,0.0,0.0,0.0,0.0,0.0,0.0,0.0,0.0,0.0,0.0,0.0,0.0,3.0793,3.0808,3.0789,3.0794,3.0827,3.0843,3.0837,3.0879,3.0871,3.0879,3.1656,3.2136,3.2133,3.2879,3.3356,3.3434,3.3379,3.3388,3.3473,3.4323,3.4732,3.4744,3.5603,3.5991,3.5991,3.5991,3.5991,3.5991,3.5994,3.5994,3.5994,3.6007,3.6005,3.5916,3.5079,3.5254,3.5996,3.5995,3.5992,3.5991,3.5991,3.6001,3.6009,3.5996,3.5991,3.5991,3.5991,3.5991,3.5986,3.5918,3.5892,3.588,3.5825,3.5753,3.5695,3.5715,3.5643,3.5558,3.5339,3.5043,3.4756,3.4553,3.3862,3.3225,3.289,3.2264,3.166,3.1117,3.0617,0.0,2.9837,2.9074,2.8511,2.8336,2.7894,2.7625,2.7625,2.7488,2.7437,2.7575,2.7488,2.7725,2.8463,2.8934,2.9524,3.0274,3.1681,3.2809,3.3605,0.0,0.0,0.0,0.0,0.0,0.0,0.0,0.0,0.0,0.0,0.0,0.0,0.0,0.0,0.0,0.0,0.0,0.0,0.0,0.0,0.0,0.0,3.073,3.0779,3.0804,3.0804,3.0793,3.1363,3.1738,3.1735,3.2305,3.2691,3.269,3.2904,3.3038,3.3035,3.3249,3.3662,3.4329,3.4326,3.4638,3.5288,3.5519,3.5636,3.5642,3.5896,3.5991,3.5991,3.5991,3.5991,3.5994,3.6003,3.6001,3.5994,3.5996,3.5996,3.5971,3.574,3.579,3.5995,3.5996,3.5992,3.5991,3.5991,3.5996,3.5999,3.5994,3.5991,3.5991,3.5991,3.5991,3.5996,3.5972,3.5936,3.591,3.5885,3.5818,3.576,3.5708,3.5688,3.5637,3.5543,3.5234,3.4905,3.4813,3.4334,3.3787,3.3237,3.2616,3.2021,3.166,3.1261,0.0,3.0267,2.9951,2.9451,2.8543,2.8319,2.8091,2.7625,2.7575,2.7575,2.7625,2.764,2.779,2.7974,2.8857,3.0067,3.1627,3.2466,3.3154,0.0,0.0,0.0,0.0,0.0,0.0,0.0,0.0,0.0,0.0,0.0,0.0,0.0,0.0,0.0,0.0,0.0,0.0,0.0,0.0,0.0,0.0,3.1495,3.1751,3.1806,3.152,3.1312,3.1312,3.2055,3.2576,3.2595,3.3049,3.3333,3.3396,3.3707,3.3901,3.3935,3.4298,3.4725,3.5232,3.5232,3.5486,3.5991,3.5991,3.5991,3.5991,3.5991,3.5996,3.6001,3.6001,3.5999,3.5994,3.5991,3.5973,3.5955,3.5996,3.5957,0.0,0.0,0.0,0.0,0.0,3.5869,3.5883,3.5934,3.5914,3.589,3.5965,3.5985,3.5955,3.5988,3.5991,3.5991,3.5991,3.597,3.5937,3.595,3.5887,3.5841,3.5799,3.5743,3.5679,3.5658,3.5366,3.5076,3.4977,3.4615,0.0,3.376,3.3189,3.2631,3.2178,3.1897,3.1511,3.0954,3.0608,3.0133,2.9374,2.8888,2.848,2.8143,2.786,0.0,0.0,0.0,2.8024,2.8559,2.9536,0.0,0.0,0.0,3.3273,3.3753,3.3753,0.0,0.0,3.37,3.3864,0.0,0.0,0.0,0.0,0.0,0.0,0.0,0.0,0.0,0.0,0.0,0.0,0.0,0.0,0.0,0.0,3.2619,3.3179,3.3175,3.2648,3.2249,3.214,3.2858,3.3381,3.3439,3.3476,3.3536,3.3658,3.4329,3.4763,3.4824,0.0,0.0,0.0,0.0,3.5984,3.5984,3.5984,3.5984,3.5984,3.5984,3.5989,3.5975,3.5976,3.5974,3.5968,3.5976,3.5928,3.5888,3.5942,3.5856,3.5718,3.5902,3.5932,3.5855,3.5736,3.5704,3.5718,3.583,0.0,0.0,3.5919,3.5938,3.5889,3.5951,3.5985,3.5988,3.5988,3.5991,3.5994,3.5996,3.5937,3.5903,3.5895,3.5807,3.5714,3.5718,3.55,3.5278,3.5076,3.4813,3.4572,3.4321,3.3839,3.3325,3.2773,3.2517,3.2231,3.1825,3.121,3.0697,3.0435,0.0,0.0,2.8841,2.8222,2.7905,2.8069,2.7989,2.8511,2.9673,3.0606,3.1556,3.2484,3.2885,3.3325,3.3807,3.3807,3.3807,3.3807,3.3868,3.4074,0.0,0.0,0.0,0.0,0.0,0.0,0.0,0.0,0.0,0.0,0.0,0.0,0.0,0.0,0.0,3.2609,3.28,3.2956,3.2968,3.3527,3.3693,3.3045,3.3732,3.4248,3.4275,3.4892,3.5304,3.533,3.547,3.5571,3.5594,3.5757,3.5837,3.5837,3.5837,3.5837,3.5837,3.5837,3.5837,3.5837,0.0,0.0,3.5837,3.5782,3.5763,3.5768,3.5758,3.5755,3.5737,3.5753,3.5743,3.57,3.5747,3.5755,3.5751,3.5721,3.5689,3.5708,3.5728,3.5726,3.5702,3.5753,3.5753,3.5745,3.5741,3.5827,0.0,3.5924,3.5951,3.5999,3.5934,3.5918,3.5896,3.5893,3.5877,3.5851,3.5795,3.562,3.5415,3.5282,3.5073,3.4887,3.4775,3.411,3.3524,3.3354,3.3069,3.2695,3.2231,3.2056,3.1625,3.0657,3.0015,2.9492,2.9011,2.8527,2.8299,2.8314,2.8685,2.9419,3.0526,3.137,3.2057,3.2651,3.3302,3.3707,3.3807,3.3807,3.3807,3.3807,3.3868,3.3921,0.0,0.0,0.0,0.0,0.0,0.0,0.0,0.0,0.0,0.0,0.0,3.1969,0.0,0.0,3.3149,3.3149,3.3605,3.3997,3.4087,3.4539,3.4588,3.3887,3.4575,3.5106,3.5108,3.5488,3.5757,3.5801,3.5774,3.5766,3.5802,3.5802,3.5797,3.5805,3.5799,3.5985,3.6403,3.6403,3.6617,3.7053,3.7061,3.7053,3.7045,3.7026,3.7005,3.7005,3.7007,3.6958,3.6899,3.6824,3.6834,3.6851,3.6818,3.6337,3.5699,3.6056,3.6188,3.626,3.6702,3.6837,3.6798,3.6881,3.691,3.6909,3.6939,3.7012,3.7019,3.6572,3.6463,3.6395,3.5914,3.5806,3.5802,3.5837,3.5859,3.5852,3.5845,3.5729,3.5613,3.5422,3.529,3.5158,3.5028,3.496,3.4699,3.4099,3.3588,3.316,3.2731,3.2553,3.2179,3.1435,3.0616,3.0015,2.9713,2.9225,2.8904,2.8904,2.9569,3.026,3.0811,3.1809,3.2466,3.2749,3.3437,3.3807,3.3807,3.3807,3.3868,3.3998,3.4023,3.3998,0.0,0.0,0.0,0.0,0.0,0.0,0.0,0.0,3.2391,3.2487,3.2486,3.2504,3.2574,3.3201,3.3714,3.3714,3.4415,3.5016,3.5187,3.5235,3.5062,3.4576,3.5214,3.5684,3.5669,3.5676,3.5706,3.5747,3.5724,3.571,3.576,3.576,3.5764,3.576,3.5908,3.6324,3.6954,3.7128,3.7571,3.8273,3.824,3.8252,3.8234,3.8253,3.8219,3.8219,3.8228,3.8163,3.804,3.7932,3.7939,3.7978,3.7932,3.7114,3.6051,3.6684,3.6934,3.7026,3.7733,3.7959,3.7916,3.8029,3.8073,3.8061,3.8121,3.8188,3.8103,3.7395,3.7191,3.7045,3.6357,3.6172,3.6176,3.622,3.6267,3.6296,3.6343,3.6345,3.6274,3.6095,3.6018,3.5905,3.5748,3.6173,3.612,3.4945,3.4494,3.4174,3.3785,3.3436,3.308,3.2687,3.1713,3.1016,3.0824,3.0124,2.9749,2.9911,3.0485,3.0971,3.121,3.2248,3.2813,3.2921,3.3532,3.3868,3.3902,3.3902,3.403,3.4298,3.4298,3.4179,3.1071,3.1618,3.2108,3.2255,3.2239,3.2222,0.0,0.0,3.2487,3.3064,3.3193,3.3419,3.417,3.4417,3.4473,3.4473,3.4675,3.4832,3.4851,3.4963,3.5013,3.4933,3.5331,3.5616,3.5616,3.5616,3.5616,3.5628,3.5608,3.562,3.562,3.562,3.562,3.562,3.6318,3.6736,3.6813,3.7585,3.8028,3.8125,3.8059,3.8026,3.8031,3.8022,3.7997,3.7947,3.7932,3.7936,3.7904,3.7904,3.7885,3.7901,3.7904,3.7651,3.7318,3.7647,3.777,3.777,3.7881,3.792,3.7904,3.7916,3.7916,3.7916,3.7932,3.7978,3.8016,3.7919,3.7936,3.7956,3.7859,3.782,3.7831,3.7831,3.793,3.8018,3.8026,3.8122,3.8178,3.8089,3.8013,3.7965,3.7944,3.7812,3.7268,3.5945,3.6327,3.6597,3.603,3.57,3.5318,3.4727,3.4027,3.3247,3.2332,3.1316,3.0985,3.1683,3.1237,3.1414,3.2369,3.283,3.3184,3.3429,3.3797,3.408,3.4242,3.4242,3.4379,3.4632,3.4632,3.4483,3.1593,3.1959,3.2296,0.0,3.282,3.2826,3.3353,3.334,3.3283,3.3499,3.3531,3.366,3.4099,3.4197,3.4221,0.0,3.4413,3.4502,3.4649,3.4732,3.4812,3.4945,3.5088,3.5251,3.5422,3.5435,3.5435,3.5435,3.5435,3.5374,3.5266,3.5251,3.5216,3.5149,3.5916,3.6532,3.6973,3.7794,3.848,3.8976,3.8937,3.8937,3.8937,3.8937,3.8917,3.8878,3.8877,3.8876,3.8835,3.8835,3.8833,3.8831,3.8831,3.8748,3.8647,3.8612,3.8403,3.8229,3.8841,3.9071,3.9071,3.9071,3.9165,3.9291,3.9291,3.9339,3.9288,3.8785,3.8657,3.8565,3.8055,3.7954,3.7982,3.7977,3.8063,3.8132,3.8186,3.8299,3.8381,3.8353,3.8376,3.8401,3.8364,3.8644,3.8667,3.798,3.7547,3.713,3.6665,3.6352,3.5818,3.4853,3.4234,3.3584,3.2871,3.2603,3.2622,3.2782,3.3019,3.3188,3.3261,3.3555,3.3665,3.3486,3.3876,3.4105,3.4184,3.4288,3.4489,3.4774,3.4851,3.487,3.2131,0.0,0.0,3.3302,3.3338,3.3369,3.3981,3.3993,3.3821,3.3707,3.3652,3.3698,3.3716,3.3716,3.377,3.3839,3.3865,3.3943,3.4141,3.4165,3.4218,3.436,3.4467,3.4615,3.485,3.5047,3.5152,3.5136,3.5136,3.5069,3.4925,3.5135,3.5192,3.5096,3.6118,3.689,3.743,3.8237,3.8973,3.9599,3.9599,3.9599,3.9599,3.9576,3.9534,3.9552,3.9505,3.9457,3.9408,3.9408,3.9402,3.9414,3.9414,3.9364,3.9289,3.9172,3.8921,3.8729,3.9532,3.9785,3.9785,3.9785,3.9897,4.0022,4.0022,4.0061,3.9928,3.9299,3.9128,3.8976,3.8347,3.8289,3.84,3.841,3.852,3.867,3.8704,3.884,3.8968,3.8949,3.9048,3.9121,3.9061,3.958,3.9926,3.9738,3.8931,3.821,3.7788,3.7355,3.6655,3.551,3.4917,3.4404,3.3922,3.3963,3.4042,3.3936,3.4519,3.4694,3.4378,3.4663,3.4604,3.4127,3.4407,3.4468,3.4348,3.4489,3.4736,3.5011,3.5117,3.5216,0.0,0.0,3.3695,3.3843,3.3766,3.3678,3.3697,3.3715,3.368,3.3615,3.3587,3.3559,3.335,3.3321,3.3273,3.3069,3.3021,3.3021,3.3051,3.3051,3.3051,3.3051,3.3335,3.3616,0.0,3.443,3.4793,3.4714,3.4714,3.4733,3.4694,3.5449,3.5861,3.5861,3.7408,3.8256,3.8275,3.9146,3.9561,3.9599,3.9599,3.9599,3.9599,3.9481,3.9408,3.9408,3.9282,3.9205,3.9205,3.9205,3.9205,3.9205,3.9205,3.9063,3.8857,3.9107,3.9308,3.9464,3.9508,3.9508,3.9508,3.9508,3.9439,3.9333,3.9333,3.9282,3.9231,3.9193,3.9193,3.9193,3.9156,3.9395,3.9641,3.9664,3.9986,4.0315,4.0249,4.0436,4.0613,4.0533,4.0634,4.073,4.0734,4.0859,4.0901,4.0779,4.0782,4.0599,4.0081,3.9289,3.8481,3.7524,3.6949,3.6435,3.6028,3.5341,3.5076,3.5318,3.5243,3.5429,3.5992,3.6214,3.6107,3.5632,3.5656,3.5434,3.4962,3.498,3.5184,3.5579,3.5579,3.5591,3.2734,0.0,3.323,3.3288,3.316,3.3045,3.3045,3.2903,3.2763,3.2734,3.2734,3.2798,3.3068,3.2988,3.297,3.3166,3.3087,3.2991,3.2991,3.2991,3.2991,3.2991,3.31,0.0,0.0,0.0,0.0,3.4096,3.4388,3.452,3.4385,3.5107,3.5451,3.5314,3.6352,3.6848,3.6703,3.7584,3.8002,3.8002,3.8002,3.815,3.8407,3.8103,3.7954,3.792,3.7905,3.7871,3.7871,3.7871,3.7871,3.7871,3.7871,3.7839,3.7754,3.7821,3.7923,3.8089,3.881,3.9045,3.9045,3.9045,3.9136,3.9231,3.9231,3.9205,3.9205,3.9205,3.9205,3.9205,3.9205,3.9282,3.9352,3.9352,3.9664,3.9943,3.9901,4.0173,4.0419,4.0414,4.05,4.0626,4.0727,4.0764,4.0796,4.0803,4.0713,4.05,4.0151,3.9615,3.9007,3.83,3.7613,3.719,3.7038,3.677,3.665,3.6858,3.7022,3.7033,3.6772,3.7014,3.6887,3.6373,3.6012,3.5781,3.5665,3.5265,3.52,3.547,3.5565,3.5631,3.2588,3.2745,3.2745,3.2631,3.2502,3.2385,3.2265,3.2092,3.1967,3.1967,3.1967,3.2039,3.2265,3.2231,3.2179,3.2382,3.2526,3.2493,3.2161,3.2301,3.2442,3.2336,3.2615,3.3053,0.0,0.0,0.0,3.4233,3.4498,3.4587,3.4482,3.513,3.5438,3.5332,3.615,3.6485,3.6357,3.6925,3.719,3.719,3.719,3.7323,3.7488,3.7193,3.7041,3.702,3.6964,3.6964,3.6964,3.6964,3.6964,3.6964,3.6964,3.6981,3.702,3.702,3.7058,3.721,3.7959,3.8241,3.8241,3.8241,3.8314,3.845,3.8608,3.8637,3.8637,3.881,3.8839,3.8839,3.8839,3.8896,3.898,3.898,3.9223,3.9489,3.9464,3.9775,4.0043,3.9908,4.0168,4.0433,4.0428,4.0578,4.0739,4.0856,4.0721,4.049,4.0188,3.9829,3.937,3.8728,3.8186,3.7807,3.7649,3.7685,3.7773,3.7859,3.8291,3.8352,3.7897,3.8234,3.8115,3.7479,3.6854,3.6464,3.6269,3.5567,3.5359,3.5557,3.563,3.5688,3.2126,3.2144,3.2127,3.1894,3.1821,3.1731,3.1397,3.1321,3.1359,3.1359,3.1359,3.1283,0.0,0.0,3.1004,3.0828,3.1349,3.1483,3.0601,3.1073,3.1374,0.0,0.0,0.0,0.0,0.0,0.0,3.5013,0.0,3.4889,3.4889,3.5542,3.5911,3.5911,3.6708,3.7152,3.7114,3.7114,3.7152,3.7135,3.7097,3.7002,3.689,3.6733,3.6614,3.651,3.6411,3.6353,3.6353,3.6353,3.6353,3.6353,3.6353,3.647,3.6568,3.6568,3.6626,3.6803,3.6964,3.7097,3.7173,3.719,3.7097,3.7076,3.7504,3.7559,3.7542,3.802,3.814,3.814,3.814,3.8336,3.8554,3.8504,3.8781,3.8998,3.8934,3.9301,3.9513,3.9152,3.9719,4.0174,3.9927,4.0318,4.076,4.0953,4.0898,4.0674,4.0279,3.9986,3.9566,3.8912,3.867,3.8376,3.8002,3.8172,3.8323,3.8355,3.8962,3.932,3.9331,3.9823,3.9718,3.8879,3.8104,3.742,3.6858,3.5951,3.5611,3.5801,3.5807,3.5805,3.0757,3.0794,3.0697,3.0811,3.073,3.0534,3.0452,3.0452,3.0493,3.069,3.0747,3.0788,0.0,0.0,0.0,3.0714,3.0618,0.0,3.0251,3.0783,0.0,3.1111,0.0,3.2458,3.3168,3.3387,0.0,0.0,3.4797,3.491,3.491,3.5576,3.5949,3.5822,3.6053,3.6114,3.6011,3.6011,3.6122,3.6374,3.5603,3.5363,3.5569,3.4778,3.4414,3.4365,3.4365,3.4317,3.4317,3.4317,3.4317,3.4317,3.4317,3.4622,3.4938,3.4526,3.4669,3.4985,3.4653,3.5596,3.696,3.6865,3.6825,3.6768,3.6808,3.6847,3.6943,3.7076,3.7152,3.7226,3.7226,3.7469,3.7614,3.7268,3.7577,3.8034,3.8085,3.8365,3.8662,3.8887,3.9314,3.9652,3.9743,4.0164,4.059,4.0887,4.0894,4.0835,4.0723,4.0371,3.9947,3.9523,3.9014,3.8733,3.8726,3.856,3.8651,3.916,3.9294,3.9462,3.965,3.9948,4.0013,3.9775,3.8556,3.7848,3.7692,3.6228,3.56,3.5807,3.5841,3.5869,3.0037,3.0175,3.0091,3.0107,2.9962,2.9832,2.9673,2.9645,2.9689,2.9837,2.9897,0.0,2.9962,2.9789,0.0,0.0,0.0,0.0,2.9375,2.9974,3.0429,0.0,3.1336,0.0,3.2828,3.3273,3.3746,0.0,3.4466,3.4571,3.4571,3.4927,3.5052,3.4911,3.4894,3.4911,3.48,3.4752,3.483,3.5078,3.4463,3.4219,3.4349,3.377,3.3495,3.3427,3.3427,3.3427,3.3427,3.3427,3.3427,3.3427,3.3427,3.3649,3.3903,3.3649,3.3751,3.4003,3.3684,3.4414,3.5419,3.5374,3.548,3.5691,3.5848,3.6096,3.6381,3.6609,3.6746,3.6803,3.6803,3.696,3.6999,3.6689,3.6872,3.7124,3.7216,3.7593,3.8127,3.8744,3.8906,3.9061,3.9453,3.983,4.0164,4.0584,4.0754,4.0862,4.0904,4.0567,4.0216,3.991,3.9551,3.9308,3.9268,3.9205,3.9296,3.9645,3.9788,3.9878,4.0005,4.0308,4.0449,4.0442,3.8974,3.821,3.8216,3.6518,3.5723,3.5838,3.5884,3.5923,2.9459,2.9669,2.9625,2.939,2.93,2.918,2.8904,2.8826,2.8826,2.8873,0.0,2.8779,2.8463,2.8444,2.8363,2.7913,0.0,2.877,2.8398,2.9039,2.9614,2.9925,3.0744,3.1551,3.2133,3.2939,3.3479,3.3479,3.3601,3.3804,3.4137,3.402,3.3903,3.3786,3.3786,3.3786,3.3786,3.3633,3.3633,3.3735,3.3531,3.3391,3.3235,3.3182,3.3077,3.2986,3.2986,3.2986,3.2986,3.2986,3.2986,3.2986,3.2986,3.3077,3.3235,3.3061,3.3151,3.3308,3.3135,3.3066,3.3119,3.3479,3.3903,3.4366,3.4733,3.517,3.5681,3.6222,3.6388,3.6388,3.6388,3.6429,3.6429,3.6246,3.6229,3.6288,3.637,3.6953,3.7664,3.8444,3.8337,3.8382,3.9088,3.943,3.9749,4.0233,4.0593,4.0824,4.0884,4.0682,4.043,4.0191,4.0062,3.992,3.9724,3.9863,3.9986,4.0004,4.0269,4.0398,4.0385,4.0729,4.087,4.0765,3.9265,3.8434,3.8315,3.6684,3.59,3.5898,3.5914,3.5937,2.8013,2.803,2.7685,2.7834,2.77,2.75,2.7464,2.7479,0.0,0.0,2.7765,2.7815,2.7963,2.8253,2.8246,2.764,0.0,0.0,0.0,0.0,2.9493,0.0,0.0,0.0,0.0,3.0571,0.0,0.0,3.0734,3.1671,3.377,3.3735,3.3649,3.3649,3.3633,3.3633,3.3633,3.3582,3.3547,3.3479,3.3002,3.2695,3.2547,3.2064,3.1853,3.1781,3.1781,0.0,3.1781,3.1781,3.1781,3.1781,3.1781,3.2104,3.2422,3.1362,3.1332,3.1645,3.0601,3.0182,3.0586,3.2748,3.3495,3.3598,3.3531,3.3668,3.3921,3.4479,3.4719,3.483,3.483,3.5015,3.509,3.4703,3.4828,3.5165,3.5725,3.6222,3.6751,3.7303,3.7433,3.7771,3.8659,3.9144,3.9621,4.0221,4.0597,4.0824,4.0894,4.0754,4.0643,4.0597,4.0243,4.0082,4.0262,4.0062,4.008,4.0458,4.0468,4.0595,4.0877,4.096,4.0676,3.9992,3.9019,3.8141,3.742,3.6406,3.5898,3.5894,3.596,3.5985,2.6956,2.699,2.6678,2.699,2.6834,2.6678,2.6849,0.0,0.0,0.0,2.7261,2.7261,2.721,0.0,0.0,0.0,0.0,0.0,0.0,0.0,0.0,0.0,0.0,0.0,0.0,2.9827,3.0011,3.0011,2.995,3.0451,3.1728,3.1687,3.1814,3.2124,3.1687,3.1671,3.2124,3.1687,3.1501,3.1516,3.1144,3.094,3.0896,3.0615,3.045,3.045,3.045,3.045,3.045,3.045,3.045,3.045,3.045,3.0615,3.0837,3.0179,3.0165,3.0332,2.9737,2.9504,2.9737,3.094,3.1799,3.2384,3.2718,3.3039,3.3339,3.37,3.3802,3.3853,3.3853,3.3987,3.4071,3.3751,3.4053,3.4544,3.5061,3.5593,3.6105,3.6539,3.6882,3.7287,3.7871,3.8534,3.9189,3.9764,4.0185,4.052,4.0758,4.0741,4.0674,4.0599,4.048,4.04,4.0342,4.0391,4.0488,4.0684,4.0762,4.0875,4.0983,4.0594,4.0195,3.9816,3.8467,3.7587,3.7194,3.625,3.5809,3.5849,3.5802,3.5794,2.5911,2.614,2.5986,2.6254,2.6147,2.604,2.6269,2.6375,0.0,0.0,2.6707,2.6669,2.6244,0.0,2.6327,0.0,2.6455,0.0,0.0,0.0,0.0,0.0,0.0,0.0,0.0,2.9282,0.0,2.9456,2.9393,2.9456,2.9889,2.9766,2.995,3.0524,2.9889,2.9827,3.0524,2.9827,2.9566,2.9752,2.9566,2.9504,2.9504,2.9504,2.9504,2.9504,2.9504,2.9504,2.9504,2.9504,2.9504,2.9504,2.9504,2.9504,2.9504,2.9331,2.9268,2.9268,2.9142,2.9079,2.9079,2.9268,3.009,3.1086,3.1607,3.2155,3.2687,3.2902,3.3061,3.3198,3.3198,3.3198,3.3145,3.2971,3.3423,3.4002,3.4252,3.4814,3.5374,3.5769,3.6281,3.6746,3.7137,3.7938,3.8707,3.9245,3.9747,4.0246,4.0645,4.073,4.0719,4.0616,4.0723,4.0712,4.0474,4.0733,4.0887,4.0846,4.0992,4.0991,4.0737,4.0103,3.9589,3.9193,3.7779,3.6974,3.6805,3.6014,3.5645,3.5674,3.553,3.5456,2.4721,2.5052,2.5104,2.516,2.5104,2.5104,2.516,0.0,0.0,2.5216,2.5467,2.5536,2.5174,2.5611,0.0,0.0,0.0,2.7591,0.0,0.0,0.0,0.0,0.0,0.0,2.7656,2.7709,2.7709,2.7709,2.7709,2.8274,2.9504,2.9504,2.9566,2.9628,2.9566,2.9566,2.9628,2.9566,2.9504,2.9504,2.9504,2.9504,2.9504,2.9504,2.9504,2.9504,2.9504,2.9504,0.0,2.9504,2.9504,2.9504,2.9504,2.9504,2.9442,2.8839,2.8597,2.8468,2.7908,2.7643,2.7776,2.8417,2.9079,2.969,2.9737,3.024,3.0837,3.1447,3.2043,3.2492,3.2492,3.2492,3.2437,3.2241,3.2772,3.3251,3.3182,3.3646,3.4152,3.4574,3.529,3.6011,3.6716,3.768,3.8474,3.8979,3.9646,4.0265,4.0643,4.0805,4.0908,4.0953,4.0848,4.0843,4.0925,4.09,4.0929,4.0973,4.1054,4.0701,3.9854,3.9745,3.891,3.7208,3.7003,3.6462,3.5574,3.5477,3.536,3.5238,3.5133,3.499,2.3879,2.4265,2.4505,2.465,2.4607,2.4505,2.465,0.0,2.4948,2.5005,2.5131,2.5188,2.5005,2.5208,2.553,0.0,0.0,0.0,2.747,0.0,0.0,0.0,0.0,0.0,0.0,0.0,2.7523,2.7523,2.7523,2.7709,2.8274,2.8274,2.8454,2.8903,2.8519,2.8454,2.8903,2.8519,2.8274,2.8274,2.8274,2.8274,2.8274,2.8274,2.8274,2.8274,2.8274,2.8274,0.0,2.8274,2.8274,2.8274,2.8274,2.8274,2.8274,2.8026,2.7908,2.7842,2.759,2.7523,2.7523,2.7776,2.8091,2.8454,2.9268,2.969,2.995,3.0211,3.0451,3.0645,3.0645,3.06,3.0615,3.0925,3.1462,3.1926,3.225,3.2756,3.3339,3.3855,3.443,3.5136,3.5994,3.6991,3.7935,3.8644,3.9314,3.9986,4.0616,4.0749,4.0852,4.1032,4.1004,4.0992,4.0996,4.1001,4.1013,4.0996,4.0564,4.0106,3.9663,3.8661,3.7685,3.6736,3.6247,3.5685,3.504,3.5051,3.495,3.4753,3.443,3.4245,2.2566,2.3225,2.3721,2.3859,2.3897,2.3923,0.0,0.0,2.4337,2.4478,2.4478,2.4478,2.4549,2.4549,2.4824,0.0,0.0,2.6403,2.7144,0.0,0.0,0.0,0.0,2.7323,0.0,2.7523,2.7523,2.7523,2.7523,2.7523,2.7523,2.7323,2.7577,2.8157,2.7789,2.7723,2.8222,2.7723,2.7523,2.7523,2.7523,2.7523,2.7523,2.7523,2.7523,2.7523,2.7523,2.7523,0.0,2.7523,2.7523,2.7523,2.7523,2.7523,2.7523,2.7523,2.7523,2.7523,2.7523,2.7523,2.7523,2.7523,2.7523,2.7643,2.8634,2.9079,2.9205,2.9205,2.9205,2.9251,2.9175,2.8988,2.8876,2.9242,2.9748,3.0191,3.0631,3.1267,3.1992,3.2625,3.3332,3.417,3.5107,3.6271,3.7344,3.8253,3.8915,3.963,4.0463,4.0654,4.0797,4.1066,4.0869,4.0801,4.1009,4.0797,4.0642,4.0589,3.9813,3.9184,3.8786,3.7619,3.6714,3.6138,3.5511,3.5007,3.468,3.4679,3.4557,3.4311,3.3845,3.3533,2.0632,2.1616,2.2604,2.2592,2.3005,2.3403,0.0,0.0,2.3754,2.345,2.3245,2.316,2.339,2.3403,2.3761,2.4823,0.0,0.0,2.6595,2.717,0.0,0.0,0.0,2.6918,2.7469,2.7523,2.7523,2.7523,2.7523,0.0,2.7523,2.6985,2.6918,2.7456,2.7523,2.7523,2.7523,2.7523,2.7523,2.7523,2.7523,2.7523,2.7523,2.7523,2.7523,2.7523,2.7523,2.7523,0.0,2.7523,2.7523,2.7523,2.7523,2.7523,2.7523,2.7523,2.7523,2.7523,2.7523,2.7523,2.7523,2.7523,2.7523,2.7523,2.7523,2.796,2.8481,2.8481,2.8616,2.8647,2.8484,2.8036,2.7516,2.7221,2.7677,2.8166,2.7982,2.88,2.9868,3.0586,3.1875,3.3149,3.4137,3.548,3.6773,3.7767,3.8486,3.9239,4.0178,4.0551,4.0796,4.1066,4.0333,4.0161,4.1035,4.0198,3.9617,3.9613,3.8805,3.787,3.6863,3.6752,3.6183,3.5053,3.4813,3.4609,3.4409,3.4386,3.4245,3.3895,3.3431,3.288,2.0505,2.1379,2.2286,2.2531,2.2725,2.2859,2.2859,0.0,2.2967,2.2859,2.2786,2.2919,2.333,2.3403,2.3761,2.481,2.5445,0.0,0.0,0.0,0.0,2.6985,2.7121,2.7188,0.0,0.0,2.7188,2.6483,2.6769,2.6782,2.6414,2.6289,2.6564,2.7456,2.7121,2.7121,2.7523,2.7523,2.7523,2.7523,2.7523,2.7523,2.7456,2.7121,2.6918,2.6918,2.6564,2.6414,2.6414,2.6769,2.6918,2.6918,2.6918,2.7188,2.739,2.6701,2.6905,2.7469,2.7053,2.7188,2.7456,2.7053,2.6918,2.685,2.6496,2.7095,2.7842,2.7842,2.7775,2.7666,2.7163,2.6733,2.6446,2.6409,2.6511,2.6644,2.7101,2.7528,2.8047,2.9102,2.961,3.0411,3.2465,3.3339,3.426,3.589,3.6685,3.7399,3.8212,3.8645,3.8927,3.9093,3.8954,3.9208,4.0137,3.9292,3.8716,3.871,3.785,3.717,3.6813,3.6219,3.5584,3.4945,3.4774,3.4467,3.3998,3.3858,3.3439,3.2731,3.2298,3.1897,0.0,2.0387,2.1171,2.1545,2.1916,0.0,0.0,0.0,2.2359,2.2359,2.2187,2.2249,2.2763,2.2836,2.3117,2.3943,2.454,0.0,0.0,0.0,0.0,2.6114,0.0,0.0,0.0,2.6564,2.6633,2.5931,2.622,2.622,2.5931,2.5652,2.5988,2.6905,2.6564,2.6564,2.6905,2.6905,2.6973,2.7201,2.6973,2.6973,2.7188,2.6633,2.6427,2.6358,2.607,2.5931,0.0,2.6508,2.6577,2.6427,2.6645,2.6782,2.6837,2.6139,2.6346,2.6837,2.6496,2.6633,2.6837,2.6496,2.6427,2.6358,2.6,2.6346,2.6973,2.739,2.71,2.6588,2.6361,2.5625,2.4883,2.4886,2.481,2.4873,2.5234,2.5739,2.6451,2.7591,2.7911,2.8726,3.1051,3.1922,3.2883,3.4606,3.555,3.6345,3.7144,3.7648,3.7989,3.816,3.7944,3.8038,3.865,3.8127,3.7744,3.7704,3.6837,3.6291,3.624,3.5695,3.5234,3.4927,3.4636,3.4269,3.378,3.3494,3.2952,3.2179,3.1949,3.16,0.0,0.0,0.0,0.0,0.0,0.0,0.0,0.0,0.0,2.1815,2.1526,2.1348,2.1815,2.1877,2.2002,2.2543,2.3071,0.0,0.0,2.4602,0.0,0.0,2.5581,0.0,2.5075,2.5581,2.5861,2.5791,2.5791,2.5791,2.5791,2.5229,2.5229,2.5791,2.5791,2.5791,2.5931,2.5931,2.6139,2.6645,2.6139,2.6139,2.6645,2.607,2.5861,0.0,2.5791,2.5791,2.5791,2.6358,2.6289,2.5861,2.6358,2.6289,2.5861,2.5791,2.5861,2.5931,2.5861,2.5861,2.5861,2.5779,2.5779,2.5791,2.5791,2.5779,2.607,2.704,2.6455,2.5582,2.5902,2.4638,2.3131,2.2943,2.2931,2.2855,2.2614,2.3668,2.4861,2.5876,2.6658,2.7826,2.9733,3.0957,3.2182,3.374,3.484,3.5828,3.666,3.726,3.7689,3.7868,3.7177,3.6714,3.6775,3.6787,3.674,3.6625,3.5834,3.5369,3.5296,3.5224,3.5095,3.4889,3.442,3.3993,3.3643,3.322,3.2719,3.2179,3.2144,3.1785,1.7137,0.0,1.919,1.9922,2.0226,0.0,0.0,0.0,0.0,0.0,0.0,2.1348,2.1815,2.1702,2.1753,2.247,0.0,0.0,2.2663,0.0,0.0,2.5578,2.5791,2.5639,2.5075,2.5581,2.5511,2.4683,2.4945,2.5016,2.4611,2.4478,2.4467,2.4611,2.4611,2.5028,2.5861,2.5931,2.5931,2.607,2.5931,2.6,2.607,2.5511,2.5229,2.5229,2.4754,2.4611,2.4611,2.5158,2.53,2.5217,2.5358,2.5569,2.5791,2.4886,2.517,2.5861,2.5358,2.5499,2.5709,2.4612,2.4432,2.4527,2.4337,2.4826,2.5475,2.5755,2.525,2.4637,2.4315,2.3743,2.3096,2.2263,2.2089,2.1974,2.158,2.2036,2.2799,2.3475,2.4387,2.5644,2.7543,2.8645,2.9862,3.1517,3.2854,3.3879,3.433,3.5167,3.5777,3.5867,3.5803,3.5708,3.5688,3.572,3.574,3.5713,3.5426,3.527,3.53,3.5133,3.4997,3.4889,3.4184,3.3578,3.3086,3.2435,3.2056,3.1966,3.1449,3.1134,1.6863,1.7676,1.8512,1.9147,1.9619,1.9922,0.0,0.0,0.0,0.0,0.0,0.0,2.1262,2.0996,0.0,0.0,2.1597,0.0,0.0,0.0,0.0,2.4969,2.5099,2.5028,0.0,2.4957,2.4886,2.4261,2.4467,2.4539,2.42,2.42,2.42,2.42,2.42,2.4478,2.5099,2.5099,2.5229,2.5499,2.5229,2.5229,2.5441,2.4874,2.4599,2.4611,2.4334,2.42,2.4261,2.4802,2.4874,2.4671,2.4874,2.5016,2.5028,2.4406,2.4611,2.5099,2.4743,2.4587,2.4348,2.3231,2.2872,2.2883,2.2702,2.2903,2.3396,2.4886,2.4707,2.4013,2.4001,2.3404,2.2629,2.1879,2.1531,2.1229,2.0671,2.125,2.2051,2.2494,2.3242,2.4385,2.6126,2.7355,2.8622,3.0179,3.1847,3.3039,3.3386,3.4278,3.4889,3.4925,3.5098,3.5232,3.5251,3.5285,3.5315,3.5311,3.5239,3.5223,3.53,3.5102,3.4813,3.4445,3.391,3.3415,3.2916,3.2317,3.1967,3.1894,3.1123,3.0723,1.6839,1.7214,1.775,1.8247,1.8994,1.9539,0.0,0.0,0.0,0.0,0.0,0.0,0.0,0.0,0.0,0.0,0.0,0.0,2.1833,2.2439,2.2992,2.3872,2.4154,0.0,2.42,2.42,2.42,2.42,2.42,2.42,2.42,2.42,2.42,2.42,2.42,2.42,2.42,2.42,2.4394,2.4874,2.4394,2.4467,2.4874,2.4406,2.42,2.42,2.42,0.0,2.4273,2.4671,2.4599,2.4261,2.4671,2.4599,2.42,2.42,2.4116,2.397,2.3886,2.3372,2.2692,2.1842,2.1527,2.1354,2.1278,2.0884,2.1094,2.3772,2.3818,2.3117,2.3599,2.286,2.1792,2.1317,2.0807,2.0311,1.9722,2.0677,2.1678,2.1966,2.2701,2.3761,2.5232,2.6593,2.7963,2.9419,3.1253,3.2638,3.3076,3.3913,3.448,3.4548,3.4733,3.4945,3.5111,3.5129,3.5164,3.5193,3.5209,3.5207,3.5219,3.5032,3.4636,3.3873,3.3707,3.3327,3.282,3.242,3.202,3.164,3.0874,3.0385,1.6467,1.6808,1.7347,1.8175,1.8788,1.9274,0.0,0.0,0.0,0.0,0.0,0.0,0.0,0.0,0.0,0.0,0.0,1.9995,0.0,0.0,2.2114,2.2981,0.0,2.42,2.42,2.42,2.42,2.42,2.42,2.42,2.42,2.42,2.42,2.42,2.42,2.42,2.42,2.42,2.4261,2.4334,2.4273,2.4261,2.4334,2.4273,2.42,2.42,0.0,2.42,2.42,2.4261,2.4261,2.42,2.4261,2.4261,2.42,2.42,2.3751,2.3075,2.2371,2.2069,2.1842,2.1001,2.0991,2.1278,2.0585,2.043,2.0566,2.1094,2.0884,2.0518,2.0575,2.0459,2.0072,1.9296,1.9064,1.8883,1.8379,1.9233,2.0257,2.0602,2.2027,2.3479,2.4627,2.6044,2.7504,2.9039,3.0599,3.1882,3.2688,3.3358,3.3894,3.4227,3.4284,3.4423,3.4674,3.4812,3.4964,3.5181,3.5212,3.507,3.4793,3.4812,3.4464,3.3652,3.3633,3.319,3.2386,3.1985,3.138,3.0616,3.0276,2.9848,1.6384,1.6891,1.7451,1.7926,1.8371,0.0,0.0,0.0,0.0,0.0,0.0,0.0,0.0,0.0,0.0,0.0,0.0,1.9631,2.0514,2.0967,2.1559,0.0,0.0,2.3787,2.3787,2.4039,2.42,2.42,2.42,2.42,2.42,2.42,2.42,2.42,2.42,2.42,2.42,2.42,2.42,2.42,2.42,2.4127,2.3897,2.4127,2.397,2.3604,0.0,2.3895,2.3489,2.3644,2.3484,2.3103,2.3303,2.3303,2.3103,2.2868,2.2347,2.1532,2.0726,2.043,2.0282,1.9317,1.9316,1.9563,1.904,1.903,1.9116,1.9116,1.9502,1.9904,1.9904,1.9904,1.9695,1.8881,1.8682,1.8455,1.7612,1.8355,1.9278,1.9212,2.076,2.2274,2.3132,2.4859,2.6497,2.778,2.9583,3.1083,3.1704,3.257,3.3263,3.3625,3.3792,3.4043,3.4401,3.4489,3.4714,3.5179,3.5107,3.4907,3.4653,3.4508,3.4141,3.3549,3.3444,3.3019,3.2283,3.1913,3.1359,3.0754,3.0166,2.9837,1.6384,1.6881,1.7471,1.7678,0.0,0.0,0.0,0.0,0.0,0.0,0.0,0.0,0.0,0.0,0.0,1.9075,1.9075,1.9323,2.0016,2.0514,2.107,2.1787,2.2614,2.313,2.32,2.3718,2.4016,2.4016,2.4131,2.42,2.42,2.42,2.42,2.42,2.42,2.4143,2.4016,2.4016,2.4074,2.42,2.42,2.397,2.3593,2.3772,2.3498,2.29,2.3374,2.3176,2.2544,2.2826,2.2612,2.2067,2.2183,2.2056,2.171,2.1188,2.0673,2.0083,1.9238,1.8956,1.881,1.8026,1.7783,1.7879,1.7733,1.7769,1.7903,1.7903,1.8665,1.9432,1.9432,1.9432,1.9229,1.8434,1.8239,1.7862,1.6836,1.7599,1.8412,1.819,1.9727,2.1302,2.2003,2.3851,2.5626,2.6748,2.8636,3.0179,3.0751,3.1704,3.2444,3.2796,3.3128,3.3524,3.4043,3.4157,3.443,3.4999,3.4907,3.4715,3.4486,3.4237,3.3891,3.3433,3.319,3.2749,3.2162,3.1768,3.13,3.0788,3.0123,2.9853,1.6384,1.6425,1.6684,1.7522,0.0,0.0,0.0,0.0,0.0,0.0,0.0,0.0,0.0,1.9142,1.9075,1.9075,1.9075,1.9152,1.9183,0.0,2.059,2.0972,2.1753,2.2399,2.2731,2.3201,2.3429,2.3429,2.3936,2.42,2.42,2.42,2.42,2.42,2.42,2.3971,2.3429,2.3429,2.3729,2.42,2.42,2.397,2.3582,2.3194,2.2755,2.2302,2.1985,2.1765,2.1673,2.1743,2.1721,2.1618,2.1118,2.0755,2.0329,1.9601,1.9311,1.9238,1.8239,1.7877,1.7877,1.768,1.7464,1.7238,1.7247,1.7363,1.7509,1.7509,1.7845,1.8112,1.8112,1.8112,1.7923,1.7242,1.6741,1.638,1.5996,1.6706,1.7571,1.7833,1.9651,2.1302,2.2003,2.3592,2.5246,2.6696,2.7875,2.9055,3.0203,3.0813,3.1257,3.1649,3.2109,3.266,3.3386,3.3692,3.4054,3.451,3.4551,3.4398,3.4148,3.4105,3.3823,3.322,3.284,3.2332,3.175,3.1338,3.0707,2.9881,2.9837,2.9572,1.6786,1.678,1.6933,1.797,0.0,0.0,0.0,0.0,0.0,0.0,0.0,0.0,0.0,0.0,1.9075,1.9075,1.9075,1.9075,1.9075,1.9743,2.0248,2.0391,2.1363,2.208,2.2214,2.2673,2.2972,2.2972,2.3144,2.3247,2.3247,2.3247,2.3247,2.3247,2.3247,2.3155,2.2972,2.2972,2.2925,2.2979,2.2979,2.2615,2.2012,2.205,2.1751,2.1172,2.1485,2.1315,2.0838,2.1054,2.0654,1.9823,1.9346,1.9012,1.8666,1.8447,1.8098,1.7543,1.7197,1.6991,1.6857,1.6722,1.6736,1.6772,1.6698,1.6891,1.7175,1.7406,1.7569,1.774,1.798,1.804,1.7912,1.7381,1.6766,1.6145,1.5569,1.6112,1.6697,1.6558,1.8325,2.002,2.0707,2.2103,2.3638,2.526,2.6637,2.7908,2.9039,2.98,3.0394,3.0734,3.1465,3.2177,3.2854,3.3021,3.3212,3.3441,3.381,3.3975,3.3865,3.3532,3.325,3.3024,3.2636,3.2162,3.1677,3.1317,3.0666,2.981,3.0113,2.9865,1.6775,1.6838,1.703,0.0,0.0,0.0,0.0,0.0,0.0,0.0,0.0,0.0,0.0,0.0,0.0,0.0,1.9396,1.9396,1.9396,1.9649,1.9846,2.0096,2.0796,2.1413,2.1686,2.2145,2.2444,2.2444,2.2593,2.2685,2.2685,2.2685,2.2685,2.2685,2.2685,2.2604,2.2297,2.2297,2.1947,2.1406,2.1406,2.1275,2.0977,2.1177,2.0834,2.0203,2.0615,2.0371,1.9687,1.9948,1.9334,1.8094,1.7833,1.7569,1.7226,1.7432,1.7088,1.6473,1.6473,1.6333,1.6202,1.607,1.6182,1.6318,1.6165,1.643,1.679,1.7038,1.7278,1.7526,1.7792,1.7946,1.7912,1.7415,1.6706,1.5926,1.516,1.5433,1.5737,1.5745,1.7316,1.8957,1.9901,2.1204,2.2591,2.4142,2.5588,2.6806,2.7674,2.8732,2.9569,3.0084,3.087,3.1573,3.2162,3.2385,3.2586,3.2795,3.3087,3.3277,3.3354,3.305,3.2802,3.2621,3.2266,3.186,3.1304,3.0891,3.0293,2.9572,2.9897,2.962,1.6114,1.656,1.6949,0.0,0.0,0.0,0.0,0.0,0.0,0.0,0.0,0.0,1.9142,0.0,0.0,2.0096,2.0096,2.0096,2.0096,1.9528,1.933,2.0042,2.0096,2.0366,2.1094,2.1617,2.1916,2.1916,2.2386,2.2662,2.2662,2.2662,2.2662,2.2662,2.2662,2.2274,2.1375,2.1363,2.0787,1.9605,1.9605,2.0084,2.0956,2.0578,2.016,1.9796,1.9272,1.8808,1.8269,1.8269,1.7647,1.6673,1.683,1.6551,1.6132,1.6272,1.6272,1.6272,1.6132,1.6132,1.6061,1.5867,1.5805,1.5805,1.5805,1.6045,1.6328,1.6328,1.6884,1.7466,1.7466,1.7749,1.7772,1.7098,1.631,1.5575,1.4792,1.4625,1.4816,1.5534,1.6895,1.8382,1.9824,2.1204,2.2482,2.3521,2.4757,2.5727,2.613,2.7525,2.8857,2.9705,3.0225,3.069,3.1253,3.1716,3.2231,3.2731,3.247,3.2386,3.2606,3.277,3.2621,3.2003,3.1787,3.1266,3.0394,2.9995,2.9572,2.9074,2.9074,2.874,1.739,1.7112,0.0,0.0,0.0,0.0,0.0,0.0,0.0,0.0,0.0,2.0484,2.0484,0.0,0.0,2.0805,2.0805,2.0805,2.0805,2.0409,2.0215,2.0409,2.0226,2.0172,2.0431,2.0952,2.1236,2.0989,2.1578,2.1864,2.167,2.1411,2.1203,2.1203,2.1006,2.0731,2.0511,2.0511,2.0183,1.9605,1.9605,1.961,1.9672,1.9536,1.9406,1.9328,1.9127,1.8808,1.8269,1.7852,1.7842,1.8094,1.7235,1.6959,1.6932,1.6473,1.6272,1.6132,1.6132,1.6,1.5867,1.5805,1.5805,1.5805,1.5805,1.5874,1.6011,1.6259,1.6696,1.7064,1.6999,1.7271,1.7429,1.7033,1.6338,1.557,1.4739,1.4574,1.4816,1.5534,1.6498,1.7668,1.91,2.0074,2.1141,2.2408,2.3533,2.473,2.6008,2.7282,2.8222,2.881,2.9271,2.9805,3.0551,3.0714,3.0993,3.1363,3.1321,3.1585,3.2352,3.2127,3.1949,3.1839,3.1072,3.0558,3.0394,2.9673,2.8805,2.7829,2.8212,2.767,1.7512,0.0,0.0,0.0,0.0,0.0,0.0,0.0,0.0,0.0,0.0,2.1123,2.1123,2.1313,0.0,2.1491,2.1491,2.1491,2.1491,2.1112,2.073,2.059,2.0666,2.0666,2.0484,2.1135,2.1463,2.1221,2.14,2.14,2.1146,2.07,2.0366,2.0366,2.0237,2.0042,1.9922,1.9922,1.9726,1.9407,1.9407,1.9274,1.9075,1.9075,1.9075,1.9065,1.8596,1.8259,1.7852,1.7107,1.7226,1.7823,1.6959,1.6682,1.6742,1.6342,1.614,1.6,1.6,1.5938,1.5805,1.5805,1.5805,1.5805,1.5805,1.5805,1.5848,1.6062,1.6396,1.6672,1.6428,1.6674,1.6896,1.6517,1.5996,1.5325,1.4544,1.4267,1.4402,1.5108,1.5877,1.6844,1.8345,1.9156,2.0139,2.1518,2.2724,2.4071,2.5767,2.6558,2.721,2.7963,2.8622,2.921,2.9789,3.0208,3.0576,3.0804,3.0804,3.1067,3.1677,3.149,3.1355,3.1274,3.0534,3.0015,2.9772,2.8803,2.7876,2.7022,2.7072,2.6413,1.6955,0.0,0.0,0.0,0.0,0.0,0.0,0.0,0.0,0.0,0.0,2.125,2.125,2.1803,2.2175,2.2175,2.2175,2.2175,2.2175,2.1616,2.1049,2.0782,2.1239,2.1428,2.1123,2.1788,2.2123,2.2061,2.1463,2.1123,2.0996,2.0484,2.0107,2.0042,2.0096,1.9911,1.9539,1.9539,1.9407,1.9075,1.9075,1.9075,1.9075,1.9075,1.9075,1.9075,1.792,1.752,1.751,1.6421,1.6342,1.6742,1.6403,1.607,1.5938,1.6,1.5938,1.5805,1.5805,1.5805,1.5805,1.5805,1.5805,1.5805,1.5805,1.5805,1.5805,1.5805,1.6062,1.628,1.5839,1.6021,1.6117,1.5634,1.525,1.4851,1.4202,1.3775,1.3702,1.4466,1.5171,1.6149,1.7571,1.8479,1.9497,2.0869,2.2224,2.3657,2.5176,2.5522,2.6026,2.7115,2.8079,2.8763,2.9041,2.9951,3.0535,3.0625,3.0683,3.0723,3.0666,3.0868,3.0845,3.0426,2.9992,2.944,2.8717,2.7519,2.6743,2.6393,2.5794,2.5166,0.0,1.8224,0.0,0.0,0.0,0.0,0.0,0.0,0.0,2.2689,2.2689,2.2689,2.2689,2.2823,2.2871,2.2871,2.2871,2.2871,2.2871,2.231,2.1865,2.1791,2.1428,2.1187,2.1123,2.169,2.1803,2.0985,2.1302,2.1175,2.0355,2.0409,2.0226,1.9726,1.9977,1.9846,1.9198,1.9208,1.9142,1.9075,1.9075,1.9075,1.9075,1.9075,1.9075,1.9065,1.8405,1.8337,1.8664,1.8056,1.7978,1.823,1.7432,1.7028,1.6742,1.607,1.5876,1.5805,1.5805,1.5805,1.5805,1.5805,1.5805,1.5805,1.5805,1.5805,1.5805,1.5805,1.5846,1.5839,1.5388,1.557,1.561,1.4592,1.4524,1.4486,1.3792,1.3564,1.3702,1.4466,1.5171,1.6018,1.6922,1.8152,1.9497,2.0869,2.2224,2.3255,2.3598,2.4784,2.5686,2.5972,2.7004,2.7795,2.7997,2.8717,2.9241,2.9467,2.987,2.9897,2.9467,3.0107,3.0276,2.9876,2.8729,2.7904,2.7488,2.6331,2.5525,2.5046,2.4866,2.4477,0.0,0.0,0.0,0.0,0.0,0.0,0.0,0.0,0.0,2.3075,2.3078,2.3078,2.3078,2.3078,2.3078,2.3078,2.3078,2.3078,2.3078,2.2811,2.2433,2.2163,2.2063,2.1939,2.1616,2.2187,2.2359,2.1865,2.1553,2.1239,2.1049,2.0344,1.9835,1.9857,1.9715,1.9452,1.9075,1.9075,1.9075,1.9075,1.9075,1.9075,1.9075,1.9075,1.8942,1.8674,1.8405,1.8472,1.8674,1.8124,1.7988,1.8037,1.7295,1.6821,1.6403,1.5938,1.5805,1.5805,1.5805,1.5805,1.5805,1.5805,1.5805,1.5726,1.5576,1.5505,1.5505,1.5292,1.5209,1.5138,1.4691,1.4751,1.4762,1.3933,1.4156,1.4395,1.3638,1.3492,1.3637,1.3977,1.4681,1.5313,1.5737,1.7307,1.8803,1.9955,2.0962,2.1904,2.2506,2.3369,2.4187,2.4924,2.6026,2.6834,2.7078,2.7883,2.848,2.8685,2.8982,2.9028,2.8732,2.8817,2.8822,2.8598,2.7612,2.6948,2.6565,2.542,2.4773,2.4567,2.4283,2.3939,0.0,0.0,0.0,0.0,0.0,0.0,0.0,0.0,2.2414,2.2965,2.3078,2.3078,2.3078,2.3078,2.3078,2.3078,2.3078,2.3078,2.3078,2.3078,2.2871,2.2359,2.275,2.2871,2.2298,2.275,2.3005,2.2763,2.1815,2.1428,2.1729,2.0279,1.9649,2.0107,1.9584,1.9198,1.9075,1.9075,1.9075,1.9075,1.9075,1.9075,1.9075,1.9075,1.8875,1.8472,1.8472,1.8472,1.8405,1.792,1.7647,1.752,1.7097,1.6473,1.5938,1.5938,1.5867,1.5797,1.5726,1.5726,1.5655,1.5584,1.5584,1.5513,1.5213,1.5133,1.5062,1.4705,1.4569,1.4489,1.4274,1.4201,1.4137,1.3783,1.4132,1.4319,1.3623,1.3492,1.3492,1.3492,1.4122,1.4673,1.4958,1.66,1.8113,1.89,1.9639,2.0526,2.1631,2.193,2.2555,2.3787,2.4995,2.5821,2.6037,2.7136,2.7868,2.7981,2.8084,2.8086,2.8023,2.7409,2.6964,2.6655,2.6294,2.5976,2.556,2.4458,2.4056,2.4298,2.382,2.3595,0.0,0.0,0.0,0.0,0.0,0.0,0.0,0.0,2.2309,0.0,2.3078,2.3078,2.3078,2.3078,2.3078,2.3078,2.3078,2.3078,2.3078,2.3078,2.3078,2.3005,2.3078,2.3065,2.3005,2.3078,2.2628,2.1439,2.1741,2.1479,2.0409,2.0677,2.0613,2.0107,2.0031,1.9715,1.9142,1.9075,1.9075,1.9075,1.9075,1.9075,1.9075,1.9075,1.9065,1.9008,1.9008,1.9008,1.9008,1.8942,1.8596,1.8202,1.8134,1.7442,1.6473,1.6473,1.6202,1.5726,1.5426,1.5275,1.5204,1.4856,1.4784,1.4713,1.4713,1.4713,1.4641,1.4641,1.4418,1.4201,1.4497,1.4497,1.4497,1.4497,1.4529,1.4408,1.3645,1.3492,1.3492,1.3492,1.4122,1.5029,1.6367,1.7307,1.8113,1.89,1.9639,2.0161,2.0344,2.1381,2.2188,2.2372,2.3644,2.4553,2.4553,2.5821,2.6605,2.6657,2.7206,2.7316,2.6871,2.6176,2.5186,2.3678,2.4065,2.4116,2.3851,2.3094,2.2869,2.311,2.3466,2.3595,1.942,0.0,0.0,0.0,0.0,0.0,0.0,0.0,2.143,2.2275,2.2568,2.2761,2.3015,2.3078,2.3078,2.3078,2.3078,2.3078,2.3078,2.3078,2.3078,2.3078,2.3078,2.3078,2.3078,2.275,2.231,2.1678,2.1616,2.1428,2.1227,2.0794,2.0741,2.1227,2.0161,1.9584,1.9649,1.9264,1.9075,1.9075,1.9075,1.9075,1.9075,1.9075,1.9075,1.9075,1.9075,1.9075,1.9075,1.9075,1.8808,1.8269,1.8212,1.7657,1.689,1.683,1.6621,1.6351,1.5771,1.5551,1.5409,1.4776,1.4569,1.4569,1.4353,1.4346,1.4281,1.4065,1.3848,1.3775,1.3928,1.3992,1.3992,1.3992,1.3992,1.3928,1.3564,1.3492,1.3492,1.3492,1.3775,1.433,1.5455,1.621,1.6895,1.7677,1.8442,1.9054,1.9441,1.9998,2.0493,2.0951,2.225,2.311,2.3157,2.4486,2.5259,2.5035,2.5336,2.5293,2.4747,2.412,2.3406,2.2677,2.3201,2.3141,2.253,2.225,2.2388,2.2889,2.3113,2.3334,0.0,0.0,0.0,0.0,0.0,0.0,0.0,0.0,2.0612,0.0,2.1944,2.233,2.2742,2.2977,2.3078,2.3078,2.3078,2.3078,2.3078,2.3078,2.3078,2.3078,2.3078,2.3078,2.3078,2.2628,2.2298,2.2101,2.1803,2.169,2.1865,2.0921,2.0794,2.1803,2.0085,1.9386,2.0096,1.9462,1.9075,1.9075,1.9065,1.9008,1.9008,1.8942,1.8942,1.8942,1.9008,1.9008,1.8942,1.8942,1.8741,1.8337,1.8212,1.7726,1.7163,1.6932,1.6627,1.6339,1.5587,1.5338,1.5267,1.4561,1.4353,1.4281,1.3992,1.392,1.3848,1.3564,1.3492,1.3492,1.3637,1.3637,1.3637,1.3783,1.371,1.3637,1.3492,1.3492,1.3492,1.3492,1.3492,1.3702,1.4466,1.5029,1.5675,1.6515,1.7079,1.7569,1.8085,1.8345,1.868,1.9201,2.0459,2.1397,2.1708,2.3005,2.373,2.3588,2.3609,2.3457,2.3073,2.241,2.2034,2.1884,2.2246,2.2187,2.1602,2.1602,2.1969,2.2694,2.2844,2.3068,0.0,0.0,0.0,0.0,0.0,0.0,0.0,0.0,0.0,2.0994,2.158,2.195,2.1975,2.2621,2.3078,2.3078,2.3078,2.3078,2.3078,2.3078,2.3078,2.3078,2.3078,2.3078,2.3078,2.3078,2.275,2.2175,2.2689,2.2445,2.1187,2.106,2.106,2.1123,1.9846,1.9386,2.0096,1.9462,1.9075,1.9075,1.8942,1.8808,1.8808,1.8617,1.8549,1.8549,1.8741,1.8674,1.8549,1.8549,1.8482,1.8482,1.8482,1.7888,1.7101,1.6743,1.6016,1.5069,1.4443,1.4201,1.4129,1.371,1.3564,1.3564,1.3564,1.3564,1.3499,1.3499,1.3492,1.3564,1.3992,1.4057,1.4129,1.4497,1.4274,1.3992,1.3564,1.3492,1.3492,1.3492,1.3492,1.3702,1.4466,1.4601,1.4887,1.5675,1.5816,1.5807,1.5877,1.648,1.6936,1.6936,1.8285,1.9401,2.004,2.1173,2.2106,2.2693,2.2551,2.2383,2.2355,2.1784,2.1229,2.0699,2.0699,2.0835,2.1042,2.1042,2.1417,2.2128,2.2649,2.2889,0.0,0.0,0.0,0.0,0.0,0.0,0.0,1.9437,1.9648,2.014,2.0575,2.0864,2.1174,2.2075,2.286,2.286,2.286,2.286,2.286,2.286,2.286,2.286,2.286,2.286,2.286,2.2396,2.2063,2.2002,2.2187,2.1939,2.1123,2.1439,2.1628,2.1741,2.0355,1.9528,1.9264,1.8875,1.8674,1.8674,1.8617,1.8617,1.8607,1.8238,1.8041,1.7899,1.775,1.7855,1.8107,1.8107,1.774,1.7084,1.6963,1.6468,1.576,1.5508,1.5632,1.5739,1.4506,1.456,1.4974,1.3848,1.3492,1.3492,1.3492,1.3492,1.3492,1.3492,1.3492,1.3564,1.371,1.3702,1.3783,1.3855,1.3783,1.371,1.3564,1.3492,1.3492,1.3492,1.3193,1.3119,1.3768,1.3962,1.4227,1.4887,1.5392,1.5675,1.5675,1.5939,1.607,1.607,1.7005,1.7678,1.7929,1.9137,1.992,2.0194,2.0527,2.0716,2.0707,2.05,2.0295,2.0105,2.0105,2.0207,2.0472,2.0472,2.0908,2.1636,2.2142,2.2558,0.0,0.0,0.0,0.0,0.0,1.8987,1.8987,0.0,1.9214,1.9498,1.9825,2.0165,2.0431,2.1289,2.2017,2.2137,2.2137,2.2211,2.2383,2.2407,2.2481,2.2665,2.269,2.269,2.269,2.2285,2.2013,2.2149,2.1951,2.1628,2.1313,2.1175,2.1037,2.0899,2.042,1.9649,1.8674,1.8808,1.8741,1.8482,1.8255,1.8185,1.8175,1.7725,1.7397,1.7258,1.7036,1.7129,1.7526,1.7526,1.7091,1.6446,1.6319,1.5779,1.5087,1.4833,1.4955,1.5094,1.4074,1.4174,1.467,1.381,1.3492,1.3564,1.3775,1.384,1.3912,1.4201,1.4274,1.4274,1.4274,1.4057,1.384,1.3564,1.3492,1.3492,1.3492,1.3492,1.3492,1.3492,1.32,1.3046,1.3419,1.3542,1.3738,1.4186,1.4617,1.4895,1.4673,1.4673,1.4601,1.4371,1.5201,1.5878,1.6079,1.7259,1.8082,1.8507,1.8805,1.9161,1.9512,1.954,1.9604,1.9798,1.9798,1.9914,2.0182,2.0182,2.0623,2.1423,2.186,2.2374,0.0,0.0,0.0,0.0,0.0,0.0,1.8987,0.0,1.8987,1.8987,1.9396,1.9756,1.9756,2.0201,2.0677,2.0962,2.1043,2.1252,2.178,2.1854,2.2051,2.2579,2.2641,2.2641,2.2641,2.2641,2.2641,2.2641,2.1966,2.1569,2.1569,2.0289,1.9267,1.8509,1.9781,1.9846,1.8442,1.9166,1.9166,1.8442,1.7859,1.7585,1.7575,1.6958,1.6709,1.6709,1.6636,1.6626,1.6626,1.6709,1.6636,1.6626,1.6626,1.598,1.4969,1.4646,1.3907,1.3075,1.3028,1.3064,1.313,1.3375,1.3484,1.3637,1.433,1.4601,1.4744,1.5463,1.5675,1.5675,1.5675,1.5171,1.4394,1.3702,1.3492,1.3492,1.3492,1.3492,1.3492,1.3492,1.3492,1.3499,1.3492,1.3492,1.3499,1.3492,1.3492,1.3273,1.2673,1.2599,1.2378,1.1781,1.2924,1.3981,1.4711,1.5623,1.6664,1.784,1.7568,1.7907,1.8934,1.8999,1.9251,1.9798,1.9798,1.9914,2.0182,2.0182,2.0636,2.1375,2.186,2.2374,1.9182,0.0,0.0,0.0,0.0,0.0,0.0,0.0,1.8987,1.8987,1.9107,1.9215,1.9215,1.9336,1.9498,1.9552,2.0249,2.0807,2.0919,2.0955,2.1003,2.1148,2.1207,2.1207,2.1172,2.1172,2.1219,0.0,2.1136,2.0889,2.0523,1.9731,1.8935,1.8134,1.85,1.8312,1.7392,1.7466,1.7402,1.7209,1.7027,1.6968,1.6948,1.6445,1.625,1.623,1.5425,1.5352,1.5801,1.6113,1.5506,1.4443,1.493,1.4353,1.328,1.3644,1.41,1.439,1.3332,1.3672,1.4393,1.3457,1.3301,1.3564,1.3775,1.4186,1.4673,1.4816,1.5313,1.5604,1.5029,1.4744,1.4394,1.3702,1.3492,1.3492,1.3492,1.3492,1.3492,1.3492,1.3127,1.2973,1.3419,1.3119,1.2973,1.3419,1.3492,1.3419,1.3273,1.3273,1.3046,1.2452,1.3105,1.3462,1.3215,1.4146,1.5221,1.6311,1.7027,1.7907,1.8934,1.9396,1.9643,1.9798,1.9798,1.9914,2.0182,2.0182,2.0435,2.0898,2.1718,2.2374,0.0,0.0,0.0,0.0,0.0,0.0,1.8987,1.8987,1.8987,0.0,1.8987,1.8934,1.8655,1.8602,1.8602,1.8602,1.9164,1.9693,2.0181,2.0273,2.0358,2.0586,2.0598,2.0598,2.061,2.0367,2.0251,2.0355,2.0053,1.969,1.9086,1.9037,1.8544,1.7513,1.7996,1.7822,1.6855,1.7044,1.6981,1.6665,1.6543,1.6455,1.6436,1.5996,1.5791,1.5781,1.5164,1.5059,1.543,1.5684,1.5219,1.4341,1.4706,1.4213,1.3364,1.3743,1.4134,1.4276,1.3306,1.3567,1.4105,1.3262,1.3338,1.3795,1.3939,1.4474,1.51,1.5455,1.6088,1.6524,1.5737,1.5587,1.5384,1.4625,1.441,1.441,1.441,1.441,1.4338,1.4049,1.3404,1.3185,1.384,1.3404,1.3119,1.3419,1.3492,1.3419,1.3193,1.3119,1.282,1.1929,1.2599,1.29,1.2305,1.3286,1.4353,1.5331,1.5989,1.7013,1.8536,1.8898,1.9319,1.9798,1.9798,1.9914,2.0182,2.0182,2.0485,2.0997,2.1766,2.2374,0.0,0.0,0.0,0.0,0.0,0.0,1.8987,1.8987,1.8987,0.0,1.8881,1.8709,1.8093,1.7984,1.7984,1.7984,1.7984,1.8363,1.9447,1.9696,1.9877,2.0256,2.0373,2.0373,2.0316,1.9831,1.947,1.9412,1.8881,1.8223,1.7615,1.8091,1.7859,1.6707,1.7737,1.7737,1.6592,1.7194,1.7194,1.6519,1.6182,1.5986,1.6037,1.5586,1.541,1.541,1.5352,1.5352,1.541,1.5352,1.5294,1.5294,1.5294,1.4942,1.441,1.441,1.4052,1.3554,1.3121,1.3068,1.3212,1.3044,1.3554,1.4271,1.4592,1.5209,1.6026,1.6802,1.751,1.7794,1.7079,1.6932,1.6724,1.5877,1.5675,1.5675,1.5675,1.5675,1.5525,1.4958,1.4258,1.3912,1.4466,1.4049,1.3564,1.3492,1.3492,1.3346,1.2746,1.2673,1.2224,1.1111,1.2003,1.2439,1.181,1.2793,1.3892,1.4862,1.5046,1.6016,1.8093,1.8255,1.8792,1.9798,1.985,1.9965,2.0182,2.0233,2.0636,2.1313,2.186,2.236,0.0,0.0,0.0,0.0,0.0,0.0,1.8987,1.8987,1.8881,0.0,1.8267,1.8093,1.7479,1.7368,1.7313,1.7224,1.7324,1.7623,1.834,1.8863,1.9018,1.8611,1.9029,1.9137,1.8623,1.8501,1.8225,1.7711,1.7553,1.7429,1.7316,1.6927,1.6638,1.6407,1.6184,1.59,1.5674,1.5782,1.5782,1.5664,1.5576,1.5537,1.5537,1.5449,1.541,1.5352,1.4883,1.4942,1.5352,1.4883,1.4706,1.4706,1.4706,1.4291,1.3692,1.3692,1.3923,1.4121,1.3022,1.3422,1.439,1.3324,1.3832,1.4933,1.5001,1.5782,1.6793,1.7579,1.7872,1.7794,1.7079,1.6932,1.6724,1.5877,1.5675,1.5675,1.5675,1.5675,1.5877,1.6367,1.5807,1.5108,1.4673,1.4466,1.4186,1.3564,1.3492,1.3492,1.3346,1.3346,1.3046,1.2305,1.29,1.2947,1.2107,1.2944,1.3974,1.5129,1.5958,1.7102,1.8762,1.9226,1.9579,1.9798,2.0016,2.0131,2.0182,2.0498,2.0699,2.0848,2.1718,2.2175,0.0,0.0,0.0,1.8987,0.0,0.0,0.0,1.8987,1.8815,1.8201,1.8267,1.8061,1.6877,1.6821,1.6877,1.6492,1.6549,1.6708,1.6989,1.7655,1.7984,1.771,1.7929,1.7984,1.7699,1.7368,1.709,1.6754,1.6472,1.6415,1.6754,1.6472,1.614,1.5853,1.5864,1.569,1.541,1.541,1.541,1.541,1.541,1.541,1.541,1.541,1.541,1.5352,1.5059,1.5118,1.5352,1.5059,1.4942,1.4942,1.4942,1.4756,1.446,1.446,1.446,1.435,1.3373,1.3561,1.4057,1.3235,1.3922,1.5085,1.5078,1.5928,1.7001,1.7364,1.7725,1.794,1.751,1.7432,1.7364,1.6941,1.6872,1.6872,1.6872,1.6872,1.695,1.7364,1.7157,1.6524,1.5313,1.4816,1.433,1.3637,1.3492,1.3492,1.3492,1.3492,1.3273,1.2673,1.2977,1.2971,1.2161,1.2818,1.3808,1.5237,1.5908,1.7102,1.8934,1.9239,1.9552,1.9798,1.9978,2.008,2.008,2.0448,2.0612,2.0699,2.167,2.2081,0.0,0.0,0.0,0.0,0.0,1.8987,0.0,0.0,0.0,1.8038,1.817,1.7897,1.6218,1.6218,1.6265,1.5748,0.0,0.0,0.0,1.6312,0.0,1.6922,1.709,1.7146,1.6978,1.6425,1.6083,1.6083,1.5584,1.5584,1.6197,1.6083,1.5864,1.5526,1.5864,1.5806,1.5362,1.5362,1.5362,1.5303,1.5362,1.5362,1.5303,1.5303,1.5303,1.5303,1.5303,1.5303,1.5303,1.5303,1.5362,1.5362,1.5235,1.5235,1.5235,1.5059,1.4824,1.441,1.3743,1.3692,1.3795,1.341,1.4178,1.5327,1.5402,1.6161,1.7036,1.7036,1.7453,1.8008,1.8008,1.8008,1.8008,1.8008,1.8008,1.8008,1.8008,1.8008,1.8008,1.8008,1.8008,1.7579,1.6167,1.5455,1.4752,1.384,1.3702,1.363,1.3492,1.344,1.3252,1.2947,1.3026,1.2947,1.2527,1.3107,1.407,1.547,1.6042,1.7158,1.9081,1.9146,1.9344,1.9798,1.9926,1.999,1.999,2.036,2.0562,2.0662,2.1541,2.1988,0.0,0.0,0.0,0.0,1.8987,0.0,0.0,0.0,1.8655,1.739,0.0,1.6775,1.5371,0.0,0.0,0.0,0.0,0.0,1.4883,1.5069,1.542,1.5979,1.6708,1.6933,1.6275,1.5662,1.5323,1.5323,1.5147,1.5313,1.5931,1.542,1.5371,1.5816,1.5371,1.5088,1.5029,1.5147,1.5147,1.5029,1.5156,1.5147,1.5029,1.5029,1.5029,1.5029,1.5029,1.5029,1.5029,1.5029,1.5088,1.5205,1.4775,1.4588,1.4529,1.3923,1.4043,1.441,1.3743,1.4222,1.5059,1.4515,1.5083,1.603,1.6398,1.6905,1.7319,1.7319,1.7658,1.8008,1.8008,1.8008,1.8008,1.8008,1.8008,1.8008,1.8008,1.8008,1.8008,1.8008,1.8008,1.7725,1.6941,1.6724,1.6158,1.4673,1.4466,1.4258,1.3564,1.3243,1.3264,1.3809,1.3567,1.3571,1.3783,1.4711,1.5631,1.6513,1.7457,1.8555,1.9643,1.9695,1.9747,1.9798,1.9926,1.999,1.999,2.036,2.0511,2.0562,2.118,2.1684,0.0,0.0,0.0,0.0,0.0,0.0,1.8999,0.0,1.8506,0.0,0.0,0.0,0.0,0.0,0.0,0.0,1.4725,0.0,0.0,0.0,1.5088,1.5371,0.0,0.0,1.5604,1.5264,1.5098,1.5215,1.5098,1.5088,1.5371,1.5147,1.5147,1.5371,1.5147,1.497,1.497,1.5039,1.5039,1.497,1.5039,1.5029,1.497,1.497,1.497,1.497,1.497,1.497,1.497,1.497,1.5029,1.5039,1.4843,1.4893,1.5001,1.4697,1.4579,1.4469,1.4172,1.441,1.4883,1.5001,1.5525,1.6154,1.6289,1.665,1.7002,1.7002,1.7314,1.7646,1.7646,1.8081,1.8586,1.8586,1.8921,1.9121,1.8654,1.8586,1.8462,1.8076,1.7812,1.758,1.7226,1.6999,1.6645,1.5983,1.5331,1.4927,1.4972,1.434,1.4128,1.4771,1.4187,1.4158,1.4958,1.5213,1.5868,1.7147,1.8424,1.9371,1.9798,1.9798,1.9798,1.9798,1.9862,1.9862,1.9862,2.0182,2.0347,2.0347,2.1348,2.1908,2.0483,0.0,0.0,0.0,0.0,0.0,0.0,0.0,0.0,0.0,0.0,0.0,0.0,0.0,1.502,0.0,0.0,1.4606,0.0,1.4684,0.0,0.0,0.0,0.0,0.0,1.4852,1.4666,1.4784,1.4666,1.4606,1.4606,1.4734,1.4862,1.4862,1.4862,1.4862,1.4862,1.4911,1.4911,1.4862,1.4911,1.4793,1.4606,1.4793,1.4734,1.4606,1.4793,1.4862,1.4862,1.4862,1.4852,1.4911,1.4911,1.5079,1.5303,1.5303,1.5069,1.4765,1.4765,1.4765,1.4824,1.5235,1.5625,1.5889,1.5889,1.6191,1.6553,1.6553,1.6992,1.7457,1.7457,1.8185,1.8866,1.8866,1.9254,1.9458,1.8736,1.8606,1.842,1.7789,1.7412,1.7262,1.7457,1.7224,1.6996,1.6756,1.6181,1.58,1.5905,1.5133,1.4848,1.546,1.4809,1.4864,1.6078,1.608,1.6623,1.8132,1.919,1.985,2.0003,2.0003,2.0003,2.0003,2.0003,1.9952,1.9862,2.008,2.0233,2.0283,2.1382,2.2002,0.0,0.0,0.0,1.9701,0.0,0.0,0.0,0.0,1.8224,0.0,0.0,0.0,1.4734,1.4515,0.0,0.0,0.0,0.0,0.0,0.0,0.0,0.0,0.0,0.0,0.0,1.424,1.3752,0.0,1.3631,1.3571,1.3571,1.4139,1.4515,1.4515,1.4515,1.4515,1.4515,1.4666,1.4666,1.4515,1.4666,1.4291,1.3571,1.4198,1.4139,1.3571,1.4258,1.4515,1.4515,1.4515,1.4616,1.4715,1.4715,1.4834,1.5029,1.5156,1.5254,1.5352,1.5352,1.5352,1.5352,1.541,1.542,1.543,1.543,1.5732,1.6145,1.6145,1.6828,1.7606,1.7606,1.8038,1.8538,1.8538,1.8538,1.8355,1.7812,1.7626,1.7439,1.6831,1.6758,1.6938,1.7481,1.7554,1.7357,1.6626,1.6964,1.6882,1.557,1.5097,1.5099,1.5702,1.5516,1.5843,1.7045,1.7918,1.878,1.9695,1.9747,2.0055,2.056,2.056,2.056,2.056,2.056,2.0372,1.999,2.0131,2.0296,2.0511,2.1131,2.1684,0.0,0.0,2.0474,2.0476,0.0,0.0,0.0,0.0,0.0,0.0,0.0,0.0,0.0,0.0,0.0,0.0,0.0,0.0,0.0,0.0,0.0,0.0,0.0,0.0,0.0,0.0,0.0,1.3752,1.401,1.4139,1.4139,1.395,1.407,1.4515,1.3631,1.3571,1.4506,1.4121,1.4121,1.4515,1.4565,1.4189,1.3511,1.4198,1.3881,1.2887,1.401,1.401,1.326,1.4139,1.4258,1.3932,1.4369,1.4666,1.4834,1.5088,1.5205,1.5254,1.5362,1.541,1.541,1.541,1.541,1.541,1.541,1.58,1.625,1.625,1.6988,1.783,1.783,1.8484,1.9145,1.9145,1.9513,1.9701,1.9026,1.8555,1.8139,1.7399,1.7093,1.6941,1.7183,1.7621,1.8085,1.8414,1.8051,1.7728,1.7707,1.6953,1.667,1.724,1.6885,1.7079,1.8309,1.8815,1.9291,1.9747,1.9798,1.9901,2.0055,2.0409,2.0409,2.0055,2.0409,2.0422,1.999,2.0131,2.0296,2.0511,2.1444,2.1955,2.1561,2.1253,0.0,2.0813,2.0472,0.0,1.9518,0.0,1.8748,0.0,0.0,0.0,0.0,0.0,0.0,0.0,0.0,0.0,0.0,1.4743,0.0,0.0,0.0,0.0,0.0,0.0,1.3761,1.3631,1.3511,1.3519,1.3761,1.3381,1.3321,1.3761,1.3199,1.326,1.4139,1.395,1.395,1.413,1.413,1.364,1.2834,1.345,1.3199,1.2212,1.358,1.3631,1.2948,1.3821,1.401,1.3881,1.407,1.4309,1.4666,1.4902,1.5088,1.5215,1.5362,1.541,1.541,1.541,1.5526,1.569,1.569,1.614,1.6715,1.7111,1.7589,1.8034,1.8458,1.893,1.932,1.932,1.9684,1.9865,1.9137,1.8735,1.828,1.762,1.7248,1.7154,1.7327,1.7801,1.8322,1.892,1.8623,1.8351,1.8575,1.7957,1.7644,1.8038,1.7754,1.7984,1.904,1.9316,1.9512,1.9798,1.9798,1.9952,2.0333,2.051,2.056,2.0383,2.051,2.0422,2.0093,2.0182,2.0435,2.0848,2.1718,2.2175]},{"header":{"parameterUnit":"m.s-1","parameterCategory":1,"la1":30.6,"la2":29.2853,"lo1":-89.7004,"lo2":-87.6739,"dy":0.0162,"dx":0.0183,"nx":112,"ny":82,"refTime":"2023-05-26T06:00:00:Z","depth":0,"parameterNumber":3,"parameterNumberName":"V-component_of_WINDS"},"data":[0.0,0.0,0.0,0.0,0.0,0.0,0.0,0.0,0.0,0.0,0.0,0.0,0.0,0.0,0.0,0.0,0.0,0.0,0.0,0.0,0.0,0.0,0.0,0.0,0.0,0.0,0.0,0.0,0.0,0.0,0.0,0.0,0.0,0.0,0.0,0.0,0.0,0.0,0.0,0.0,0.0,0.0,0.0,0.0,0.0,0.0,0.0,0.0,0.0,0.0,0.0,0.0,0.0,0.0,0.0,0.0,0.0,0.0,0.0,0.0,0.0,0.0,0.0,0.0,0.0,0.0,0.0,0.0,0.0,0.0,0.0,0.0,0.0,0.0,0.0,0.0,0.0,0.0,0.0,0.0,0.0,0.0,0.0,0.0,0.0,0.0,0.0,0.0,0.0,0.0,2.1746,2.1568,2.1949,2.2184,2.2184,2.2184,2.2184,2.2184,0.0,0.0,0.0,0.0,0.0,0.0,0.0,0.0,0.0,0.0,0.0,0.0,0.0,0.0,0.0,0.0,0.0,0.0,0.0,0.0,0.0,0.0,0.0,0.0,0.0,0.0,0.0,0.0,0.0,0.0,0.0,0.0,0.0,0.0,0.0,0.0,0.0,0.0,0.0,0.0,0.0,0.0,0.0,0.0,0.0,0.0,0.0,0.0,0.0,0.0,0.0,0.0,0.0,0.0,0.0,0.0,0.0,0.0,0.0,0.0,0.0,0.0,0.0,0.0,0.0,0.0,0.0,0.0,0.0,0.0,0.0,0.0,0.0,0.0,0.0,0.0,0.0,0.0,0.0,0.0,0.0,0.0,0.0,0.0,0.0,0.0,0.0,0.0,0.0,0.0,0.0,0.0,0.0,0.0,0.0,0.0,0.0,0.0,0.0,0.0,0.0,0.0,0.0,0.0,2.2137,2.2091,2.2137,2.2184,2.2184,2.2184,2.2184,2.2184,0.0,0.0,0.0,0.0,0.0,0.0,0.0,0.0,0.0,0.0,0.0,0.0,0.0,0.0,0.0,0.0,0.0,0.0,0.0,0.0,0.0,0.0,0.0,0.0,0.0,0.0,0.0,0.0,0.0,0.0,0.0,0.0,0.0,0.0,0.0,0.0,0.0,0.0,0.0,0.0,0.0,0.0,0.0,0.0,0.0,0.0,0.0,0.0,0.0,0.0,0.0,0.0,0.0,0.0,0.0,0.0,0.0,0.0,0.0,0.0,0.0,0.0,0.0,0.0,0.0,0.0,0.0,0.0,0.0,0.0,0.0,0.0,0.0,0.0,0.0,0.0,0.0,0.0,0.0,0.0,0.0,0.0,0.0,0.0,0.0,0.0,0.0,0.0,0.0,0.0,0.0,0.0,0.0,0.0,0.0,0.0,0.0,0.0,0.0,0.0,0.0,0.0,0.0,2.1348,2.2044,2.2184,2.2184,2.2184,2.2184,2.2184,2.2184,2.2184,2.2184,0.0,0.0,0.0,0.0,0.0,0.0,0.0,0.0,0.0,0.0,0.0,0.0,0.0,0.0,0.0,0.0,0.0,0.0,0.0,0.0,0.0,0.0,0.0,0.0,0.0,0.0,0.0,0.0,0.0,0.0,0.0,0.0,0.0,0.0,0.0,0.0,0.0,0.0,0.0,0.0,0.0,0.0,0.0,0.0,0.0,0.0,0.0,0.0,0.0,0.0,0.0,0.0,0.0,0.0,0.0,0.0,0.0,0.0,0.0,0.0,0.0,0.0,0.0,0.0,0.0,0.0,0.0,0.0,0.0,0.0,0.0,0.0,0.0,0.0,0.0,0.0,0.0,0.0,0.0,0.0,0.0,0.0,0.0,0.0,0.0,0.0,0.0,0.0,0.0,0.0,0.0,0.0,0.0,0.0,0.0,0.0,0.0,0.0,0.0,0.0,0.0,0.0,2.1396,2.1888,2.2091,2.2184,2.2184,2.2184,2.2184,2.2184,2.2184,2.2184,0.0,0.0,0.0,0.0,0.0,0.0,0.0,0.0,0.0,0.0,0.0,0.0,0.0,0.0,0.0,0.0,0.0,0.0,0.0,0.0,0.0,0.0,0.0,0.0,0.0,0.0,0.0,0.0,0.0,0.0,0.0,0.0,0.0,0.0,0.0,0.0,0.0,0.0,0.0,0.0,0.0,0.0,0.0,0.0,0.0,0.0,0.0,0.0,0.0,0.0,0.0,0.0,0.0,0.0,0.0,0.0,0.0,0.0,0.0,0.0,0.0,0.0,0.0,0.0,0.0,0.0,0.0,0.0,0.0,0.0,0.0,0.0,0.0,0.0,0.0,0.0,0.0,0.0,0.0,0.0,0.0,0.0,0.0,0.0,0.0,0.0,0.0,0.0,0.0,0.0,0.0,0.0,0.0,0.0,0.0,0.0,0.0,0.0,0.0,0.0,0.0,0.0,2.1396,2.1793,2.1841,2.2044,2.2184,2.2184,2.2184,2.2184,2.2184,2.2184,0.0,0.0,0.0,0.0,0.0,0.0,0.0,0.0,0.0,0.0,0.0,0.0,0.0,0.0,0.0,0.0,0.0,0.0,0.0,0.0,0.0,0.0,0.0,0.0,0.0,0.0,0.0,0.0,0.0,0.0,0.0,0.0,0.0,0.0,0.0,0.0,0.0,0.0,0.0,0.0,0.0,0.0,0.0,0.0,0.0,0.0,0.0,0.0,0.0,0.0,0.0,0.0,0.0,0.0,0.0,0.0,0.0,0.0,0.0,0.0,0.0,0.0,0.0,0.0,0.0,0.0,0.0,0.0,0.0,0.0,0.0,0.0,0.0,0.0,0.0,0.0,0.0,0.0,0.0,0.0,0.0,0.0,0.0,0.0,0.0,0.0,0.0,0.0,0.0,0.0,0.0,0.0,0.0,0.0,0.0,0.0,0.0,0.0,0.0,0.0,0.0,0.0,2.097,2.1423,0.0,2.1902,2.2044,2.2184,2.2184,2.2184,2.2184,0.0,0.0,0.0,0.0,0.0,0.0,0.0,0.0,0.0,0.0,0.0,0.0,0.0,0.0,0.0,0.0,0.0,0.0,0.0,0.0,0.0,0.0,0.0,0.0,0.0,0.0,0.0,0.0,0.0,0.0,0.0,0.0,0.0,0.0,0.0,0.0,0.0,0.0,0.0,0.0,0.0,0.0,0.0,0.0,0.0,0.0,0.0,0.0,0.0,0.0,0.0,0.0,0.0,0.0,0.0,0.0,0.0,0.0,0.0,0.0,0.0,0.0,0.0,0.0,0.0,0.0,0.0,0.0,0.0,0.0,0.0,0.0,0.0,0.0,0.0,0.0,0.0,0.0,0.0,0.0,0.0,0.0,0.0,0.0,0.0,0.0,0.0,0.0,0.0,0.0,0.0,0.0,0.0,0.0,0.0,0.0,0.0,0.0,0.0,0.0,0.0,0.0,2.0207,2.0686,2.1131,0.0,2.1712,2.1841,2.2044,2.2091,2.2137,2.2184,0.0,0.0,0.0,0.0,0.0,0.0,0.0,0.0,0.0,0.0,0.0,0.0,0.0,0.0,0.0,0.0,0.0,0.0,0.0,0.0,0.0,0.0,0.0,0.0,0.0,0.0,0.0,0.0,0.0,0.0,0.0,0.0,0.0,0.0,0.0,0.0,0.0,0.0,0.0,0.0,0.0,0.0,0.0,0.0,0.0,0.0,0.0,0.0,0.0,0.0,0.0,0.0,0.0,0.0,0.0,0.0,0.0,0.0,0.0,0.0,0.0,0.0,0.0,0.0,0.0,0.0,0.0,0.0,0.0,0.0,0.0,0.0,0.0,0.0,0.0,0.0,0.0,0.0,0.0,0.0,0.0,0.0,0.0,0.0,0.0,0.0,0.0,0.0,0.0,0.0,0.0,0.0,0.0,0.0,0.0,0.0,0.0,0.0,0.0,0.0,0.0,0.0,1.9952,2.0573,2.0997,2.0997,2.1471,2.1793,2.1793,2.1793,2.1902,0.0,0.0,0.0,0.0,0.0,0.0,0.0,0.0,0.0,0.0,0.0,0.0,0.0,0.0,0.0,0.0,0.0,0.0,0.0,0.0,0.0,0.0,0.0,0.0,0.0,0.0,0.0,0.0,0.0,0.0,0.0,0.0,0.0,0.0,0.0,0.0,0.0,0.0,0.0,0.0,0.0,0.0,0.0,0.0,0.0,0.0,0.0,0.0,0.0,0.0,0.0,0.0,0.0,0.0,0.0,0.0,0.0,0.0,0.0,0.0,0.0,0.0,0.0,0.0,0.0,0.0,0.0,0.0,0.0,0.0,0.0,0.0,0.0,0.0,0.0,0.0,0.0,0.0,0.0,0.0,0.0,0.0,0.0,0.0,0.0,0.0,0.0,0.0,0.0,0.0,0.0,0.0,0.0,0.0,0.0,0.0,0.0,0.0,0.0,0.0,0.0,0.0,0.0,2.0385,2.0649,2.0848,2.0997,2.1131,2.1326,2.152,2.152,2.1616,2.1902,0.0,0.0,0.0,0.0,0.0,0.0,0.0,0.0,0.0,0.0,0.0,0.0,0.0,0.0,0.0,0.0,0.0,0.0,0.0,0.0,0.0,0.0,0.0,0.0,0.0,0.0,0.0,0.0,0.0,0.0,0.0,0.0,0.0,0.0,0.0,0.0,0.0,0.0,0.0,0.0,0.0,0.0,0.0,0.0,0.0,0.0,0.0,0.0,0.0,0.0,0.0,0.0,0.0,0.0,0.0,0.0,0.0,0.0,0.0,0.0,0.0,0.0,0.0,0.0,0.0,0.0,0.0,0.0,0.0,0.0,0.0,0.0,0.0,0.0,0.0,0.0,0.0,0.0,0.0,0.0,0.0,0.0,0.0,0.0,0.0,0.0,0.0,0.0,0.0,0.0,0.0,0.0,0.0,0.0,0.0,0.0,0.0,0.0,0.0,0.0,0.0,0.0,2.0334,2.0586,2.0749,2.0848,2.0947,2.1082,2.1229,2.1229,2.1375,2.1616,0.0,0.0,0.0,0.0,0.0,0.0,0.0,0.0,0.0,0.0,0.0,0.0,0.0,0.0,0.0,0.0,0.0,0.0,0.0,0.0,0.0,0.0,0.0,0.0,0.0,0.0,0.0,0.0,0.0,0.0,0.0,0.0,0.0,0.0,0.0,0.0,0.0,0.0,0.0,0.0,0.0,0.0,0.0,0.0,0.0,0.0,0.0,0.0,0.0,0.0,0.0,0.0,0.0,0.0,0.0,0.0,0.0,0.0,0.0,0.0,0.0,0.0,0.0,0.0,0.0,0.0,0.0,0.0,0.0,0.0,0.0,0.0,0.0,0.0,0.0,0.0,0.0,0.0,0.0,0.0,0.0,0.0,0.0,0.0,0.0,0.0,0.0,0.0,0.0,0.0,0.0,0.0,0.0,0.0,0.0,0.0,0.0,0.0,0.0,0.0,0.0,0.0,1.9991,2.0474,2.0777,2.0777,2.098,2.1156,2.1156,2.1156,2.1229,2.1407,0.0,0.0,0.0,0.0,0.0,0.0,0.0,0.0,0.0,0.0,0.0,0.0,0.0,0.0,0.0,0.0,0.0,0.0,0.0,0.0,0.0,0.0,0.0,0.0,0.0,0.0,0.0,0.0,0.0,0.0,0.0,0.0,0.0,0.0,0.0,0.0,0.0,0.0,0.0,0.0,0.0,0.0,0.0,0.0,0.0,0.0,0.0,0.0,0.0,0.0,0.0,0.0,0.0,0.0,0.0,0.0,0.0,0.0,0.0,0.0,0.0672,0.0,0.0,0.0,0.0,0.0,0.0,0.0,0.0,0.0,0.0,0.0,0.0,0.0,0.0,0.0,0.0,0.0,0.0,0.0,0.0,0.0,0.0,0.0,0.0,0.0,0.0,0.0,0.0,0.0,0.0,0.0,0.0,0.0,0.0,0.0,0.0,0.0,0.0,0.0,0.0,0.0,2.0435,2.099,2.1328,2.1328,2.1773,2.2101,2.2101,2.2101,2.2009,2.1803,2.1572,0.0,0.0,0.0,0.0,0.0,0.0,0.0,0.0,0.0,0.0,0.0,0.0,0.0,0.0,0.0,0.0,0.0,0.0,0.0,0.0,0.0,0.0,0.0,0.0,0.0,0.0,0.0,0.0,0.0,0.0,0.0,0.0,0.0,0.0,0.0,0.0,0.0,0.0,0.0,0.0,0.0,0.0,0.0,0.0,0.0,0.0,0.0,0.0,0.0,0.0,0.0,0.0,0.0,0.0,0.0,0.0,0.0,0.0,0.0,0.0,0.0941,0.0,0.0,0.0,0.0,0.0,0.0,0.0,0.0,0.0,0.0,0.0,0.0,0.0,0.0,0.0,0.0,0.0,0.0,0.0,0.0,0.0,0.0,0.0,0.0,0.0,0.0,0.0,0.0,0.0,0.0,0.0,0.0,0.0,0.0,0.0,0.0,0.0,0.0,0.0,0.0,2.1106,2.1641,2.1943,2.1917,2.2232,2.2415,2.2387,2.2428,2.2338,2.2141,2.2128,0.0,0.0,0.0,0.0,0.0,0.0,0.0,0.0,0.0,0.0,0.0,0.0,0.0,0.0,0.0,0.0,0.0,0.0,0.0,0.0,0.0,0.0,0.0,0.0,0.0,0.0,0.0,0.0,0.0,0.0,0.0,0.0,0.0,0.0,0.0,0.0,0.0,0.0,0.0,0.0,0.0,0.0,0.0,0.0,0.0,0.0,0.0,0.0,0.0,0.0,0.0,0.0,0.0,0.1479,0.1479,0.1479,0.2082,0.235,0.2281,0.1276,0.0874,0.1008,0.0806,0.0,0.0,0.0,0.0,0.0,0.0,0.0,0.0,0.0,0.0,0.0,0.0,0.0,0.0,0.0,0.0,0.0,0.0,0.0,0.0,0.0,0.0,0.0,0.0,0.8538,0.9661,1.1001,0.0,0.0,0.0,0.0,0.0,0.0,0.0,0.0,0.0,0.0,0.0,2.1524,2.2137,2.2489,2.2518,2.2609,2.2675,2.2714,2.2688,2.2677,2.2572,2.2748,2.2748,0.0,0.0,0.0,0.0,0.0,0.0,0.0,0.0,0.0,0.0,0.0,0.0,0.0,0.0,0.0,0.0,0.0,0.0,0.0,0.0,0.0,0.0,0.0,0.0,0.0,0.0,0.0,0.0,0.0,0.0,0.0,0.0,-0.148,-0.1277,0.0,0.0,0.0,0.0,0.0,0.0,0.0,0.0,0.0,0.0,0.0,0.0,0.0,0.2619,0.208,0.2619,0.2889,0.2889,0.2889,0.2889,0.2956,0.3023,0.3092,0.3023,0.2287,0.0,0.2018,0.1614,0.0,0.0,0.0,0.0,0.0,0.0,0.0,0.0,0.0,0.0,0.0,0.0,0.0,0.0,0.0,0.0,0.0,0.0,0.0,0.0,0.0,0.0,0.6762,0.6996,0.7711,0.871,0.0,1.0889,1.1685,1.1988,1.3574,0.0,0.0,0.0,0.0,0.0,0.0,0.0,2.1151,2.2222,2.295,2.3106,2.3576,2.389,2.389,2.389,2.3668,2.3132,2.3106,2.305,2.295,2.1863,0.0,0.0,0.0,0.0,0.0,0.0,0.0,0.0,0.0,0.0,0.0,0.0,0.0,0.0,0.0,0.0,0.0,0.0,0.0,0.0,0.0,0.0,0.0,0.0,0.0,0.0,0.0,0.0,0.0,-0.1547,-0.1547,-0.1344,-0.0941,-0.0403,0.0,0.0,0.0,0.0,0.0,0.0,0.0,0.0,0.0,0.2753,0.3025,0.3092,0.2753,0.3025,0.3226,0.3226,0.3226,0.3092,0.2889,0.2889,0.2822,0.2624,0.2085,0.1884,0.1817,0.148,0.121,0.1076,0.0,0.0,0.0,0.0,0.1078,0.1079,0.1079,0.1012,0.0742,0.0337,0.0,0.0,0.0,0.0,0.0,0.0,0.0,0.5059,0.0,0.0,0.6102,0.6588,0.7163,0.7952,0.9441,1.0251,1.0956,0.0,1.3679,1.5141,1.5891,0.0,0.0,0.0,0.0,2.1547,2.1891,2.2774,2.3431,2.356,2.3852,2.4008,2.4112,2.4112,2.3949,2.3631,2.3605,2.3489,2.3373,2.2439,2.1692,0.0,0.0,0.0,0.0,0.0,0.0,0.0,0.0,0.0,0.0,0.0,0.0,0.0,0.0,0.0,0.0,0.0,0.0,0.0,0.0,0.0,0.0,0.0,0.0,0.0,0.0,0.0,0.0,-0.1681,-0.1614,-0.1344,-0.0807,-0.0134,0.0,0.0,0.0,0.0,0.0,0.0,0.3226,0.3226,0.3159,0.3092,0.3159,0.3092,0.296,0.3046,0.3057,0.2922,0.2942,0.2814,0.2539,0.2539,0.247,0.2199,0.1786,0.1649,0.1578,0.1217,0.108,0.1087,0.1087,0.1092,0.1099,0.1101,0.1102,0.1102,0.1102,0.0964,0.0757,0.0206,0.0,0.0,0.0,0.0,0.0,0.0,0.0,0.4986,0.5096,0.5303,0.5525,0.606,0.6501,0.7229,0.9066,0.9647,1.0313,0.0,1.3699,1.516,1.5869,0.0,0.0,0.0,0.0,2.2051,2.2237,2.3005,2.3628,2.3819,2.3819,2.3878,2.3936,2.3995,2.3936,2.3819,2.3819,2.3641,2.3318,2.2604,2.1779,2.0771,0.0,0.0,0.0,0.0,0.0,0.0,0.0,0.0,0.0,0.0,0.0,0.0,0.0,0.0,0.0,0.0,0.0,0.0,0.0,0.0,0.0,0.0,0.0,0.0,0.0,0.0,0.0,0.0,0.0,-0.1345,-0.1143,0.0,0.0,0.0,0.0,0.2619,0.2753,0.2889,0.3159,0.3226,0.3025,0.2753,0.3023,0.2891,0.2288,0.2553,0.2586,0.224,0.2221,0.2247,0.2247,0.2247,0.2247,0.2174,0.1814,0.1671,0.1664,0.1237,0.1093,0.1119,0.1119,0.1065,0.1089,0.1089,0.1089,0.1089,0.1089,0.0653,0.0073,0.0,0.0,0.0,0.0,0.0075,0.0,0.0,0.4145,0.4949,0.4904,0.5087,0.5261,0.539,0.5641,0.6343,0.8303,0.9241,1.0075,0.0,1.3468,1.5044,1.5205,0.0,1.9562,1.8931,2.0707,2.1928,2.1502,2.258,2.3463,2.3628,2.3628,2.3628,2.3628,2.3628,2.3628,2.3628,2.3628,2.3245,2.2494,2.1655,2.0771,1.9901,1.8345,0.0,0.0,0.0,0.0,0.0,0.0,0.0,0.0,0.0,0.0,0.0,0.0,0.0,0.0,0.0,0.0,0.0,0.0,0.0,0.0,0.0,0.0,0.0,0.0,0.0,0.0,0.0,0.0,-0.1547,-0.0874,0.0,0.0336,0.121,0.1951,0.2354,0.2354,0.2421,0.2555,0.2555,0.2509,0.2415,0.2487,0.2438,0.2195,0.2286,0.2297,0.2227,0.2174,0.211,0.1895,0.1895,0.1748,0.153,0.1458,0.1385,0.131,0.1143,0.1069,0.1078,0.1078,0.094,0.0729,0.1021,0.1093,0.1021,0.0583,-0.0146,-0.0804,-0.0817,-0.0598,-0.0375,-0.0384,-0.0232,0.031,0.1934,0.3639,0.5027,0.4977,0.5112,0.5272,0.5319,0.5484,0.603,0.76,0.8523,0.9381,1.0694,1.3177,1.5183,1.5506,1.7222,1.8674,1.8808,1.9824,2.073,2.1135,2.2002,2.2811,2.339,2.345,2.3509,2.3569,2.3628,2.3569,2.345,2.345,2.3258,2.2884,2.1741,2.0858,2.0344,1.8402,1.6982,0.0,0.0,0.0,0.0,0.0,0.0,0.0,0.0,0.0,0.0,0.0,0.0,0.0,0.0,0.0,0.0,0.0,0.0,0.0,0.0,0.0,0.0,0.0,0.0,0.0,0.0,-0.2018,-0.1681,-0.0941,-0.0269,0.0067,0.1008,0.1681,0.1951,0.2036,0.2048,0.2184,0.2203,0.2162,0.206,0.2132,0.2076,0.1892,0.1983,0.1991,0.1844,0.186,0.1794,0.1572,0.1572,0.1422,0.1197,0.1197,0.1197,0.1122,0.0973,0.1047,0.1196,0.1111,0.0965,0.0748,0.0748,0.0523,0.0224,-0.0299,-0.0748,-0.1125,-0.1221,-0.1074,-0.0846,-0.086,-0.0629,-0.0079,0.149,0.2902,0.4081,0.4787,0.5093,0.5168,0.5168,0.5323,0.5786,0.6927,0.799,0.8978,1.011,1.2625,1.4752,1.5226,1.6576,1.7784,1.8539,1.9187,1.9901,2.0677,2.1491,2.2249,2.2884,2.3138,2.333,2.3437,2.3509,2.345,2.333,2.3343,2.321,2.2689,2.1616,2.0794,2.0279,1.792,1.6219,1.5171,0.0,0.0,0.0,0.0,0.0,0.0,0.0,0.0,0.0,0.0,0.0,0.0,0.0,0.0,0.0,0.0,0.0,0.0,0.0,0.0,0.0,0.0,0.0,-0.2018,-0.2087,-0.2085,-0.1681,-0.1413,-0.101,-0.0404,0.0067,0.0674,0.1551,0.1659,0.1825,0.2177,0.2155,0.204,0.1679,0.1968,0.1823,0.1242,0.1499,0.1516,0.1213,0.1243,0.1335,0.1335,0.1335,0.1335,0.1335,0.1257,0.1257,0.1257,0.0786,0.0864,0.1254,0.1148,0.1154,0.1178,0.0314,-0.055,-0.1335,-0.1335,-0.1021,-0.0707,-0.1178,-0.1335,-0.1335,-0.1335,-0.1335,-0.0864,0.1176,0.1803,0.2352,0.4399,0.4945,0.4937,0.494,0.5168,0.5473,0.6311,0.7609,0.8908,0.9664,1.1742,1.3593,1.4386,1.5649,1.6922,1.8056,1.8854,0.0,2.0031,2.1123,2.1877,2.2039,2.2689,2.3078,2.3078,2.3271,2.333,2.3138,2.3271,2.2957,2.1939,2.1215,2.0386,1.9473,1.6757,1.4522,1.29,0.0,0.0,0.0,0.0,0.0,0.0,0.0,0.0,0.0,0.0,0.0,0.0,0.0,0.0,0.0,0.0,0.0,0.0,0.0,0.0,0.0,0.0,-0.2824,-0.222,-0.2154,-0.2154,-0.2018,-0.1644,-0.1108,-0.0485,-0.007,0.0499,0.1284,0.1293,0.137,0.1442,0.1452,0.1396,0.1349,0.1424,0.1437,0.1309,0.1396,0.14,0.1245,0.1254,0.1335,0.1335,0.1335,0.1335,0.1257,0.0943,0.1021,0.1257,0.1178,0.1178,0.1335,0.1248,0.0859,0.0314,0.0079,-0.055,-0.1335,-0.1335,-0.1178,-0.11,-0.1257,-0.1335,-0.1335,-0.1335,-0.1335,-0.1178,-0.0549,0.0314,0.1411,0.2824,0.337,0.3759,0.4384,0.4698,0.4929,0.5312,0.6769,0.8219,0.868,1.0415,1.2131,1.3513,1.495,1.6228,1.6922,1.7687,0.0,1.9375,1.9824,2.0526,2.1803,2.2125,2.2445,2.3078,2.3138,2.3138,2.3078,2.309,2.2909,2.2653,2.1353,1.9433,1.6817,1.5226,1.3818,0.0,0.0,0.0,0.0,0.0,0.0,0.0,0.0,0.0,0.0,0.0,0.0,0.0,0.0,0.0,0.0,0.0,0.0,0.0,0.0,0.0,0.0,-0.3588,-0.3407,-0.2853,-0.2758,-0.2671,-0.2671,-0.2452,-0.1992,-0.1209,-0.1082,-0.0655,0.0364,0.0515,0.0592,0.0815,0.1123,0.1213,0.123,0.123,0.1239,0.1335,0.1335,0.1335,0.1335,0.1335,0.1178,0.1021,0.1021,0.11,0.1257,0.0628,-0.0471,-0.1727,-0.0157,0.0078,0.0,0.0,0.0,0.0,0.0,-0.188,-0.2588,-0.2119,-0.2118,-0.2195,-0.1492,-0.1492,-0.1727,-0.1414,-0.1335,-0.1335,-0.1335,-0.0706,0.0078,0.0706,0.1488,0.2349,0.3368,0.3915,0.4302,0.4774,0.6157,0.7456,0.7995,0.9437,0.0,1.2204,1.3578,1.4871,1.5781,1.6428,1.7198,1.8142,1.8757,1.9475,2.0568,2.1279,2.1854,2.2286,2.2763,0.0,0.0,0.0,2.2592,2.1815,2.03,0.0,0.0,0.0,1.3528,1.2452,1.2452,0.0,0.0,1.1851,1.1249,0.0,0.0,0.0,0.0,0.0,0.0,0.0,0.0,0.0,0.0,0.0,0.0,0.0,0.0,0.0,0.0,-0.4367,-0.4147,-0.3853,-0.3648,-0.3532,-0.3449,-0.3526,-0.3214,-0.2265,-0.2561,-0.2272,-0.0955,-0.0674,-0.0379,0.0,0.0,0.0,0.0,0.0,0.0942,0.0942,0.0942,0.0942,0.0942,0.0942,0.0707,0.0314,0.0235,0.0392,0.0785,-0.0,-0.2512,-0.5764,-0.2592,-0.2115,-0.3597,-0.5286,-0.6094,-0.6081,-0.4151,-0.391,-0.4465,-0.345,0.0,0.0,-0.204,-0.2041,-0.251,-0.1805,-0.1492,-0.1414,-0.1414,-0.1335,-0.1257,-0.1178,-0.0235,0.1019,0.2117,0.2818,0.3439,0.4307,0.5464,0.6538,0.7456,0.8599,0.9669,1.0657,1.1983,1.3295,1.4506,1.5163,1.5807,1.6567,1.7658,1.8536,1.8926,0.0,0.0,2.1244,2.2249,2.28,2.2629,2.2665,2.1877,2.0204,1.8572,1.6867,1.5234,1.4299,1.3295,1.2305,1.2305,1.2305,1.2305,1.2077,1.1484,0.0,0.0,0.0,0.0,0.0,0.0,0.0,0.0,0.0,0.0,0.0,0.0,0.0,0.0,0.0,-0.6044,-0.5636,-0.5294,-0.5222,-0.4787,-0.4286,-0.3619,-0.362,-0.3373,-0.2622,-0.2746,-0.2469,-0.1697,-0.1626,-0.1553,-0.1476,-0.1327,-0.1251,-0.1251,-0.1251,-0.1251,-0.1251,-0.1251,-0.1251,-0.1251,0.0,0.0,-0.1251,-0.2032,-0.2344,-0.2266,-0.2422,-0.3207,-0.4309,-0.4945,-0.5422,-0.5575,-0.4231,-0.4787,-0.6224,-0.5817,-0.5254,-0.4543,-0.4387,-0.407,-0.3752,-0.3443,-0.3443,-0.3521,-0.3363,-0.282,0.0,-0.2276,-0.1805,-0.11,-0.047,-0.0078,0.0392,0.1332,0.1723,0.2193,0.2974,0.4137,0.5372,0.63,0.7375,0.8295,0.8832,1.1001,1.2785,1.3222,1.3867,1.4728,1.5807,1.6158,1.6904,1.8603,1.9585,2.0364,2.1078,2.1889,2.2309,2.2321,2.1616,2.0504,1.889,1.721,1.5896,1.4966,1.3455,1.2519,1.2305,1.2305,1.2305,1.2305,1.2077,1.1929,0.0,0.0,0.0,0.0,0.0,0.0,0.0,0.0,0.0,0.0,0.0,-0.7897,0.0,0.0,-0.7577,-0.7577,-0.7143,-0.6685,-0.6318,-0.6013,-0.5478,-0.4311,-0.4322,-0.4155,-0.3613,-0.373,-0.36,-0.2896,-0.2737,-0.2579,-0.2347,-0.2347,-0.2425,-0.2582,-0.3368,-0.3862,-0.3987,-0.3987,-0.401,-0.3976,-0.3895,-0.3976,-0.4221,-0.471,-0.4872,-0.4872,-0.438,-0.462,-0.535,-0.6327,-0.6495,-0.6167,-0.5502,-0.5674,-0.6295,-0.652,-0.6218,-0.5662,-0.5485,-0.5505,-0.55,-0.461,-0.4532,-0.4695,-0.429,-0.3808,-0.332,-0.328,-0.295,-0.2545,-0.2118,-0.1955,-0.1641,-0.0469,0.0078,0.0704,0.1957,0.2812,0.3665,0.5057,0.5906,0.6754,0.7766,0.9286,1.0691,1.1409,1.2558,1.365,1.4744,1.518,1.5956,1.7335,1.867,1.9585,2.0041,2.0846,2.1388,2.1388,2.0322,1.9278,1.8422,1.6471,1.5226,1.4752,1.3171,1.2305,1.2305,1.2305,1.2077,1.1706,1.1632,1.1706,0.0,0.0,0.0,0.0,0.0,0.0,0.0,0.0,-0.8377,-0.8781,-0.8857,-0.9014,-0.934,-0.913,-0.8955,-0.8955,-0.8581,-0.8084,-0.7399,-0.7169,-0.6736,-0.5554,-0.5263,-0.5015,-0.4696,-0.4935,-0.4859,-0.4231,-0.3912,-0.3675,-0.3365,-0.3365,-0.3522,-0.3759,-0.4967,-0.5753,-0.6018,-0.6047,-0.6119,-0.6062,-0.6142,-0.6315,-0.6656,-0.6659,-0.6739,-0.6739,-0.5969,-0.613,-0.6964,-0.7116,-0.6861,-0.6526,-0.7116,-0.713,-0.6763,-0.6882,-0.6929,-0.6862,-0.6569,-0.6864,-0.7199,-0.5853,-0.569,-0.6028,-0.5358,-0.4858,-0.4594,-0.4426,-0.432,-0.4221,-0.4223,-0.4121,-0.3722,-0.2533,-0.1742,-0.095,0.0555,0.1269,0.198,0.3555,0.4263,0.5126,0.6464,0.7359,0.8339,0.9856,1.1208,1.2438,1.3564,1.4452,1.525,1.6119,1.776,1.8914,1.9261,2.0129,2.0542,2.027,1.9142,1.8152,1.7658,1.5728,1.4609,1.4314,1.2872,1.2077,1.1922,1.1922,1.1552,1.0732,1.0732,1.1105,-0.618,-0.7518,-0.8304,-0.8042,-0.8263,-0.8559,0.0,0.0,-0.8781,-0.9403,-0.9518,-0.9583,-0.9798,-0.9788,-0.9804,-0.9804,-0.9291,-0.8846,-0.877,-0.8313,-0.7923,-0.7744,-0.6468,-0.5482,-0.5482,-0.5482,-0.5482,-0.5404,-0.5401,-0.5323,-0.5323,-0.5323,-0.5323,-0.5323,-0.5671,-0.5901,-0.5913,-0.6037,-0.6108,-0.6124,-0.6284,-0.6363,-0.645,-0.6619,-0.6871,-0.7033,-0.7116,-0.7202,-0.7368,-0.7368,-0.7364,-0.7281,-0.7368,-0.7831,-0.8444,-0.7659,-0.7342,-0.7342,-0.7278,-0.7285,-0.7368,-0.7199,-0.7199,-0.7199,-0.7116,-0.6526,-0.5936,-0.5921,-0.5416,-0.4829,-0.4816,-0.4811,-0.4729,-0.4561,-0.3652,-0.2575,-0.1743,-0.0499,0.0666,0.1663,0.2658,0.3488,0.3904,0.5314,0.716,0.938,0.9989,1.0754,1.2582,1.3436,1.4359,1.5734,1.7151,1.8619,2.0203,2.0629,2.0315,1.9132,1.8584,1.7413,1.5613,1.4617,1.3745,1.3084,1.2218,1.1403,1.0714,1.0714,1.0265,0.9523,0.9523,1.0051,-0.795,-0.8713,-0.9032,0.0,-0.9333,-0.9801,-0.9879,-1.0193,-1.0574,-1.1046,-1.1138,-1.1181,-1.1162,-1.1111,-1.1037,0.0,-1.0357,-1.0056,-0.9609,-0.9306,-0.9003,-0.847,-0.7859,-0.7092,-0.6405,-0.6328,-0.6328,-0.6328,-0.6328,-0.6556,-0.7015,-0.7092,-0.7165,-0.7391,-0.7634,-0.7932,-0.8197,-0.8465,-0.8619,-0.873,-0.8811,-0.8811,-0.8811,-0.89,-0.9074,-0.9155,-0.9244,-0.9333,-0.9503,-0.9503,-0.9592,-0.9682,-0.9682,-0.9931,-1.0085,-0.8383,-0.8426,-0.9266,-0.8967,-0.8841,-0.8841,-0.8841,-0.8414,-0.7905,-0.7905,-0.7558,-0.7193,-0.7013,-0.6729,-0.6454,-0.6539,-0.6436,-0.6271,-0.593,-0.5349,-0.4682,-0.3845,-0.2762,-0.1676,-0.0669,0.0502,0.1677,0.2935,0.3976,0.5262,0.7383,0.8582,0.9862,1.1473,1.2428,1.3839,1.6068,1.7349,1.8616,1.9848,1.9687,1.9312,1.9118,1.8021,1.6819,1.551,1.4765,1.3859,1.2938,1.1996,1.1329,1.1025,1.0565,0.989,0.8912,0.8689,0.8613,-0.967,0.0,0.0,-1.0182,-1.0592,-1.1004,-1.1205,-1.1539,-1.1977,-1.2352,-1.2498,-1.2432,-1.2439,-1.2439,-1.2291,-1.1983,-1.1909,-1.1687,-1.1093,-1.1019,-1.0789,-1.026,-0.9965,-0.9437,-0.8367,-0.777,-0.7472,-0.7548,-0.7548,-0.7855,-0.8385,-0.8516,-0.8693,-0.8995,-0.9257,-0.9626,-1.0029,-1.0335,-1.0534,-1.0611,-1.0611,-1.0611,-1.0611,-1.0697,-1.0778,-1.0783,-1.0956,-1.1128,-1.13,-1.13,-1.1391,-1.1488,-1.1488,-1.166,-1.1638,-0.9767,-0.9885,-1.0831,-1.0408,-1.0289,-1.0289,-1.0289,-0.9763,-0.9148,-0.9148,-0.9065,-0.9035,-0.8893,-0.8854,-0.8819,-0.8853,-0.8576,-0.8162,-0.7727,-0.7052,-0.6298,-0.5698,-0.4683,-0.3666,-0.298,-0.162,-0.0171,0.1279,0.2334,0.3493,0.5055,0.6515,0.8209,1.0125,1.1688,1.3614,1.637,1.76,1.8583,1.9487,1.902,1.8676,1.8908,1.7304,1.5994,1.5127,1.4358,1.3457,1.2337,1.1596,1.1033,1.0501,0.989,0.8983,0.7842,0.7544,0.7165,0.0,0.0,-1.2098,-1.1736,-1.1957,-1.2258,-1.2265,-1.2271,-1.2425,-1.282,-1.2893,-1.2966,-1.339,-1.3462,-1.3528,-1.3867,-1.3932,-1.3932,-1.386,-1.386,-1.386,-1.386,-1.3215,-1.2485,0.0,-0.9954,-0.8998,-0.9221,-0.9221,-0.9226,-0.9296,-0.9498,-0.9693,-0.9693,-1.0111,-1.034,-1.0345,-1.0489,-1.06,-1.0611,-1.0611,-1.0611,-1.0611,-1.1042,-1.13,-1.13,-1.1729,-1.1986,-1.1986,-1.1986,-1.1986,-1.1986,-1.1986,-1.2504,-1.319,-1.2237,-1.1643,-1.1316,-1.1235,-1.1235,-1.1235,-1.1235,-1.1402,-1.1558,-1.1558,-1.1729,-1.1901,-1.1889,-1.1889,-1.1889,-1.1878,-1.1203,-1.0529,-1.0443,-0.8773,-0.7109,-0.7369,-0.6133,-0.4987,-0.5156,-0.3466,-0.2045,-0.1957,0.0178,0.2144,0.2852,0.3568,0.5255,0.8519,1.1359,1.3911,1.6413,1.7624,1.8665,1.9562,1.9189,1.865,1.819,1.6434,1.4857,1.3546,1.2824,1.1994,1.0979,1.0901,0.9993,0.8232,0.8156,0.7318,0.5715,0.5715,0.5637,-1.3142,0.0,-1.3426,-1.3281,-1.365,-1.4027,-1.4027,-1.4307,-1.4673,-1.4832,-1.4832,-1.4689,-1.4122,-1.4258,-1.425,-1.3738,-1.3875,-1.4004,-1.4004,-1.4004,-1.4004,-1.4004,-1.3795,0.0,0.0,0.0,0.0,-1.0914,-1.159,-1.2224,-1.277,-1.3126,-1.3431,-1.3733,-1.4136,-1.4422,-1.4736,-1.49,-1.5065,-1.5065,-1.5065,-1.474,-1.4169,-1.4913,-1.5238,-1.5321,-1.5411,-1.5493,-1.5493,-1.5493,-1.5493,-1.5493,-1.5493,-1.5674,-1.5928,-1.5666,-1.5418,-1.5004,-1.3269,-1.2687,-1.2687,-1.2687,-1.2339,-1.1901,-1.1901,-1.1986,-1.1986,-1.1986,-1.1986,-1.1986,-1.1986,-1.1729,-1.1563,-1.1563,-1.0443,-0.9405,-0.9579,-0.8173,-0.6854,-0.6763,-0.5692,-0.436,-0.3027,-0.2136,-0.0623,0.2138,0.4279,0.6233,0.7986,1.0245,1.2486,1.4511,1.6257,1.7342,1.7666,1.7637,1.7481,1.6992,1.6002,1.4962,1.4024,1.3198,1.2432,1.1556,1.0667,0.9839,0.8975,0.8223,0.7242,0.6015,0.5553,0.5246,-1.468,-1.4665,-1.4665,-1.4871,-1.5242,-1.5534,-1.5737,-1.6088,-1.6376,-1.6376,-1.6376,-1.6237,-1.5737,-1.5807,-1.5869,-1.5359,-1.5601,-1.5848,-1.5773,-1.5929,-1.6086,-1.621,-1.5732,-1.5677,0.0,0.0,0.0,-1.3227,-1.3938,-1.4592,-1.5083,-1.5549,-1.5963,-1.6195,-1.6474,-1.682,-1.705,-1.7218,-1.7342,-1.7342,-1.7342,-1.7009,-1.6593,-1.7245,-1.7568,-1.7658,-1.773,-1.773,-1.773,-1.773,-1.773,-1.773,-1.773,-1.7738,-1.7658,-1.7658,-1.7577,-1.7253,-1.5433,-1.4775,-1.4775,-1.4775,-1.442,-1.3995,-1.3672,-1.3587,-1.3587,-1.3269,-1.3184,-1.3184,-1.3184,-1.3014,-1.276,-1.276,-1.1992,-1.123,-1.1316,-1.0009,-0.8877,-0.9122,-0.7899,-0.6404,-0.5502,-0.4444,-0.2581,0.0535,0.3115,0.5331,0.7267,0.9378,1.1289,1.3146,1.4754,1.5854,1.6175,1.6191,1.6034,1.5779,1.4699,1.3864,1.3513,1.2147,1.12,1.0658,0.9531,0.867,0.8124,0.7398,0.6314,0.5076,0.4691,0.4224,-1.6193,-1.6114,-1.6105,-1.6603,-1.6742,-1.6872,-1.7404,-1.7541,-1.7472,-1.7472,-1.7472,-1.7609,0.0,0.0,-1.8172,-1.8432,-1.893,-1.9198,-1.9029,-1.9417,-1.9891,0.0,0.0,0.0,0.0,0.0,0.0,-1.6234,0.0,-1.6269,-1.6269,-1.6763,-1.7033,-1.7033,-1.7313,-1.7423,-1.7504,-1.7504,-1.7423,-1.7415,-1.7496,-1.7649,-1.7794,-1.8115,-1.8355,-1.8603,-1.8753,-1.8824,-1.8824,-1.8824,-1.8824,-1.8824,-1.8824,-1.8683,-1.8532,-1.8532,-1.8461,-1.8149,-1.773,-1.7496,-1.7334,-1.7342,-1.7496,-1.7585,-1.6796,-1.6624,-1.6617,-1.5748,-1.5506,-1.5506,-1.5506,-1.4908,-1.4223,-1.43,-1.3353,-1.2577,-1.2838,-1.1735,-1.1144,-1.2157,-0.9995,-0.8265,-0.9126,-0.6747,-0.4014,-0.1878,0.0089,0.2666,0.638,0.8591,1.0509,1.2269,1.3315,1.4253,1.5065,1.4844,1.4615,1.4531,1.2753,1.174,1.1837,0.9653,0.8442,0.8442,0.7666,0.6767,0.5755,0.5614,0.4688,0.3132,0.3054,0.2582,-1.8208,-1.8412,-1.8536,-1.8422,-1.8556,-1.8803,-1.8936,-1.8936,-1.887,-1.8623,-1.8566,-1.8499,0.0,0.0,0.0,-1.8546,-1.9039,0.0,-1.9365,-1.98,0.0,-2.03,0.0,-2.0479,-2.0928,-2.0762,0.0,0.0,-1.9288,-1.8464,-1.8464,-1.8916,-1.9215,-1.945,-1.9474,-1.9608,-1.9756,-1.9756,-1.9511,-1.9036,-2.0246,-2.0623,-2.0227,-2.1521,-2.2136,-2.2211,-2.2211,-2.2285,-2.2285,-2.2285,-2.2285,-2.2285,-2.2285,-2.1845,-2.141,-2.1996,-2.1769,-2.1334,-2.1759,-2.0139,-1.7827,-1.798,-1.806,-1.8132,-1.8052,-1.7971,-1.7819,-1.7585,-1.7423,-1.7359,-1.7359,-1.678,-1.6453,-1.7082,-1.6144,-1.4982,-1.4906,-1.4058,-1.3218,-1.2917,-1.1552,-1.0255,-0.9817,-0.7716,-0.5614,-0.4117,-0.1875,0.0624,0.3563,0.6665,0.9039,1.0129,1.2207,1.3432,1.3334,1.4035,1.3782,1.2066,1.1826,1.1037,0.9702,0.8582,0.7778,0.7462,0.6625,0.5995,0.5465,0.493,0.4135,0.3054,0.2349,0.188,-1.9228,-1.941,-1.9541,-1.9552,-1.9738,-1.9933,-2.0204,-2.0279,-2.0215,-2.0031,-1.9977,0.0,-1.9738,-1.9998,0.0,0.0,0.0,0.0,-2.144,-2.1878,-2.2414,0.0,-2.2662,0.0,-2.3093,-2.2655,-2.2336,0.0,-2.1432,-2.0772,-2.0772,-2.109,-2.1375,-2.1603,-2.1593,-2.1603,-2.1745,-2.1821,-2.1659,-2.1181,-2.2167,-2.2542,-2.2307,-2.3209,-2.3672,-2.3734,-2.3734,-2.3734,-2.3734,-2.3734,-2.3734,-2.3734,-2.3734,-2.3452,-2.3084,-2.3452,-2.3305,-2.2936,-2.3368,-2.2136,-2.0449,-2.0526,-2.0382,-2.009,-1.9769,-1.9395,-1.8939,-1.8452,-1.8221,-1.8149,-1.8149,-1.7827,-1.7747,-1.8292,-1.7785,-1.7114,-1.696,-1.5957,-1.4636,-1.3341,-1.2923,-1.2316,-1.0849,-0.9287,-0.7716,-0.6065,-0.3655,-0.1159,0.1071,0.4712,0.7544,0.8665,1.0413,1.1643,1.1912,1.1986,1.1547,1.0438,1.0197,0.9758,0.896,0.6926,0.5775,0.5684,0.4872,0.4353,0.3932,0.3838,0.3125,0.1721,0.1567,0.1019,-1.9964,-2.0106,-2.0171,-2.0579,-2.0707,-2.091,-2.1388,-2.1526,-2.1526,-2.1463,0.0,-2.1588,-2.1939,-2.2123,-2.2259,-2.2604,0.0,-2.3716,-2.404,-2.4583,-2.5293,-2.6128,-2.5344,-2.4873,-2.5332,-2.4374,-2.3661,-2.3661,-2.3419,-2.3125,-2.2702,-2.2947,-2.3084,-2.322,-2.322,-2.322,-2.322,-2.3441,-2.3441,-2.3294,-2.3588,-2.3818,-2.4036,-2.4108,-2.4253,-2.4409,-2.4409,-2.4409,-2.4409,-2.4409,-2.4409,-2.4409,-2.4409,-2.4253,-2.4036,-2.4241,-2.4085,-2.3868,-2.4074,-2.4135,-2.4062,-2.3661,-2.3084,-2.2424,-2.1704,-2.1028,-2.0187,-1.9158,-1.8841,-1.8841,-1.8841,-1.8762,-1.8762,-1.907,-1.9061,-1.8991,-1.8833,-1.7527,-1.589,-1.4183,-1.4525,-1.435,-1.2231,-1.0935,-0.9543,-0.7457,-0.4984,-0.2765,-0.1071,0.2845,0.6042,0.7358,0.8515,0.9584,1.0366,0.957,0.8956,0.9052,0.8193,0.7944,0.8308,0.5001,0.3217,0.3298,0.266,0.2182,0.184,0.2324,0.1646,-0.0078,0.0549,0.0078,-2.1788,-2.2396,-2.2822,-2.264,-2.2834,-2.3075,-2.3148,-2.316,0.0,0.0,-2.2786,-2.2725,-2.2543,-2.3084,-2.3492,-2.309,0.0,0.0,0.0,0.0,-2.644,0.0,0.0,0.0,0.0,-2.7285,0.0,0.0,-2.7072,-2.5877,-2.3209,-2.3294,-2.3452,-2.3452,-2.3441,-2.3441,-2.3441,-2.3514,-2.3599,-2.3661,-2.442,-2.4862,-2.5087,-2.5734,-2.6025,-2.6082,-2.6082,0.0,-2.6082,-2.6082,-2.6082,-2.6082,-2.6082,-2.5652,-2.5217,-2.6433,-2.6408,-2.597,-2.7193,-2.7657,-2.718,-2.4565,-2.3672,-2.3526,-2.3588,-2.3356,-2.2988,-2.2178,-2.18,-2.1659,-2.1659,-2.1247,-2.1084,-2.179,-2.1552,-2.0921,-2.011,-1.9158,-1.8123,-1.7098,-1.6764,-1.5838,-1.3406,-1.1781,-1.0062,-0.7727,-0.5706,-0.3751,-0.1875,0.1958,0.49,0.5706,0.7822,0.8794,0.7826,0.8607,0.8337,0.6498,0.6048,0.5435,0.4748,0.3314,0.1954,0.0785,0.0596,0.0499,0.0327,0.0159,-0.0157,-0.0548,-0.1099,-0.1492,-2.3022,-2.3669,-2.4021,-2.3669,-2.3846,-2.4021,-2.3859,0.0,0.0,0.0,-2.3386,-2.3386,-2.3446,0.0,0.0,0.0,0.0,0.0,0.0,0.0,0.0,0.0,0.0,0.0,0.0,-2.8182,-2.7986,-2.7986,-2.8051,-2.7419,-2.5807,-2.5889,-2.5763,-2.5438,-2.5889,-2.5877,-2.5438,-2.5889,-2.6083,-2.6096,-2.6599,-2.6896,-2.6976,-2.7324,-2.7537,-2.7537,-2.7537,-2.7537,-2.7537,-2.7537,-2.7537,-2.7537,-2.7537,-2.7324,-2.7043,-2.7776,-2.7762,-2.7551,-2.822,-2.8492,-2.822,-2.6777,-2.575,-2.5075,-2.4767,-2.4337,-2.3891,-2.3379,-2.3231,-2.3158,-2.3158,-2.2925,-2.2765,-2.3305,-2.2861,-2.2113,-2.1171,-2.0343,-1.9502,-1.8718,-1.7989,-1.6993,-1.5493,-1.3646,-1.1701,-0.973,-0.7811,-0.5695,-0.3387,-0.0267,0.2666,0.5255,0.6231,0.6851,0.7295,0.6669,0.6051,0.5356,0.4374,0.3396,0.2417,0.0974,-0.0088,-0.0782,-0.0839,-0.0902,-0.0974,-0.1187,-0.1485,-0.1879,-0.2347,-0.2738,-2.3847,-2.4376,-2.4768,-2.4483,-2.4597,-2.4711,-2.4496,-2.4381,0.0,0.0,-2.4047,-2.4118,-2.458,0.0,-2.5202,0.0,-2.6687,0.0,0.0,0.0,0.0,0.0,0.0,0.0,0.0,-2.8776,0.0,-2.857,-2.8634,-2.857,-2.8117,-2.8247,-2.8051,-2.7484,-2.8117,-2.8182,-2.7484,-2.8182,-2.8427,-2.8233,-2.8427,-2.8492,-2.8492,-2.8492,-2.8492,-2.8492,-2.8492,-2.8492,-2.8492,-2.8492,-2.8492,-2.8492,-2.8492,-2.8492,-2.8492,-2.8698,-2.8762,-2.8762,-2.8889,-2.8953,-2.8953,-2.8762,-2.7815,-2.6667,-2.6171,-2.5463,-2.4743,-2.4457,-2.4241,-2.412,-2.412,-2.412,-2.4192,-2.4397,-2.3841,-2.3043,-2.2456,-2.1649,-2.0837,-2.0032,-1.9088,-1.8221,-1.7317,-1.5328,-1.3328,-1.1718,-0.9634,-0.7278,-0.4721,-0.2402,0.0533,0.4448,0.455,0.4819,0.6139,0.4461,0.3487,0.3933,0.2597,0.1431,0.0622,-0.105,-0.2161,-0.2569,-0.2642,-0.2667,-0.2574,-0.2676,-0.3119,-0.3828,-0.3891,-0.4353,-2.4082,-2.4943,-2.577,-2.5715,-2.577,-2.577,-2.5715,0.0,0.0,-2.566,-2.5467,-2.5425,-2.5729,-2.6176,0.0,0.0,0.0,-2.8446,0.0,0.0,0.0,0.0,0.0,0.0,-3.0447,-3.0372,-3.0372,-3.0372,-3.0372,-2.9794,-2.8492,-2.8492,-2.8427,-2.8363,-2.8427,-2.8427,-2.8363,-2.8427,-2.8492,-2.8492,-2.8492,-2.8492,-2.8492,-2.8492,-2.8492,-2.8492,-2.8492,-2.8492,0.0,-2.8492,-2.8492,-2.8492,-2.8492,-2.8492,-2.8556,-2.9219,-2.9484,-2.9608,-3.019,-3.0433,-3.0312,-2.9685,-2.8953,-2.8298,-2.822,-2.771,-2.7043,-2.6271,-2.5603,-2.5158,-2.5158,-2.5158,-2.5229,-2.5417,-2.4696,-2.4047,-2.4108,-2.3559,-2.282,-2.192,-2.0787,-1.9552,-1.8106,-1.5801,-1.3814,-1.2383,-0.9885,-0.7281,-0.49,-0.3032,-0.0893,0.1878,0.3484,0.3753,0.2413,0.2502,0.1966,0.0536,0.009,-0.0355,-0.087,-0.217,-0.3661,-0.5395,-0.5448,-0.5368,-0.5237,-0.5223,-0.56,-0.6213,-0.6353,-0.6801,-2.4836,-2.5682,-2.6394,-2.6204,-2.6272,-2.6394,-2.6204,0.0,-2.5948,-2.5893,-2.5798,-2.5743,-2.5893,-2.6104,-2.6553,0.0,0.0,0.0,-2.9717,0.0,0.0,0.0,0.0,0.0,0.0,0.0,-3.0568,-3.0568,-3.0568,-3.0372,-2.9794,-2.9794,-2.9594,-2.9156,-2.9532,-2.9594,-2.9156,-2.9532,-2.9794,-2.9794,-2.9794,-2.9794,-2.9794,-2.9794,-2.9794,-2.9794,-2.9794,-2.9794,0.0,-2.9794,-2.9794,-2.9794,-2.9794,-2.9794,-2.9794,-3.0054,-3.019,-3.0251,-3.0507,-3.0568,-3.0568,-3.0312,-2.9993,-2.9594,-2.8762,-2.8298,-2.8051,-2.7683,-2.7419,-2.7232,-2.7232,-2.7311,-2.7324,-2.7002,-2.6283,-2.5624,-2.531,-2.4684,-2.3891,-2.3051,-2.2146,-2.1008,-1.9543,-1.7446,-1.5231,-1.3212,-1.1273,-0.8865,-0.5708,-0.3924,-0.232,-0.0537,0.0984,0.1879,0.179,0.1074,0.0447,0.0,-0.0443,-0.0963,-0.1385,-0.2619,-0.4127,-0.5901,-0.5984,-0.6373,-0.7049,-0.7291,-0.7668,-0.8183,-0.9225,-0.982,-2.5619,-2.6367,-2.7049,-2.6849,-2.6893,-2.6922,0.0,0.0,-2.6443,-2.6365,-2.6365,-2.6365,-2.6326,-2.6326,-2.6737,0.0,0.0,-2.8814,-3.0147,0.0,0.0,0.0,0.0,-3.0747,0.0,-3.0568,-3.0568,-3.0568,-3.0568,-3.0568,-3.0568,-3.0747,-3.0493,-2.9931,-3.0326,-3.0387,-2.987,-3.0387,-3.0568,-3.0568,-3.0568,-3.0568,-3.0568,-3.0568,-3.0568,-3.0568,-3.0568,-3.0568,0.0,-3.0568,-3.0568,-3.0568,-3.0568,-3.0568,-3.0568,-3.0568,-3.0568,-3.0568,-3.0568,-3.0568,-3.0568,-3.0568,-3.0568,-3.0433,-2.9393,-2.8953,-2.8826,-2.8826,-2.8575,-2.8248,-2.8298,-2.8239,-2.813,-2.7749,-2.7379,-2.7065,-2.6627,-2.612,-2.5448,-2.4696,-2.3666,-2.2403,-2.1094,-1.8982,-1.6724,-1.4302,-1.2644,-1.0341,-0.659,-0.4812,-0.339,-0.1973,-0.0892,0.0,0.0716,-0.0534,-0.133,-0.1151,-0.1564,-0.2054,-0.2797,-0.3622,-0.4834,-0.6616,-0.6983,-0.7681,-0.8727,-0.9049,-0.9502,-1.0082,-1.1489,-1.2371,-2.6289,-2.7054,-2.7913,-2.7898,-2.766,-2.7401,0.0,0.0,-2.6967,-2.7335,-2.7458,-2.7479,-2.7386,-2.7401,-2.7454,-2.769,0.0,0.0,-2.9537,-3.0176,0.0,0.0,0.0,-3.1102,-3.0642,-3.0568,-3.0568,-3.0568,-3.0568,0.0,-3.0568,-3.1043,-3.1102,-3.0628,-3.0568,-3.0568,-3.0568,-3.0568,-3.0568,-3.0568,-3.0568,-3.0568,-3.0568,-3.0568,-3.0568,-3.0568,-3.0568,-3.0568,0.0,-3.0568,-3.0568,-3.0568,-3.0568,-3.0568,-3.0568,-3.0568,-3.0568,-3.0568,-3.0568,-3.0568,-3.0568,-3.0568,-3.0568,-3.0568,-3.0568,-3.0115,-2.9623,-2.9623,-2.8616,-2.7664,-2.7748,-2.7312,-2.6922,-2.7221,-2.7677,-2.8043,-2.8227,-2.8179,-2.7853,-2.718,-2.5469,-2.3754,-2.2488,-2.0382,-1.8035,-1.5644,-1.3723,-1.1252,-0.7537,-0.5609,-0.3838,-0.1973,-0.1761,-0.1666,-0.1792,-0.2459,-0.3205,-0.3902,-0.3736,-0.4231,-0.5592,-0.5411,-0.6136,-0.8012,-0.8841,-0.9679,-1.0438,-1.0513,-1.0962,-1.2003,-1.2917,-1.4212,-2.6363,-2.7241,-2.8143,-2.7947,-2.7815,-2.773,-2.773,0.0,-2.7615,-2.773,-2.7765,-2.768,-2.7437,-2.7401,-2.7454,-2.7675,-2.826,0.0,0.0,0.0,0.0,-3.1043,-3.0925,-3.0866,0.0,0.0,-3.0866,-3.1422,-3.1204,-3.1219,-3.148,-3.161,-3.1379,-3.0628,-3.0925,-3.0925,-3.0568,-3.0568,-3.0568,-3.0568,-3.0568,-3.0568,-3.0628,-3.0925,-3.1102,-3.1102,-3.1379,-3.148,-3.148,-3.1204,-3.1102,-3.1102,-3.1102,-3.0866,-3.0687,-3.1263,-3.1087,-3.0642,-3.0984,-3.0866,-3.0628,-3.0984,-3.1102,-3.1161,-3.1437,-3.0896,-3.0251,-3.0251,-3.0047,-2.9668,-2.9256,-2.9174,-2.8987,-2.8197,-2.8182,-2.8324,-2.7942,-2.7769,-2.7441,-2.6319,-2.5627,-2.4516,-2.1898,-2.043,-1.8602,-1.542,-1.3534,-1.1345,-0.8384,-0.6207,-0.4607,-0.3592,-0.2639,-0.1969,-0.1752,-0.2834,-0.3643,-0.3898,-0.4229,-0.4811,-0.5666,-0.5413,-0.6274,-0.847,-0.8912,-0.9965,-1.1706,-1.199,-1.3004,-1.4744,-1.5579,-1.6428,0.0,-2.7677,-2.8481,-2.8592,-2.8432,0.0,0.0,0.0,-2.811,-2.811,-2.8271,-2.8222,-2.786,-2.7825,-2.7795,-2.7787,-2.8355,0.0,0.0,0.0,0.0,-3.1679,0.0,0.0,0.0,-3.1379,-3.1321,-3.1879,-3.1667,-3.1667,-3.1879,-3.2104,-3.1807,-3.1087,-3.1379,-3.1379,-3.1087,-3.1087,-3.1029,-3.0881,-3.1029,-3.1029,-3.0866,-3.1321,-3.1495,-3.1552,-3.1766,-3.1879,0.0,-3.1452,-3.1394,-3.1495,-3.1336,-3.1219,-3.1146,-3.1709,-3.1537,-3.1146,-3.1437,-3.1321,-3.1146,-3.1437,-3.1495,-3.1552,-3.1823,-3.1537,-3.1029,-3.0687,-3.0631,-3.0586,-3.0059,-2.987,-2.9654,-2.8882,-2.8793,-2.8739,-2.8396,-2.8336,-2.7996,-2.6761,-2.6371,-2.5303,-2.2456,-2.1129,-1.937,-1.6229,-1.4093,-1.1897,-0.9261,-0.7148,-0.5593,-0.477,-0.3904,-0.3328,-0.3042,-0.3839,-0.4467,-0.4797,-0.5095,-0.5586,-0.6146,-0.5973,-0.6769,-0.8627,-0.9362,-1.0559,-1.2378,-1.3025,-1.4243,-1.6044,-1.6455,-1.7157,0.0,0.0,0.0,0.0,0.0,0.0,0.0,0.0,0.0,-2.8559,-2.8826,-2.8982,-2.8559,-2.8511,-2.8415,-2.7963,-2.849,0.0,0.0,-3.0517,0.0,0.0,-3.216,0.0,-3.2532,-3.216,-3.1936,-3.1992,-3.1992,-3.1992,-3.1992,-3.2437,-3.2437,-3.1992,-3.1992,-3.1992,-3.1879,-3.1879,-3.1709,-3.1336,-3.1709,-3.1709,-3.1336,-3.1766,-3.1936,0.0,-3.1992,-3.1992,-3.1992,-3.1552,-3.161,-3.1936,-3.1552,-3.161,-3.1936,-3.1992,-3.1936,-3.1879,-3.1936,-3.1936,-3.1936,-3.1977,-3.1977,-3.1992,-3.1992,-3.1977,-3.1766,-3.097,-3.0702,-3.0623,-3.0327,-2.9756,-2.9342,-2.9366,-2.935,-2.9385,-2.9472,-2.9489,-2.9238,-2.8238,-2.7365,-2.6062,-2.3863,-2.2286,-2.0404,-1.7752,-1.5239,-1.2687,-1.0253,-0.8346,-0.6815,-0.5744,-0.5473,-0.5405,-0.525,-0.517,-0.5491,-0.6211,-0.6318,-0.6475,-0.6861,-0.6927,-0.746,-0.8699,-1.0196,-1.1539,-1.2746,-1.376,-1.4911,-1.6044,-1.6114,-1.6811,-2.7292,0.0,-2.913,-2.9675,-2.9705,0.0,0.0,0.0,0.0,0.0,0.0,-2.8982,-2.8559,-2.8669,-2.8606,-2.7997,0.0,0.0,-2.9803,0.0,0.0,-3.2013,-3.1992,-3.2089,-3.2532,-3.216,-3.2216,-3.2904,-3.2656,-3.2602,-3.2958,-3.3081,-3.3065,-3.2958,-3.2958,-3.2617,-3.1936,-3.1879,-3.1879,-3.1766,-3.1879,-3.1823,-3.1766,-3.2216,-3.2437,-3.2437,-3.285,-3.2958,-3.2958,-3.2492,-3.2382,-3.2422,-3.2312,-3.2145,-3.1992,-3.2726,-3.2508,-3.1936,-3.2312,-3.2201,-3.2033,-3.281,-3.3018,-3.2996,-3.3039,-3.2648,-3.217,-3.1946,-3.2173,-3.2253,-3.1688,-3.1509,-3.1212,-3.0225,-2.9989,-2.9831,-2.9297,-2.8979,-2.8534,-2.7853,-2.7084,-2.5869,-2.3628,-2.2279,-2.062,-1.8105,-1.532,-1.3005,-1.1821,-0.9341,-0.7442,-0.6891,-0.6152,-0.5895,-0.6132,-0.6058,-0.6061,-0.6217,-0.6806,-0.7096,-0.6942,-0.7468,-0.808,-0.8699,-1.1025,-1.2806,-1.4129,-1.5384,-1.6158,-1.6464,-1.7432,-1.8066,-2.7118,-2.8015,-2.8918,-2.9484,-2.9783,-2.9957,0.0,0.0,0.0,0.0,0.0,0.0,-2.8997,-2.9166,0.0,0.0,-2.9187,0.0,0.0,0.0,0.0,-3.254,-3.2563,-3.2617,0.0,-3.2672,-3.2726,-3.324,-3.3065,-3.3011,-3.3309,-3.3309,-3.3309,-3.3309,-3.3309,-3.3081,-3.2563,-3.2563,-3.2437,-3.2201,-3.2437,-3.2437,-3.2272,-3.2711,-3.2942,-3.2958,-3.3187,-3.3309,-3.324,-3.2765,-3.2711,-3.2888,-3.2711,-3.2602,-3.2617,-3.3134,-3.2958,-3.2563,-3.2834,-3.2926,-3.3055,-3.3802,-3.407,-3.4086,-3.4137,-3.3955,-3.3569,-3.2579,-3.2788,-3.3203,-3.2583,-3.251,-3.2318,-3.1246,-3.075,-3.0318,-2.9659,-2.8982,-2.8352,-2.7902,-2.7333,-2.6265,-2.4363,-2.2852,-2.1179,-1.9041,-1.5965,-1.3685,-1.2816,-1.0398,-0.8618,-0.8304,-0.754,-0.7088,-0.7092,-0.7019,-0.6865,-0.6784,-0.7249,-0.7326,-0.6942,-0.7702,-0.8761,-1.004,-1.1842,-1.3331,-1.4569,-1.5675,-1.6376,-1.6603,-1.7969,-1.8643,-2.6949,-2.7682,-2.8406,-2.9201,-2.9815,-3.0231,0.0,0.0,0.0,0.0,0.0,0.0,0.0,0.0,0.0,0.0,0.0,0.0,-3.1326,-3.2046,-3.2684,-3.316,-3.3245,0.0,-3.3309,-3.3309,-3.3309,-3.3309,-3.3309,-3.3309,-3.3309,-3.3309,-3.3309,-3.3309,-3.3309,-3.3309,-3.3309,-3.3309,-3.3118,-3.2711,-3.3118,-3.3065,-3.2711,-3.3134,-3.3309,-3.3309,-3.3309,0.0,-3.3256,-3.2888,-3.2942,-3.324,-3.2888,-3.2942,-3.3309,-3.3309,-3.3346,-3.345,-3.3487,-3.3848,-3.4284,-3.4785,-3.4958,-3.5018,-3.5065,-3.5278,-3.5107,-3.3328,-3.3391,-3.3951,-3.3547,-3.3417,-3.3239,-3.236,-3.1736,-3.1127,-3.0369,-2.9393,-2.8638,-2.8369,-2.7784,-2.6857,-2.5453,-2.3735,-2.1946,-2.0125,-1.7058,-1.4617,-1.37,-1.1594,-1.0132,-0.9825,-0.9226,-0.8551,-0.8106,-0.803,-0.7876,-0.7561,-0.7484,-0.7403,-0.7246,-0.7927,-0.9362,-1.1829,-1.2519,-1.355,-1.4784,-1.5551,-1.6315,-1.7001,-1.8277,-1.9079,-2.6352,-2.6899,-2.776,-2.9085,-2.9922,-3.0401,0.0,0.0,0.0,0.0,0.0,0.0,0.0,0.0,0.0,0.0,0.0,-3.0353,0.0,0.0,-3.2176,-3.2668,0.0,-3.3309,-3.3309,-3.3309,-3.3309,-3.3309,-3.3309,-3.3309,-3.3309,-3.3309,-3.3309,-3.3309,-3.3309,-3.3309,-3.3309,-3.3309,-3.324,-3.3187,-3.3256,-3.324,-3.3187,-3.3256,-3.3309,-3.3309,0.0,-3.3309,-3.3309,-3.324,-3.324,-3.3309,-3.324,-3.324,-3.3309,-3.3309,-3.3607,-3.405,-3.4448,-3.4642,-3.4785,-3.5299,-3.5283,-3.5065,-3.5476,-3.5565,-3.5442,-3.5107,-3.5278,-3.5537,-3.5459,-3.5436,-3.5118,-3.3761,-3.3354,-3.2872,-3.1358,-3.0335,-2.9613,-2.9422,-2.8321,-2.7129,-2.6065,-2.4393,-2.2673,-2.0905,-1.8205,-1.5896,-1.4554,-1.2889,-1.1588,-1.0956,-1.0645,-1.0115,-0.9372,-0.9003,-0.8475,-0.7799,-0.7565,-0.7936,-0.8917,-0.8922,-1.0045,-1.2666,-1.2826,-1.3833,-1.5621,-1.6385,-1.7394,-1.867,-1.9288,-1.9944,-2.622,-2.7031,-2.8063,-2.8688,-2.94,0.0,0.0,0.0,0.0,0.0,0.0,0.0,0.0,0.0,0.0,0.0,0.0,-3.052,-3.0994,-3.1232,-3.1515,0.0,0.0,-3.274,-3.274,-3.3087,-3.3309,-3.3309,-3.3309,-3.3309,-3.3309,-3.3309,-3.3309,-3.3309,-3.3309,-3.3309,-3.3309,-3.3309,-3.3309,-3.3309,-3.3309,-3.3361,-3.3503,-3.3361,-3.345,-3.371,0.0,-3.3192,-3.293,-3.2843,-3.2621,-3.239,-3.2222,-3.2222,-3.239,-3.2508,-3.2821,-3.3315,-3.3822,-3.4002,-3.4091,-3.4669,-3.5027,-3.5292,-3.5621,-3.598,-3.6333,-3.6333,-3.6105,-3.5907,-3.5907,-3.5907,-3.5531,-3.4062,-3.3704,-3.3294,-3.1773,-3.0851,-3.026,-3.0302,-2.9239,-2.8128,-2.7324,-2.5518,-2.3754,-2.2396,-1.9673,-1.7407,-1.6504,-1.4672,-1.3186,-1.2405,-1.1883,-1.1143,-1.019,-0.989,-0.9221,-0.7718,-0.7863,-0.8461,-0.9448,-0.9895,-1.1093,-1.3046,-1.3258,-1.4186,-1.5833,-1.6524,-1.7472,-1.8479,-1.9497,-2.0031,-2.622,-2.7015,-2.7959,-2.829,0.0,0.0,0.0,0.0,0.0,0.0,0.0,0.0,0.0,0.0,0.0,-3.0526,-3.0526,-3.0625,-3.097,-3.0994,-3.1092,-3.1405,-3.1851,-3.213,-3.2079,-3.2645,-3.3056,-3.3056,-3.3214,-3.3309,-3.3309,-3.3309,-3.3309,-3.3309,-3.3309,-3.323,-3.3056,-3.3056,-3.3135,-3.3309,-3.3309,-3.345,-3.3694,-3.3328,-3.3403,-3.3792,-3.3227,-3.2793,-3.2497,-3.2299,-3.1996,-3.1662,-3.1534,-3.1646,-3.1885,-3.2164,-3.2451,-3.2773,-3.3322,-3.3505,-3.3588,-3.4081,-3.4714,-3.5279,-3.5374,-3.6032,-3.6707,-3.6707,-3.6435,-3.6165,-3.6165,-3.6165,-3.5786,-3.4306,-3.3945,-3.3593,-3.2169,-3.1266,-3.0794,-3.0881,-2.9946,-2.8919,-2.829,-2.6489,-2.4747,-2.356,-2.1093,-1.9041,-1.8295,-1.6504,-1.5043,-1.426,-1.3469,-1.2451,-1.1143,-1.0852,-0.9954,-0.8161,-0.8461,-0.914,-0.997,-1.0795,-1.1835,-1.3339,-1.3833,-1.4752,-1.6035,-1.6802,-1.7619,-1.8499,-1.9562,-2.0042,-2.622,-2.6286,-2.67,-2.8042,0.0,0.0,0.0,0.0,0.0,0.0,0.0,0.0,0.0,-3.0485,-3.0526,-3.0526,-3.0526,-3.0501,-3.0551,0.0,-3.1108,-3.0946,-3.1357,-3.1548,-3.1286,-3.1934,-3.2396,-3.2396,-3.2945,-3.3309,-3.3309,-3.3309,-3.3309,-3.3309,-3.3309,-3.2993,-3.2396,-3.2396,-3.2661,-3.3309,-3.3309,-3.345,-3.3678,-3.2971,-3.2802,-3.3064,-3.2289,-3.1966,-3.1981,-3.1933,-3.1901,-3.19,-3.221,-3.2422,-3.2691,-3.311,-3.328,-3.3322,-3.3945,-3.4159,-3.4159,-3.4328,-3.446,-3.4574,-3.4591,-3.5209,-3.5899,-3.5899,-3.6387,-3.693,-3.693,-3.693,-3.6545,-3.4964,-3.4708,-3.434,-3.2617,-3.1752,-3.1215,-3.1043,-2.9972,-2.8919,-2.829,-2.6902,-2.5356,-2.3619,-2.2372,-2.0917,-1.9149,-1.815,-1.7415,-1.6651,-1.5922,-1.4712,-1.2816,-1.1931,-1.0983,-0.9814,-0.9744,-1.0271,-1.126,-1.1329,-1.2144,-1.376,-1.445,-1.5508,-1.6793,-1.755,-1.8633,-1.9966,-2.0031,-2.042,-2.5848,-2.6339,-2.7098,-2.7804,0.0,0.0,0.0,0.0,0.0,0.0,0.0,0.0,0.0,0.0,-3.0526,-3.0526,-3.0526,-3.0526,-3.0526,-3.0402,-3.0303,-3.0231,-3.051,-3.0672,-3.0575,-3.1207,-3.1618,-3.1618,-3.1855,-3.1997,-3.1997,-3.1997,-3.1997,-3.1997,-3.1997,-3.1871,-3.1618,-3.1618,-3.1845,-3.2215,-3.2215,-3.2447,-3.2789,-3.2385,-3.2399,-3.2758,-3.2154,-3.1751,-3.1482,-3.1362,-3.1206,-3.1116,-3.1416,-3.1641,-3.1847,-3.1952,-3.2151,-3.2479,-3.2686,-3.2815,-3.2906,-3.2997,-3.3384,-3.3824,-3.386,-3.444,-3.5214,-3.5688,-3.6022,-3.6373,-3.6865,-3.6987,-3.6724,-3.5636,-3.5151,-3.4624,-3.3578,-3.2494,-3.1735,-3.1808,-3.0801,-2.9821,-2.93,-2.8163,-2.6836,-2.526,-2.3774,-2.2299,-2.0905,-1.9912,-1.8992,-1.8285,-1.6995,-1.5694,-1.4371,-1.3932,-1.3418,-1.2837,-1.189,-1.1533,-1.1909,-1.2872,-1.3688,-1.4274,-1.5046,-1.5948,-1.6932,-1.7628,-1.87,-2.0107,-1.9649,-1.9955,-2.5832,-2.6303,-2.6991,0.0,0.0,0.0,0.0,0.0,0.0,0.0,0.0,0.0,0.0,0.0,0.0,0.0,-3.03,-3.03,-3.03,-3.0113,-2.9984,-2.9793,-2.9977,-3.002,-2.9848,-3.048,-3.0891,-3.0891,-3.1097,-3.1223,-3.1223,-3.1223,-3.1223,-3.1223,-3.1223,-3.1112,-3.0973,-3.0973,-3.1055,-3.1146,-3.1146,-3.1542,-3.2302,-3.1843,-3.1929,-3.2332,-3.1745,-3.1368,-3.1203,-3.1013,-3.094,-3.1027,-3.1201,-3.1372,-3.1562,-3.1449,-3.1637,-3.1984,-3.1984,-3.2055,-3.2144,-3.2232,-3.2634,-3.309,-3.3143,-3.3687,-3.4424,-3.4934,-3.5425,-3.5934,-3.6478,-3.6794,-3.6724,-3.5706,-3.5223,-3.4746,-3.385,-3.2908,-3.2265,-3.2283,-3.1401,-3.0485,-2.9924,-2.8919,-2.7773,-2.6462,-2.4927,-2.3612,-2.2712,-2.1455,-2.0322,-1.9444,-1.8093,-1.6876,-1.5948,-1.5534,-1.5108,-1.4601,-1.3875,-1.3361,-1.3222,-1.4114,-1.4776,-1.5125,-1.5824,-1.6585,-1.7531,-1.8287,-1.9299,-2.042,-1.9977,-2.0073,-2.6295,-2.5994,-2.5975,0.0,0.0,0.0,0.0,0.0,0.0,0.0,0.0,0.0,-3.0485,0.0,0.0,-2.9793,-2.9793,-2.9793,-2.9793,-3.0215,-3.0342,-2.9853,-2.9793,-2.9633,-2.9167,-2.9753,-3.0164,-3.0164,-3.0812,-3.1191,-3.1191,-3.1191,-3.1191,-3.1191,-3.1191,-3.0941,-3.0526,-3.051,-3.0387,-3.0189,-3.0189,-3.0926,-3.2269,-3.1536,-3.1342,-3.1527,-3.0841,-3.0692,-3.1015,-3.1015,-3.1351,-3.1858,-3.1819,-3.1965,-3.2179,-3.2108,-3.2108,-3.2108,-3.2179,-3.2179,-3.2214,-3.2354,-3.2406,-3.2406,-3.2406,-3.2897,-3.3476,-3.3476,-3.4618,-3.5811,-3.5811,-3.6391,-3.664,-3.5056,-3.4978,-3.4777,-3.3223,-3.2848,-3.2699,-3.2385,-3.1608,-3.0744,-2.9951,-2.8919,-2.7887,-2.6938,-2.5861,-2.4953,-2.4473,-2.2892,-2.1353,-2.0226,-1.9441,-1.8623,-1.7503,-1.6775,-1.5807,-1.4744,-1.5401,-1.5621,-1.5204,-1.4848,-1.5125,-1.6306,-1.6724,-1.7599,-1.8992,-1.9759,-2.042,-2.1123,-2.1123,-2.0785,-2.5422,-2.561,0.0,0.0,0.0,0.0,0.0,0.0,0.0,0.0,0.0,-2.9528,-2.9528,0.0,0.0,-2.9303,-2.9303,-2.9303,-2.9303,-2.9556,-2.9689,-2.9556,-2.9705,-2.9766,-2.9589,-2.951,-2.9499,-2.9699,-2.9564,-2.9548,-2.969,-2.9878,-3.0002,-3.0002,-3.014,-3.0164,-2.9984,-2.9984,-3.0064,-3.0189,-3.0189,-3.0488,-3.1028,-3.0813,-3.0757,-3.0782,-3.0609,-3.0692,-3.1015,-3.1235,-3.1218,-3.1027,-3.1579,-3.1728,-3.1677,-3.1984,-3.2108,-3.2179,-3.2179,-3.2267,-3.2354,-3.2406,-3.2406,-3.2406,-3.2406,-3.2546,-3.2827,-3.3336,-3.4231,-3.5181,-3.5841,-3.662,-3.6955,-3.5911,-3.5439,-3.4972,-3.41,-3.3319,-3.2699,-3.2385,-3.1861,-3.1227,-3.0418,-2.9761,-2.8965,-2.792,-2.6953,-2.5833,-2.4573,-2.3301,-2.2249,-2.1416,-2.0782,-2.0009,-1.8813,-1.8546,-1.8075,-1.7385,-1.7541,-1.706,-1.5692,-1.6105,-1.6455,-1.6751,-1.7939,-1.8726,-1.8992,-2.0204,-2.0928,-2.1258,-2.078,-2.0756,-2.5362,0.0,0.0,0.0,0.0,0.0,0.0,0.0,0.0,0.0,0.0,-2.9074,-2.9074,-2.8935,0.0,-2.8779,-2.8779,-2.8779,-2.8779,-2.9058,-2.9332,-2.9406,-2.9377,-2.9377,-2.9528,-2.909,-2.8873,-2.9075,-2.892,-2.892,-2.9106,-2.9425,-2.9633,-2.9633,-2.9722,-2.9853,-2.9957,-2.9957,-3.0087,-3.0316,-3.0316,-3.0401,-3.0526,-3.0526,-3.0526,-3.051,-3.0797,-3.0998,-3.1235,-3.1671,-3.1562,-3.1184,-3.1728,-3.1875,-3.1821,-3.2073,-3.2196,-3.2267,-3.2267,-3.2319,-3.2406,-3.2406,-3.2406,-3.2406,-3.2406,-3.2406,-3.2493,-3.2932,-3.3617,-3.4373,-3.503,-3.5757,-3.6235,-3.5829,-3.5509,-3.5037,-3.4056,-3.3409,-3.2925,-3.2586,-3.2196,-3.1679,-3.0834,-3.036,-2.9717,-2.8686,-2.7689,-2.65,-2.4883,-2.4124,-2.3446,-2.2543,-2.1667,-2.0835,-1.9998,-1.9431,-1.8921,-1.8509,-1.8509,-1.8027,-1.6932,-1.7276,-1.756,-1.7784,-1.8803,-1.9585,-1.9987,-2.0831,-2.139,-2.1687,-2.1056,-2.0916,-2.5738,0.0,0.0,0.0,0.0,0.0,0.0,0.0,0.0,0.0,0.0,-2.8982,-2.8982,-2.8543,-2.8255,-2.8255,-2.8255,-2.8255,-2.8255,-2.8685,-2.9104,-2.9271,-2.8966,-2.8826,-2.9074,-2.8653,-2.8444,-2.8493,-2.8873,-2.9074,-2.9166,-2.9528,-2.981,-2.9853,-2.9793,-2.9941,-3.0231,-3.0231,-3.0316,-3.0526,-3.0526,-3.0526,-3.0526,-3.0526,-3.0526,-3.0526,-3.1196,-3.1445,-3.1428,-3.2054,-3.2073,-3.1821,-3.202,-3.2232,-3.2319,-3.2267,-3.2319,-3.2406,-3.2406,-3.2406,-3.2406,-3.2406,-3.2406,-3.2406,-3.2406,-3.2406,-3.2406,-3.2406,-3.2932,-3.3565,-3.3775,-3.4358,-3.496,-3.5114,-3.5283,-3.4986,-3.3458,-3.3256,-3.3286,-3.2876,-3.2535,-3.2039,-3.1215,-3.0754,-3.0166,-2.9257,-2.8192,-2.6975,-2.5508,-2.519,-2.4697,-2.3675,-2.2335,-2.1381,-2.1003,-1.9824,-1.8988,-1.8767,-1.871,-1.8643,-1.87,-1.8365,-1.8442,-1.9198,-1.9477,-2.0233,-2.1444,-2.15,-2.1753,-2.2146,-2.1644,-2.1117,0.0,-2.4855,0.0,0.0,0.0,0.0,0.0,0.0,0.0,-2.7894,-2.7894,-2.7894,-2.7894,-2.781,-2.7745,-2.7745,-2.7745,-2.7745,-2.7745,-2.8174,-2.8496,-2.8528,-2.8826,-2.9028,-2.9074,-2.8654,-2.8543,-2.915,-2.8919,-2.9012,-2.9617,-2.9556,-2.9705,-3.0087,-2.9897,-2.9984,-3.0426,-3.0443,-3.0485,-3.0526,-3.0526,-3.0526,-3.0526,-3.0526,-3.0526,-3.051,-3.0935,-3.0975,-3.0757,-3.1117,-3.114,-3.0948,-3.1449,-3.1691,-3.1821,-3.2232,-3.2371,-3.2406,-3.2406,-3.2406,-3.2406,-3.2406,-3.2406,-3.2406,-3.2406,-3.2406,-3.2406,-3.2406,-3.3037,-3.3775,-3.3962,-3.4565,-3.5061,-3.4799,-3.4636,-3.4335,-3.3503,-3.3364,-3.3286,-3.2876,-3.2535,-3.2127,-3.166,-3.0971,-3.0166,-2.9257,-2.8192,-2.7348,-2.7027,-2.5889,-2.5022,-2.4754,-2.3682,-2.2811,-2.247,-2.1542,-2.0858,-2.0537,-2.0053,-1.9977,-2.0537,-1.9552,-1.9288,-1.9868,-2.0398,-2.0932,-2.1476,-2.1609,-2.1418,-2.1016,-2.0957,-2.0539,0.0,0.0,0.0,0.0,0.0,0.0,0.0,0.0,0.0,-2.75,-2.7625,-2.7625,-2.7625,-2.7625,-2.7625,-2.7625,-2.7625,-2.7625,-2.7625,-2.7795,-2.8076,-2.824,-2.8367,-2.8463,-2.8685,-2.8271,-2.811,-2.8496,-2.8732,-2.8966,-2.9104,-2.9601,-2.9968,-3.0,-3.007,-3.0241,-3.0526,-3.0526,-3.0526,-3.0526,-3.0526,-3.0526,-3.0526,-3.0526,-3.0609,-3.0773,-3.0935,-3.0895,-3.0773,-3.1078,-3.1157,-3.1083,-3.1524,-3.1802,-3.202,-3.2319,-3.2406,-3.2406,-3.2406,-3.2406,-3.2406,-3.2406,-3.2406,-3.2422,-3.2473,-3.2507,-3.2507,-3.2608,-3.2991,-3.341,-3.3588,-3.3924,-3.4153,-3.4057,-3.4176,-3.4119,-3.3544,-3.3393,-3.3334,-3.3129,-3.2781,-3.2468,-3.2265,-3.1384,-3.0534,-2.9865,-2.9118,-2.8417,-2.7917,-2.7121,-2.6395,-2.5809,-2.4697,-2.3846,-2.3539,-2.2579,-2.1854,-2.1616,-2.125,-2.1187,-2.1553,-2.0745,-2.0369,-2.0682,-2.1284,-2.1435,-2.1226,-2.133,-2.1158,-2.0706,-2.0376,-2.0087,0.0,0.0,0.0,0.0,0.0,0.0,0.0,0.0,-2.6831,-2.749,-2.7625,-2.7625,-2.7625,-2.7625,-2.7625,-2.7625,-2.7625,-2.7625,-2.7625,-2.7625,-2.7745,-2.811,-2.7845,-2.7745,-2.8158,-2.7845,-2.766,-2.786,-2.8559,-2.8826,-2.8575,-2.9645,-3.0113,-2.981,-3.0156,-3.0426,-3.0526,-3.0526,-3.0526,-3.0526,-3.0526,-3.0526,-3.0526,-3.0526,-3.0651,-3.0895,-3.0895,-3.0895,-3.0935,-3.1196,-3.1351,-3.1445,-3.1654,-3.1984,-3.2319,-3.2319,-3.2354,-3.2388,-3.2422,-3.2422,-3.2457,-3.2491,-3.2491,-3.2525,-3.2623,-3.2639,-3.2672,-3.2834,-3.2916,-3.293,-3.3024,-3.3055,-3.3104,-3.3274,-3.37,-3.3939,-3.3508,-3.3393,-3.3393,-3.3393,-3.3068,-3.2763,-3.2634,-3.1719,-3.0903,-3.0543,-3.0097,-2.9451,-2.8576,-2.8323,-2.7853,-2.6886,-2.5658,-2.4827,-2.46,-2.3382,-2.2567,-2.2457,-2.214,-2.2042,-2.2091,-2.1608,-2.1352,-2.1489,-2.1868,-2.17,-2.107,-2.1074,-2.0912,-2.0661,-2.0076,-1.9798,0.0,0.0,0.0,0.0,0.0,0.0,0.0,0.0,-2.6943,0.0,-2.7625,-2.7625,-2.7625,-2.7625,-2.7625,-2.7625,-2.7625,-2.7625,-2.7625,-2.7625,-2.7625,-2.766,-2.7625,-2.761,-2.766,-2.7625,-2.7944,-2.8842,-2.8591,-2.8764,-2.9556,-2.9393,-2.9438,-2.981,-2.9837,-3.007,-3.0485,-3.0526,-3.0526,-3.0526,-3.0526,-3.0526,-3.0526,-3.0526,-3.051,-3.0568,-3.0568,-3.0568,-3.0568,-3.0609,-3.0797,-3.1055,-3.1095,-3.1466,-3.1984,-3.1984,-3.2144,-3.2422,-3.2523,-3.2573,-3.2606,-3.2787,-3.282,-3.2852,-3.2852,-3.2852,-3.2884,-3.2884,-3.2961,-3.3055,-3.2948,-3.2948,-3.2948,-3.2948,-3.3019,-3.3136,-3.3352,-3.3393,-3.3393,-3.3393,-3.3068,-3.2601,-3.195,-3.1384,-3.0903,-3.0543,-3.0097,-2.975,-2.9601,-2.8763,-2.8146,-2.8,-2.696,-2.6215,-2.6215,-2.4827,-2.3955,-2.3897,-2.2328,-2.1631,-2.2151,-2.1674,-2.1606,-2.2177,-2.1668,-2.1524,-2.176,-2.1255,-2.0864,-2.0627,-2.0042,-1.9798,-2.3982,0.0,0.0,0.0,0.0,0.0,0.0,0.0,-2.5997,-2.7022,-2.7135,-2.7126,-2.755,-2.7625,-2.7625,-2.7625,-2.7625,-2.7625,-2.7625,-2.7625,-2.7625,-2.7625,-2.7625,-2.7625,-2.7625,-2.7845,-2.8174,-2.8638,-2.8685,-2.8826,-2.895,-2.9287,-2.9348,-2.895,-2.975,-3.0156,-3.0113,-3.0384,-3.0526,-3.0526,-3.0526,-3.0526,-3.0526,-3.0526,-3.0526,-3.0526,-3.0526,-3.0526,-3.0526,-3.0526,-3.0692,-3.1015,-3.1072,-3.1368,-3.1765,-3.1819,-3.1929,-3.209,-3.2335,-3.242,-3.2488,-3.2802,-3.2916,-3.2916,-3.3011,-3.2993,-3.3042,-3.3135,-3.3226,-3.3256,-3.3214,-3.3165,-3.3165,-3.3165,-3.3165,-3.3214,-3.3364,-3.3393,-3.3393,-3.3393,-3.3256,-3.2957,-3.2401,-3.1986,-3.1608,-3.1244,-3.0845,-3.0493,-3.0225,-2.9789,-2.9403,-2.9102,-2.8097,-2.7419,-2.7354,-2.6144,-2.5149,-2.471,-2.3834,-2.3279,-2.3178,-2.2591,-2.2407,-2.2677,-2.2113,-2.1864,-2.1852,-2.158,-2.1153,-2.061,-2.0359,-2.0105,0.0,0.0,0.0,0.0,0.0,0.0,0.0,0.0,-2.5228,0.0,-2.6738,-2.6849,-2.7345,-2.7505,-2.7625,-2.7625,-2.7625,-2.7625,-2.7625,-2.7625,-2.7625,-2.7625,-2.7625,-2.7625,-2.7625,-2.7944,-2.8158,-2.8288,-2.8543,-2.8654,-2.8496,-2.9196,-2.9287,-2.8543,-2.9777,-3.0284,-2.9793,-3.0258,-3.0526,-3.0526,-3.051,-3.0568,-3.0568,-3.0609,-3.0609,-3.0609,-3.0568,-3.0568,-3.0609,-3.0609,-3.0733,-3.0975,-3.1072,-3.1172,-3.1285,-3.1677,-3.1771,-3.1723,-3.2316,-3.2521,-3.2555,-3.2898,-3.3011,-3.3042,-3.3165,-3.3196,-3.3226,-3.3364,-3.3393,-3.3393,-3.3334,-3.3334,-3.3334,-3.3274,-3.3304,-3.3334,-3.3393,-3.3393,-3.3393,-3.3393,-3.3393,-3.3286,-3.2876,-3.2601,-3.2317,-3.1896,-3.162,-3.1372,-3.101,-3.0834,-3.0633,-3.0285,-2.9355,-2.8654,-2.8419,-2.7175,-2.6124,-2.5406,-2.477,-2.4184,-2.3685,-2.3105,-2.2817,-2.296,-2.2637,-2.2284,-2.1983,-2.1983,-2.1589,-2.0795,-2.066,-2.0409,0.0,0.0,0.0,0.0,0.0,0.0,0.0,0.0,0.0,-2.5925,-2.6531,-2.6985,-2.7016,-2.7319,-2.7625,-2.7625,-2.7625,-2.7625,-2.7625,-2.7625,-2.7625,-2.7625,-2.7625,-2.7625,-2.7625,-2.7625,-2.7845,-2.8255,-2.7894,-2.8091,-2.9028,-2.912,-2.912,-2.9074,-2.9984,-3.0284,-2.9793,-3.0258,-3.0526,-3.0526,-3.0609,-3.0692,-3.0692,-3.0831,-3.0871,-3.0871,-3.0733,-3.0773,-3.0871,-3.0871,-3.0912,-3.0912,-3.0912,-3.0673,-3.0381,-3.1489,-3.1603,-3.1417,-3.263,-3.3055,-3.3086,-3.3304,-3.3364,-3.3364,-3.3364,-3.3364,-3.3411,-3.3411,-3.3393,-3.3364,-3.3165,-3.3117,-3.3086,-3.2948,-3.3024,-3.3165,-3.3364,-3.3393,-3.3393,-3.3393,-3.3393,-3.3286,-3.2876,-3.2795,-3.2666,-3.2317,-3.2248,-3.2231,-3.2196,-3.1826,-3.1519,-3.1519,-3.0734,-3.0018,-2.9572,-2.7844,-2.6579,-2.6105,-2.4183,-2.3077,-2.3049,-2.246,-2.237,-2.2888,-2.2888,-2.2737,-2.2466,-2.2466,-2.2081,-2.1369,-2.0845,-2.061,0.0,0.0,0.0,0.0,0.0,0.0,0.0,-2.4545,-2.4701,-2.5433,-2.5636,-2.588,-2.6382,-2.7261,-2.7855,-2.7855,-2.7855,-2.7855,-2.7855,-2.7855,-2.7855,-2.7855,-2.7855,-2.7855,-2.7855,-2.8155,-2.8367,-2.8415,-2.8271,-2.8463,-2.9074,-2.8842,-2.8701,-2.8591,-2.9617,-3.0215,-3.0384,-3.0651,-3.0773,-3.0773,-3.0831,-3.0831,-3.0814,-3.0352,-3.0174,-3.0236,-2.9688,-2.9716,-3.0135,-3.0135,-2.9967,-2.9739,-2.983,-2.9862,-2.9955,-3.0437,-3.068,-3.0889,-3.1831,-3.2321,-3.2669,-3.3226,-3.3393,-3.3393,-3.3393,-3.3393,-3.3393,-3.3393,-3.3393,-3.3364,-3.3304,-3.3286,-3.3274,-3.3244,-3.3274,-3.3304,-3.3364,-3.3393,-3.3393,-3.3393,-3.3491,-3.352,-3.3238,-3.3093,-3.2916,-3.2666,-3.2453,-3.2317,-3.2317,-3.2144,-3.2057,-3.2057,-3.1482,-3.1087,-3.0898,-2.9188,-2.7799,-2.692,-2.5348,-2.4148,-2.3405,-2.3171,-2.3143,-2.3334,-2.3334,-2.3246,-2.3038,-2.3038,-2.2618,-2.1921,-2.1382,-2.0944,0.0,0.0,0.0,0.0,0.0,-2.4302,-2.4302,0.0,-2.4372,-2.4844,-2.5035,-2.5238,-2.58,-2.6765,-2.7433,-2.7337,-2.7337,-2.7428,-2.764,-2.7671,-2.7762,-2.7989,-2.802,-2.802,-2.802,-2.8268,-2.8431,-2.835,-2.8479,-2.8701,-2.8935,-2.9012,-2.9088,-2.9164,-2.9572,-3.0113,-3.0773,-3.0692,-3.0733,-3.0912,-3.0683,-3.0566,-3.0549,-2.9794,-2.9534,-2.9593,-2.9067,-2.908,-2.9458,-2.9458,-2.9306,-2.9068,-2.914,-2.9214,-2.9292,-2.975,-2.9994,-3.0274,-3.1426,-3.2023,-3.2378,-3.3136,-3.3393,-3.3364,-3.3256,-3.3208,-3.3178,-3.3055,-3.3024,-3.3024,-3.3024,-3.3117,-3.3208,-3.3364,-3.3393,-3.3393,-3.3393,-3.3393,-3.3393,-3.3393,-3.3509,-3.3549,-3.3422,-3.3309,-3.3166,-3.3019,-3.283,-3.2684,-3.2763,-3.2763,-3.2795,-3.2854,-3.2413,-3.2022,-3.19,-3.0044,-2.852,-2.7567,-2.6122,-2.4859,-2.3882,-2.3809,-2.3782,-2.3595,-2.3595,-2.3523,-2.3319,-2.3319,-2.2904,-2.2184,-2.167,-2.114,0.0,0.0,0.0,0.0,0.0,0.0,-2.4302,0.0,-2.4302,-2.4302,-2.4825,-2.5287,-2.5287,-2.5857,-2.6228,-2.6001,-2.5986,-2.6244,-2.6896,-2.6988,-2.723,-2.7883,-2.7959,-2.7959,-2.7959,-2.7959,-2.7959,-2.7959,-2.8369,-2.8623,-2.8623,-2.952,-3.0243,-3.0804,-2.9886,-2.9843,-3.0845,-3.0377,-3.0377,-3.0845,-3.0169,-2.9854,-2.9837,-2.9225,-2.8941,-2.8941,-2.896,-2.8943,-2.8943,-2.8941,-2.896,-2.8943,-2.8943,-2.8681,-2.8451,-2.9537,-2.9655,-2.954,-3.1452,-3.2133,-3.2296,-3.3103,-3.3375,-3.3334,-3.2957,-3.2795,-3.2731,-3.2419,-3.2317,-3.2317,-3.2317,-3.2535,-3.2908,-3.3286,-3.3393,-3.3393,-3.3393,-3.3393,-3.3393,-3.3393,-3.3393,-3.3411,-3.3393,-3.3393,-3.3411,-3.3393,-3.3393,-3.3481,-3.3671,-3.3698,-3.378,-3.3972,-3.3449,-3.2937,-3.2467,-3.0334,-2.8718,-2.8003,-2.6292,-2.4989,-2.4343,-2.4317,-2.4094,-2.3595,-2.3595,-2.3523,-2.3319,-2.3319,-2.2918,-2.2231,-2.167,-2.114,-2.4223,0.0,0.0,0.0,0.0,0.0,0.0,0.0,-2.4302,-2.4302,-2.4456,-2.4594,-2.4594,-2.4748,-2.4844,-2.4802,-2.5571,-2.6275,-2.6535,-2.6581,-2.6642,-2.6826,-2.678,-2.678,-2.6857,-2.6857,-2.6796,0.0,-2.6811,-2.6979,-2.7235,-2.779,-2.8338,-2.888,-2.8624,-2.8744,-2.9379,-2.9357,-2.9395,-2.9509,-2.9343,-2.9242,-2.9208,-2.8484,-2.8146,-2.8112,-2.7827,-2.7555,-2.7368,-2.7909,-2.8117,-2.8042,-2.7786,-2.7869,-2.8158,-2.8287,-2.8434,-2.8704,-2.9768,-3.0707,-3.1582,-3.2288,-3.2922,-3.3364,-3.3256,-3.3019,-3.2763,-3.2699,-3.2468,-3.2351,-3.2601,-3.2731,-3.2908,-3.3286,-3.3393,-3.3393,-3.3393,-3.3393,-3.3393,-3.3393,-3.3538,-3.3577,-3.3422,-3.352,-3.3577,-3.3422,-3.3393,-3.3422,-3.3481,-3.3481,-3.3549,-3.3753,-3.3484,-3.3321,-3.3335,-3.1222,-2.9553,-2.883,-2.6599,-2.4989,-2.4343,-2.3952,-2.3724,-2.3595,-2.3595,-2.3523,-2.3319,-2.3319,-2.3098,-2.2706,-2.1813,-2.114,0.0,0.0,0.0,0.0,0.0,0.0,-2.4302,-2.4302,-2.4302,0.0,-2.4302,-2.4343,-2.4533,-2.4574,-2.4574,-2.4574,-2.5201,-2.578,-2.5947,-2.5949,-2.6057,-2.6349,-2.6364,-2.6364,-2.638,-2.6543,-2.6632,-2.6528,-2.6733,-2.6977,-2.7384,-2.7442,-2.7753,-2.8439,-2.8112,-2.8246,-2.8901,-2.879,-2.8827,-2.9011,-2.8653,-2.8501,-2.8467,-2.7706,-2.7351,-2.7334,-2.7078,-2.6891,-2.6725,-2.7165,-2.7316,-2.7258,-2.7085,-2.7303,-2.7707,-2.7565,-2.7739,-2.8171,-2.9029,-2.9769,-3.0597,-3.182,-3.2401,-3.2697,-3.3039,-3.2894,-3.2568,-3.2401,-3.2092,-3.1913,-3.2265,-3.2316,-3.2435,-3.2848,-3.2943,-3.2943,-3.2943,-3.2943,-3.2975,-3.3099,-3.3386,-3.3473,-3.3208,-3.3386,-3.352,-3.3422,-3.3393,-3.3422,-3.3491,-3.352,-3.3615,-3.3921,-3.3698,-3.3605,-3.3807,-3.1683,-3.0092,-2.9451,-2.7281,-2.5582,-2.4599,-2.4297,-2.3964,-2.3595,-2.3595,-2.3523,-2.3319,-2.3319,-2.3053,-2.2615,-2.1766,-2.114,0.0,0.0,0.0,0.0,0.0,0.0,-2.4302,-2.4302,-2.4302,0.0,-2.4385,-2.4492,-2.4902,-2.4981,-2.4981,-2.4981,-2.4981,-2.5044,-2.523,-2.521,-2.5441,-2.6161,-2.6193,-2.6193,-2.6238,-2.6557,-2.6799,-2.6841,-2.7217,-2.7662,-2.8053,-2.7725,-2.7898,-2.8648,-2.7976,-2.7976,-2.8738,-2.8336,-2.8336,-2.8757,-2.8027,-2.7689,-2.7637,-2.6996,-2.6691,-2.6691,-2.6725,-2.6725,-2.6691,-2.6725,-2.6758,-2.6758,-2.6758,-2.6956,-2.7244,-2.7244,-2.743,-2.7789,-2.8792,-2.918,-2.9501,-3.1297,-3.1739,-3.168,-3.2392,-3.2431,-3.2144,-3.1768,-3.1428,-3.1291,-3.162,-3.1677,-3.1787,-3.2196,-3.2317,-3.2317,-3.2317,-3.2317,-3.2368,-3.2634,-3.2988,-3.3178,-3.2876,-3.3099,-3.3364,-3.3393,-3.3393,-3.3452,-3.3643,-3.3671,-3.3815,-3.4197,-3.3895,-3.3716,-3.3817,-3.1864,-3.0308,-2.9647,-2.7856,-2.6264,-2.4902,-2.4784,-2.4379,-2.3595,-2.3551,-2.348,-2.3319,-2.3275,-2.2918,-2.2263,-2.167,-2.1126,0.0,0.0,0.0,0.0,0.0,0.0,-2.4302,-2.4302,-2.4385,0.0,-2.4799,-2.4902,-2.5313,-2.5389,-2.5427,-2.5535,-2.5443,-2.5285,-2.5012,-2.4694,-2.4673,-2.5152,-2.4911,-2.4828,-2.5168,-2.5233,-2.5433,-2.577,-2.5902,-2.5962,-2.6037,-2.6315,-2.6498,-2.6643,-2.6801,-2.6993,-2.7148,-2.7062,-2.7062,-2.7131,-2.6979,-2.6911,-2.6911,-2.6759,-2.6691,-2.6725,-2.6989,-2.6956,-2.6725,-2.6989,-2.7085,-2.7085,-2.7085,-2.7307,-2.7612,-2.7612,-2.7474,-2.7417,-2.8085,-2.8458,-2.8704,-2.9579,-3.0528,-3.1308,-3.1449,-3.1655,-3.175,-3.1389,-3.1269,-3.1291,-3.162,-3.1677,-3.1787,-3.2196,-3.2317,-3.2317,-3.2317,-3.2317,-3.2196,-3.195,-3.2231,-3.2586,-3.2763,-3.2876,-3.3019,-3.3364,-3.3393,-3.3393,-3.3452,-3.3452,-3.3549,-3.3807,-3.3605,-3.3294,-3.2818,-3.1444,-2.9968,-2.8454,-2.6823,-2.5475,-2.4451,-2.4063,-2.3752,-2.3595,-2.3436,-2.3363,-2.3319,-2.3068,-2.2888,-2.2752,-2.1813,-2.1321,0.0,0.0,0.0,-2.4302,0.0,0.0,0.0,-2.4302,-2.441,-2.4823,-2.4799,-2.4974,-2.5742,-2.5779,-2.5742,-2.6013,-2.5977,-2.5852,-2.5668,-2.5214,-2.4981,-2.5176,-2.502,-2.4981,-2.516,-2.5389,-2.5577,-2.5799,-2.598,-2.6016,-2.5799,-2.598,-2.621,-2.6385,-2.6401,-2.6505,-2.6691,-2.6691,-2.6691,-2.6691,-2.6691,-2.6691,-2.6691,-2.6691,-2.6691,-2.6725,-2.6891,-2.6858,-2.6725,-2.6891,-2.6956,-2.6956,-2.6956,-2.7036,-2.7195,-2.7195,-2.7195,-2.7276,-2.7725,-2.7959,-2.8194,-2.904,-2.9518,-2.9929,-3.0914,-3.1429,-3.164,-3.1487,-3.1329,-3.123,-3.1428,-3.1449,-3.1487,-3.1694,-3.1731,-3.1731,-3.1731,-3.1731,-3.1711,-3.1487,-3.16,-3.1913,-3.2468,-3.2699,-3.2957,-3.3334,-3.3393,-3.3393,-3.3393,-3.3393,-3.3481,-3.3671,-3.3156,-3.2718,-3.2527,-3.0946,-2.9443,-2.8064,-2.6739,-2.5475,-2.4343,-2.4078,-2.3824,-2.3595,-2.3494,-2.3407,-2.3407,-2.3112,-2.2992,-2.2888,-2.186,-2.1417,0.0,0.0,0.0,0.0,0.0,-2.4302,0.0,0.0,0.0,-2.4942,-2.4895,-2.5091,-2.6208,-2.6208,-2.6156,-2.647,0.0,0.0,0.0,-2.6104,0.0,-2.5689,-2.5577,-2.554,-2.5652,-2.6033,-2.6245,-2.6245,-2.659,-2.659,-2.6175,-2.6245,-2.6401,-2.6624,-2.6401,-2.6436,-2.6742,-2.6742,-2.6742,-2.6775,-2.6742,-2.6742,-2.6775,-2.6775,-2.6775,-2.6775,-2.6775,-2.6775,-2.6775,-2.6775,-2.6742,-2.6742,-2.6791,-2.6791,-2.6791,-2.6891,-2.7021,-2.7244,-2.7565,-2.7612,-2.7669,-2.8594,-2.8592,-2.8526,-3.0228,-3.1045,-3.1376,-3.1376,-3.1325,-3.119,-3.119,-3.119,-3.119,-3.119,-3.119,-3.119,-3.119,-3.119,-3.119,-3.119,-3.119,-3.1389,-3.2074,-3.2401,-3.2749,-3.3208,-3.3286,-3.3316,-3.3393,-3.3266,-3.3216,-3.3294,-3.2444,-3.1844,-3.1801,-3.0145,-2.8689,-2.7623,-2.6567,-2.5438,-2.4204,-2.4177,-2.3994,-2.3595,-2.3538,-2.3509,-2.3509,-2.3216,-2.3037,-2.2947,-2.2016,-2.1513,0.0,0.0,0.0,0.0,-2.4302,0.0,0.0,0.0,-2.4533,-2.5422,0.0,-2.5832,-2.6759,0.0,0.0,0.0,0.0,0.0,-2.6989,-2.6908,-2.6708,-2.6332,-2.5852,-2.5705,-2.6173,-2.6589,-2.6809,-2.6809,-2.6909,-2.6792,-2.6383,-2.6708,-2.6759,-2.6453,-2.6759,-2.6942,-2.6975,-2.6909,-2.6909,-2.6975,-2.6926,-2.6909,-2.6975,-2.6975,-2.6975,-2.6975,-2.6975,-2.6975,-2.6975,-2.6975,-2.6942,-2.6876,-2.707,-2.7149,-2.7181,-2.7474,-2.7413,-2.7244,-2.7565,-2.7321,-2.6891,-2.7299,-2.7636,-2.8047,-2.8983,-2.9729,-3.0302,-3.0302,-3.0738,-3.119,-3.119,-3.119,-3.119,-3.119,-3.119,-3.119,-3.119,-3.119,-3.119,-3.119,-3.119,-3.1329,-3.1694,-3.1787,-3.2056,-3.2763,-3.2876,-3.2988,-3.3364,-3.2777,-3.222,-3.1948,-3.1201,-3.0303,-2.939,-2.8563,-2.7487,-2.6046,-2.5281,-2.4511,-2.3724,-2.3681,-2.3638,-2.3595,-2.3538,-2.3509,-2.3509,-2.3216,-2.3082,-2.3037,-2.2417,-2.1874,0.0,0.0,0.0,0.0,0.0,0.0,-2.4317,0.0,-2.467,0.0,0.0,0.0,0.0,0.0,0.0,0.0,-2.712,0.0,0.0,0.0,-2.6942,-2.6759,0.0,0.0,-2.6623,-2.6842,-2.6959,-2.6893,-2.6959,-2.6942,-2.6759,-2.6909,-2.6909,-2.6759,-2.6909,-2.7007,-2.7007,-2.6992,-2.6992,-2.7007,-2.6992,-2.6975,-2.7007,-2.7007,-2.7007,-2.7007,-2.7007,-2.7007,-2.7007,-2.7007,-2.6975,-2.6992,-2.7055,-2.7006,-2.6923,-2.7068,-2.7132,-2.7213,-2.7369,-2.7244,-2.6989,-2.6923,-2.7301,-2.784,-2.8213,-2.8839,-2.9448,-2.9448,-2.9989,-3.0565,-3.0565,-3.0695,-3.0781,-3.0781,-3.0576,-3.0452,-3.074,-3.0781,-3.0878,-3.1151,-3.0852,-3.0603,-3.0759,-3.1308,-3.1806,-3.2057,-3.1962,-3.183,-3.1744,-3.1284,-3.0823,-3.0454,-2.9911,-2.9189,-2.828,-2.7587,-2.6672,-2.5422,-2.4561,-2.3921,-2.3595,-2.3595,-2.3595,-2.3595,-2.3566,-2.3566,-2.3566,-2.3319,-2.3201,-2.3201,-2.2203,-2.1623,-2.6454,0.0,0.0,0.0,0.0,0.0,0.0,0.0,0.0,0.0,0.0,0.0,0.0,0.0,-2.6957,0.0,0.0,-2.7184,0.0,-2.7186,0.0,0.0,0.0,0.0,0.0,-2.7072,-2.7152,-2.7087,-2.7152,-2.7184,-2.7184,-2.7137,-2.7089,-2.7089,-2.7089,-2.7089,-2.7089,-2.704,-2.704,-2.7089,-2.704,-2.7105,-2.7184,-2.7105,-2.7137,-2.7184,-2.7105,-2.7089,-2.7089,-2.7089,-2.7072,-2.704,-2.704,-2.6925,-2.6775,-2.6775,-2.6908,-2.7053,-2.7053,-2.7053,-2.7021,-2.6791,-2.7063,-2.752,-2.752,-2.8044,-2.867,-2.867,-2.9138,-2.9635,-2.9635,-2.9676,-2.9758,-2.9758,-2.9508,-2.9398,-2.984,-2.9921,-3.0059,-3.0504,-3.0159,-2.9749,-2.9635,-3.0289,-3.082,-3.0862,-3.0594,-3.0352,-3.0231,-2.9861,-2.9458,-2.9075,-2.86,-2.7954,-2.716,-2.6499,-2.5721,-2.4729,-2.4017,-2.3551,-2.3421,-2.3421,-2.3421,-2.3421,-2.3421,-2.3465,-2.3566,-2.3407,-2.3275,-2.3231,-2.2142,-2.1527,0.0,0.0,0.0,-2.5675,0.0,0.0,0.0,0.0,-2.4855,0.0,0.0,0.0,-2.7137,-2.7299,0.0,0.0,0.0,0.0,0.0,0.0,0.0,0.0,0.0,0.0,0.0,-2.7355,-2.7582,0.0,-2.7642,-2.7672,-2.7672,-2.7452,-2.7299,-2.7299,-2.7299,-2.7299,-2.7299,-2.7152,-2.7152,-2.7299,-2.7152,-2.7307,-2.7672,-2.7421,-2.7452,-2.7672,-2.739,-2.7299,-2.7299,-2.7299,-2.7201,-2.7103,-2.7103,-2.7038,-2.6975,-2.6926,-2.6825,-2.6725,-2.6725,-2.6725,-2.6725,-2.6691,-2.6708,-2.6725,-2.6725,-2.7249,-2.7823,-2.7823,-2.8146,-2.845,-2.845,-2.8178,-2.7875,-2.7875,-2.7875,-2.7996,-2.8367,-2.8483,-2.8598,-2.9006,-2.9025,-2.8898,-2.8527,-2.8505,-2.8603,-2.8943,-2.8656,-2.8659,-2.9437,-2.8847,-2.8249,-2.7896,-2.7148,-2.6368,-2.5631,-2.5005,-2.4364,-2.3681,-2.3638,-2.3377,-2.2934,-2.2934,-2.2934,-2.2934,-2.2934,-2.3127,-2.3509,-2.3363,-2.3246,-2.3082,-2.2463,-2.1874,0.0,0.0,-2.7418,-2.705,0.0,0.0,0.0,0.0,0.0,0.0,0.0,0.0,0.0,0.0,0.0,0.0,0.0,0.0,0.0,0.0,0.0,0.0,0.0,0.0,0.0,0.0,0.0,-2.7582,-2.7496,-2.7452,-2.7452,-2.7526,-2.7465,-2.7299,-2.7642,-2.7672,-2.7282,-2.7417,-2.7417,-2.7299,-2.725,-2.7404,-2.7701,-2.7421,-2.7539,-2.7954,-2.7496,-2.7496,-2.78,-2.7452,-2.739,-2.7491,-2.731,-2.7152,-2.7038,-2.6942,-2.6876,-2.6825,-2.6742,-2.6691,-2.6691,-2.6691,-2.6691,-2.6691,-2.6691,-2.6689,-2.6647,-2.6647,-2.6924,-2.7196,-2.7196,-2.7276,-2.7342,-2.7342,-2.7105,-2.6993,-2.7426,-2.777,-2.8066,-2.8531,-2.8169,-2.7781,-2.7632,-2.6749,-2.6437,-2.7559,-2.7401,-2.7169,-2.7136,-2.6739,-2.6294,-2.5924,-2.5877,-2.5561,-2.4744,-2.441,-2.4036,-2.3638,-2.3595,-2.3508,-2.3377,-2.3068,-2.3068,-2.3377,-2.3068,-2.3083,-2.3509,-2.3363,-2.3246,-2.3082,-2.2109,-2.1575,-2.8873,-2.8591,0.0,-2.7872,-2.7541,0.0,-2.6376,0.0,-2.5923,0.0,0.0,0.0,0.0,0.0,0.0,0.0,0.0,0.0,0.0,-2.7154,0.0,0.0,0.0,0.0,0.0,0.0,-2.76,-2.7642,-2.7701,-2.7719,-2.76,-2.7742,-2.7771,-2.76,-2.7829,-2.78,-2.7452,-2.7526,-2.7526,-2.7434,-2.7434,-2.7659,-2.8,-2.773,-2.7829,-2.8255,-2.7689,-2.7642,-2.7926,-2.7569,-2.7496,-2.7539,-2.7465,-2.7341,-2.7152,-2.7023,-2.6942,-2.6893,-2.6742,-2.6691,-2.6691,-2.6691,-2.6624,-2.6505,-2.6505,-2.621,-2.5987,-2.6475,-2.6324,-2.6117,-2.6607,-2.6417,-2.611,-2.611,-2.5886,-2.5772,-2.622,-2.6509,-2.6848,-2.7262,-2.6944,-2.6541,-2.6428,-2.5541,-2.5219,-2.6161,-2.5989,-2.5727,-2.5566,-2.5408,-2.5198,-2.4942,-2.5121,-2.4981,-2.4261,-2.4067,-2.3882,-2.3595,-2.3595,-2.3465,-2.3084,-2.2979,-2.2934,-2.3039,-2.2979,-2.3083,-2.3422,-2.3319,-2.3098,-2.2752,-2.1813,-2.1321]}]]